GEFSMW_prec_meanprecacc_090.txt.gz
Total_Precipitation_Accumulation
0.52 0.69 1.03 1.37 1.72 2.06 2.15 1.93 1.61 1.41 1.32 1.34 1.35 1.48 1.65 1.79 1.94 2.01 1.98 1.98 1.97 1.88 1.82 1.79 1.73 1.61 1.53 1.42 1.27 1.11 0.98 0.86 0.71 0.60 0.50 0.39 0.31 0.28 0.26 0.24 0.21 0.21 0.22
0.56 0.73 1.10 1.44 1.81 2.06 2.01 2.04 2.01 1.94 1.79 1.89 2.08 2.33 2.54 2.62 2.77 2.98 3.10 3.07 2.90 2.66 2.48 2.29 2.02 1.77 1.62 1.50 1.34 1.15 1.00 0.86 0.71 0.61 0.55 0.43 0.31 0.23 0.17 0.17 0.17 0.16 0.17
0.69 0.84 1.17 1.42 1.66 1.98 2.09 2.16 2.35 2.35 2.24 2.51 2.88 3.22 3.46 3.52 3.58 3.61 3.64 3.52 3.21 2.94 2.69 2.36 2.07 1.88 1.73 1.56 1.40 1.19 1.04 0.85 0.65 0.52 0.50 0.46 0.37 0.25 0.15 0.10 0.08 0.08 0.08
0.50 0.71 1.00 1.36 1.47 1.73 1.91 1.99 2.24 2.50 2.74 3.03 3.41 3.84 4.11 4.24 4.19 3.92 3.64 3.28 2.94 2.62 2.29 2.08 1.94 1.79 1.63 1.48 1.26 1.01 0.83 0.69 0.56 0.47 0.41 0.36 0.30 0.26 0.19 0.12 0.08 0.07 0.07
0.37 0.53 0.69 0.96 1.25 1.49 1.67 1.82 2.01 2.37 2.92 3.51 3.96 4.33 4.57 4.46 4.08 3.65 3.12 2.74 2.43 2.15 1.90 1.72 1.63 1.54 1.34 1.11 0.86 0.66 0.55 0.46 0.39 0.32 0.28 0.26 0.22 0.19 0.20 0.17 0.11 0.08 0.07
0.31 0.38 0.49 0.69 0.93 1.13 1.36 1.63 1.90 2.21 2.73 3.27 3.79 4.13 4.29 4.16 3.75 3.17 2.65 2.30 1.99 1.72 1.48 1.22 1.04 0.89 0.73 0.55 0.43 0.36 0.32 0.29 0.25 0.20 0.18 0.17 0.17 0.16 0.16 0.16 0.11 0.08 0.06
0.33 0.39 0.46 0.55 0.68 0.83 1.05 1.31 1.59 1.97 2.30 2.69 3.15 3.23 3.16 2.94 2.56 2.30 2.08 1.75 1.41 1.16 0.95 0.75 0.61 0.48 0.38 0.32 0.28 0.24 0.21 0.17 0.15 0.14 0.13 0.11 0.10 0.10 0.11 0.13 0.11 0.09 0.05
0.33 0.40 0.47 0.57 0.72 0.84 0.98 1.13 1.35 1.63 1.85 1.98 2.09 2.06 1.86 1.70 1.56 1.41 1.19 0.97 0.78 0.64 0.52 0.42 0.34 0.27 0.22 0.17 0.13 0.11 0.09 0.09 0.09 0.08 0.09 0.09 0.08 0.09 0.11 0.14 0.17 0.16 0.10
0.40 0.46 0.51 0.58 0.70 0.76 0.86 0.88 0.91 1.04 1.10 1.12 1.12 1.14 1.12 1.02 0.91 0.77 0.63 0.53 0.43 0.34 0.27 0.21 0.17 0.12 0.10 0.09 0.08 0.07 0.07 0.08 0.09 0.09 0.09 0.09 0.09 0.10 0.11 0.12 0.16 0.21 0.20
0.47 0.50 0.52 0.53 0.53 0.54 0.56 0.59 0.59 0.61 0.62 0.64 0.61 0.61 0.62 0.59 0.50 0.43 0.37 0.29 0.23 0.17 0.14 0.12 0.10 0.09 0.08 0.07 0.07 0.08 0.08 0.09 0.09 0.10 0.11 0.10 0.10 0.10 0.10 0.10 0.13 0.19 0.27
0.50 0.49 0.46 0.42 0.39 0.38 0.38 0.39 0.41 0.43 0.46 0.46 0.43 0.39 0.36 0.31 0.29 0.23 0.19 0.15 0.12 0.11 0.10 0.09 0.09 0.09 0.09 0.08 0.09 0.10 0.10 0.09 0.09 0.08 0.09 0.09 0.09 0.10 0.10 0.10 0.12 0.14 0.21
0.52 0.48 0.42 0.36 0.30 0.28 0.28 0.29 0.31 0.31 0.31 0.32 0.31 0.28 0.23 0.20 0.17 0.13 0.11 0.09 0.09 0.09 0.09 0.09 0.09 0.08 0.07 0.08 0.09 0.09 0.09 0.09 0.09 0.08 0.08 0.08 0.08 0.09 0.09 0.10 0.11 0.14 0.20
0.73 0.61 0.46 0.34 0.27 0.26 0.26 0.26 0.26 0.26 0.23 0.19 0.17 0.16 0.13 0.11 0.10 0.09 0.09 0.08 0.08 0.09 0.09 0.08 0.07 0.07 0.07 0.08 0.08 0.07 0.06 0.06 0.07 0.07 0.08 0.09 0.10 0.09 0.11 0.14 0.15 0.18 0.22
0.77 0.62 0.50 0.39 0.32 0.28 0.26 0.24 0.20 0.18 0.16 0.13 0.11 0.11 0.10 0.09 0.09 0.09 0.09 0.09 0.09 0.10 0.09 0.08 0.07 0.07 0.07 0.06 0.04 0.04 0.04 0.04 0.05 0.06 0.09 0.10 0.11 0.13 0.18 0.19 0.22 0.27 0.31
0.74 0.70 0.60 0.49 0.37 0.30 0.26 0.22 0.20 0.19 0.16 0.13 0.12 0.11 0.11 0.10 0.11 0.12 0.12 0.12 0.11 0.10 0.09 0.08 0.07 0.06 0.04 0.02 0.01 0.01 0.01 0.03 0.04 0.06 0.09 0.11 0.11 0.16 0.19 0.19 0.24 0.32 0.38
0.94 0.90 0.76 0.62 0.50 0.41 0.36 0.31 0.28 0.23 0.18 0.16 0.17 0.16 0.15 0.16 0.16 0.16 0.15 0.15 0.13 0.11 0.08 0.05 0.04 0.03 0.02 0.01 0.01 0.01 0.01 0.02 0.05 0.09 0.10 0.08 0.07 0.08 0.09 0.14 0.21 0.30 0.39
1.03 0.94 0.82 0.69 0.62 0.56 0.49 0.42 0.36 0.30 0.26 0.25 0.23 0.21 0.19 0.20 0.19 0.16 0.14 0.13 0.10 0.08 0.07 0.05 0.04 0.05 0.03 0.00 0.00 0.00 0.01 0.04 0.09 0.12 0.12 0.09 0.08 0.12 0.17 0.17 0.17 0.25 0.33
1.22 1.10 0.92 0.79 0.68 0.59 0.52 0.45 0.37 0.32 0.29 0.28 0.26 0.23 0.20 0.19 0.16 0.12 0.11 0.09 0.07 0.07 0.06 0.05 0.05 0.07 0.04 0.00 0.00 0.00 0.01 0.06 0.09 0.10 0.12 0.15 0.18 0.16 0.13 0.14 0.22 0.32 0.42
1.17 1.04 0.87 0.76 0.68 0.58 0.49 0.42 0.37 0.33 0.30 0.27 0.22 0.17 0.12 0.11 0.08 0.07 0.06 0.06 0.06 0.06 0.05 0.04 0.05 0.08 0.07 0.01 0.00 0.00 0.02 0.05 0.07 0.09 0.11 0.12 0.17 0.13 0.12 0.19 0.31 0.39 0.52
0.78 0.74 0.70 0.65 0.59 0.49 0.40 0.37 0.34 0.28 0.23 0.16 0.11 0.07 0.05 0.05 0.05 0.05 0.06 0.06 0.07 0.06 0.05 0.05 0.06 0.08 0.09 0.02 0.00 0.01 0.03 0.05 0.06 0.10 0.14 0.13 0.11 0.11 0.15 0.22 0.38 0.54 0.62
0.63 0.61 0.58 0.55 0.49 0.38 0.30 0.27 0.24 0.19 0.12 0.08 0.05 0.03 0.02 0.03 0.03 0.05 0.07 0.08 0.08 0.09 0.08 0.08 0.09 0.09 0.06 0.03 0.00 0.01 0.03 0.05 0.07 0.12 0.18 0.22 0.16 0.16 0.18 0.29 0.47 0.65 0.68
0.59 0.56 0.51 0.44 0.34 0.25 0.22 0.21 0.17 0.10 0.07 0.06 0.05 0.03 0.02 0.02 0.03 0.07 0.10 0.10 0.11 0.11 0.10 0.10 0.09 0.07 0.07 0.05 0.01 0.00 0.01 0.04 0.10 0.22 0.25 0.27 0.25 0.22 0.27 0.40 0.59 0.73 0.87
0.57 0.50 0.40 0.31 0.22 0.16 0.16 0.17 0.13 0.08 0.07 0.08 0.07 0.05 0.04 0.04 0.03 0.07 0.10 0.11 0.11 0.08 0.07 0.07 0.07 0.07 0.09 0.08 0.02 0.01 0.02 0.05 0.12 0.26 0.33 0.33 0.30 0.37 0.55 0.68 0.79 0.91 1.05
0.41 0.32 0.24 0.19 0.13 0.09 0.08 0.09 0.07 0.06 0.07 0.08 0.06 0.06 0.07 0.08 0.08 0.09 0.07 0.08 0.08 0.06 0.06 0.08 0.08 0.10 0.12 0.09 0.05 0.05 0.07 0.10 0.15 0.23 0.38 0.46 0.50 0.63 0.83 0.96 1.05 1.11 1.12
0.23 0.17 0.15 0.12 0.08 0.05 0.04 0.03 0.03 0.04 0.06 0.07 0.06 0.06 0.06 0.08 0.13 0.13 0.06 0.04 0.05 0.02 0.03 0.06 0.08 0.12 0.13 0.08 0.06 0.09 0.11 0.14 0.19 0.23 0.37 0.52 0.59 0.74 0.90 1.01 1.05 1.07 1.06
0.16 0.13 0.10 0.06 0.04 0.03 0.02 0.01 0.01 0.01 0.05 0.08 0.06 0.04 0.04 0.06 0.08 0.13 0.14 0.05 0.01 0.00 0.01 0.03 0.05 0.07 0.09 0.07 0.06 0.08 0.12 0.17 0.23 0.29 0.46 0.59 0.63 0.72 0.82 0.91 0.99 0.97 0.92

GEFSMW_prec_meanprecacc_096.txt.gz
Total_Precipitation_Accumulation
0.54 0.72 1.07 1.44 1.79 2.14 2.26 2.08 1.79 1.66 1.64 1.65 1.61 1.76 1.94 2.07 2.23 2.32 2.30 2.26 2.23 2.17 2.11 2.05 1.95 1.80 1.71 1.60 1.42 1.23 1.07 0.94 0.78 0.67 0.55 0.41 0.33 0.29 0.28 0.26 0.23 0.23 0.23
0.58 0.76 1.14 1.48 1.85 2.12 2.08 2.16 2.21 2.18 2.05 2.20 2.41 2.67 2.88 2.92 3.06 3.26 3.36 3.33 3.15 2.90 2.71 2.51 2.21 1.93 1.78 1.65 1.47 1.25 1.08 0.92 0.77 0.69 0.64 0.48 0.34 0.24 0.19 0.18 0.18 0.18 0.18
0.72 0.86 1.19 1.44 1.69 2.02 2.14 2.26 2.52 2.58 2.48 2.81 3.24 3.63 3.87 3.88 3.88 3.88 3.88 3.74 3.43 3.15 2.90 2.55 2.25 2.03 1.86 1.68 1.52 1.31 1.14 0.92 0.70 0.58 0.58 0.55 0.44 0.27 0.17 0.11 0.09 0.08 0.09
0.53 0.73 1.02 1.39 1.50 1.77 1.96 2.09 2.39 2.73 2.99 3.32 3.78 4.29 4.54 4.63 4.55 4.23 3.90 3.51 3.14 2.83 2.49 2.25 2.11 1.92 1.74 1.57 1.35 1.11 0.93 0.77 0.62 0.52 0.45 0.42 0.36 0.30 0.22 0.13 0.09 0.08 0.08
0.41 0.55 0.70 0.98 1.28 1.54 1.73 1.93 2.18 2.62 3.18 3.80 4.33 4.74 5.01 4.90 4.49 4.02 3.44 3.01 2.63 2.34 2.08 1.88 1.80 1.68 1.46 1.20 0.94 0.74 0.63 0.52 0.45 0.37 0.32 0.29 0.26 0.23 0.23 0.19 0.12 0.09 0.08
0.33 0.40 0.51 0.71 0.96 1.17 1.42 1.71 2.05 2.38 2.92 3.50 4.08 4.43 4.62 4.51 4.09 3.47 2.93 2.53 2.17 1.86 1.59 1.31 1.13 0.98 0.81 0.64 0.51 0.43 0.38 0.34 0.31 0.26 0.23 0.21 0.21 0.20 0.19 0.19 0.13 0.10 0.07
0.36 0.42 0.49 0.59 0.71 0.86 1.10 1.37 1.68 2.11 2.45 2.85 3.37 3.51 3.48 3.24 2.85 2.57 2.32 1.93 1.56 1.26 1.03 0.82 0.66 0.52 0.42 0.36 0.32 0.28 0.25 0.21 0.19 0.17 0.16 0.15 0.14 0.13 0.14 0.16 0.14 0.11 0.07
0.37 0.44 0.51 0.62 0.76 0.88 1.03 1.18 1.41 1.73 2.00 2.19 2.36 2.36 2.20 2.04 1.87 1.68 1.43 1.15 0.91 0.72 0.57 0.46 0.37 0.30 0.24 0.19 0.15 0.12 0.11 0.10 0.10 0.09 0.10 0.10 0.09 0.11 0.12 0.16 0.18 0.17 0.11
0.47 0.51 0.55 0.63 0.75 0.82 0.93 0.97 0.99 1.12 1.23 1.29 1.34 1.39 1.38 1.27 1.16 1.00 0.84 0.70 0.55 0.42 0.32 0.24 0.19 0.14 0.12 0.10 0.08 0.08 0.08 0.09 0.09 0.09 0.09 0.10 0.10 0.10 0.11 0.12 0.16 0.22 0.20
0.55 0.58 0.57 0.59 0.59 0.62 0.66 0.70 0.72 0.72 0.74 0.77 0.76 0.82 0.84 0.80 0.73 0.63 0.53 0.43 0.33 0.25 0.20 0.16 0.13 0.11 0.09 0.09 0.09 0.08 0.08 0.09 0.10 0.10 0.11 0.10 0.10 0.10 0.10 0.11 0.13 0.19 0.27
0.63 0.60 0.58 0.52 0.48 0.47 0.46 0.47 0.50 0.52 0.56 0.58 0.56 0.54 0.51 0.48 0.46 0.41 0.36 0.29 0.23 0.19 0.16 0.14 0.12 0.11 0.10 0.09 0.10 0.11 0.10 0.10 0.09 0.09 0.09 0.09 0.09 0.10 0.10 0.11 0.12 0.14 0.21
0.61 0.56 0.52 0.46 0.40 0.37 0.35 0.35 0.37 0.37 0.37 0.39 0.41 0.40 0.34 0.32 0.31 0.28 0.26 0.23 0.19 0.15 0.14 0.13 0.11 0.09 0.08 0.08 0.09 0.10 0.09 0.10 0.09 0.08 0.08 0.08 0.08 0.09 0.09 0.10 0.12 0.14 0.20
0.80 0.67 0.55 0.45 0.38 0.33 0.33 0.33 0.33 0.31 0.27 0.24 0.23 0.23 0.22 0.19 0.18 0.16 0.15 0.13 0.12 0.12 0.11 0.09 0.09 0.08 0.08 0.09 0.08 0.08 0.07 0.07 0.07 0.08 0.08 0.09 0.10 0.10 0.11 0.14 0.15 0.18 0.22
0.87 0.71 0.60 0.52 0.42 0.35 0.34 0.32 0.28 0.23 0.20 0.17 0.15 0.16 0.15 0.15 0.13 0.12 0.12 0.11 0.11 0.11 0.10 0.09 0.08 0.07 0.08 0.07 0.05 0.04 0.04 0.05 0.05 0.06 0.09 0.11 0.12 0.14 0.18 0.19 0.23 0.28 0.31
0.86 0.80 0.71 0.61 0.49 0.40 0.37 0.32 0.28 0.24 0.21 0.18 0.16 0.16 0.15 0.14 0.14 0.14 0.14 0.13 0.12 0.11 0.10 0.09 0.07 0.06 0.05 0.02 0.01 0.01 0.02 0.03 0.04 0.06 0.10 0.11 0.11 0.16 0.19 0.19 0.24 0.32 0.39
1.09 1.04 0.90 0.73 0.60 0.53 0.47 0.41 0.35 0.27 0.22 0.20 0.20 0.20 0.19 0.19 0.19 0.18 0.17 0.16 0.14 0.12 0.08 0.06 0.04 0.03 0.02 0.01 0.01 0.01 0.01 0.03 0.06 0.09 0.11 0.09 0.08 0.09 0.09 0.14 0.21 0.30 0.39
1.16 1.04 0.92 0.79 0.70 0.64 0.56 0.49 0.42 0.34 0.29 0.27 0.25 0.23 0.21 0.21 0.21 0.17 0.15 0.13 0.11 0.09 0.07 0.05 0.04 0.05 0.03 0.00 0.00 0.00 0.01 0.04 0.09 0.13 0.12 0.09 0.08 0.12 0.17 0.17 0.18 0.26 0.33
1.33 1.21 1.02 0.88 0.75 0.64 0.56 0.48 0.41 0.35 0.32 0.30 0.27 0.24 0.21 0.20 0.17 0.13 0.12 0.09 0.08 0.08 0.07 0.06 0.05 0.07 0.04 0.00 0.00 0.00 0.02 0.07 0.10 0.11 0.13 0.16 0.20 0.16 0.14 0.14 0.22 0.33 0.43
1.25 1.13 0.97 0.85 0.74 0.63 0.52 0.44 0.39 0.35 0.32 0.30 0.24 0.18 0.13 0.12 0.10 0.09 0.08 0.07 0.07 0.08 0.06 0.05 0.06 0.09 0.07 0.01 0.00 0.00 0.03 0.06 0.08 0.09 0.11 0.13 0.18 0.13 0.12 0.19 0.32 0.41 0.54
0.85 0.79 0.75 0.70 0.63 0.53 0.43 0.39 0.36 0.30 0.25 0.19 0.13 0.09 0.06 0.06 0.06 0.06 0.07 0.07 0.08 0.08 0.06 0.06 0.07 0.09 0.09 0.02 0.00 0.01 0.03 0.06 0.07 0.11 0.15 0.13 0.11 0.11 0.15 0.23 0.40 0.56 0.64
0.67 0.64 0.60 0.58 0.51 0.40 0.32 0.30 0.28 0.21 0.14 0.09 0.07 0.05 0.03 0.03 0.04 0.06 0.09 0.10 0.10 0.10 0.09 0.09 0.10 0.09 0.06 0.03 0.00 0.01 0.03 0.06 0.08 0.14 0.19 0.22 0.16 0.16 0.18 0.29 0.48 0.66 0.69
0.64 0.59 0.54 0.48 0.37 0.27 0.24 0.25 0.21 0.12 0.08 0.07 0.06 0.05 0.03 0.02 0.03 0.08 0.12 0.11 0.12 0.12 0.12 0.11 0.10 0.08 0.08 0.05 0.01 0.00 0.01 0.04 0.11 0.24 0.26 0.27 0.25 0.22 0.27 0.40 0.59 0.73 0.87
0.62 0.54 0.44 0.35 0.25 0.19 0.19 0.20 0.16 0.10 0.08 0.09 0.08 0.07 0.05 0.04 0.04 0.08 0.12 0.12 0.12 0.10 0.09 0.09 0.08 0.08 0.10 0.08 0.02 0.01 0.02 0.05 0.13 0.27 0.33 0.33 0.30 0.37 0.55 0.68 0.79 0.91 1.05
0.45 0.35 0.28 0.22 0.16 0.11 0.10 0.10 0.08 0.07 0.08 0.10 0.08 0.07 0.09 0.09 0.09 0.10 0.08 0.09 0.10 0.07 0.07 0.08 0.09 0.12 0.13 0.09 0.05 0.05 0.07 0.10 0.15 0.24 0.38 0.47 0.50 0.64 0.83 0.97 1.05 1.12 1.13
0.26 0.20 0.17 0.15 0.10 0.07 0.05 0.04 0.04 0.04 0.08 0.09 0.07 0.07 0.08 0.10 0.15 0.14 0.07 0.05 0.05 0.02 0.03 0.06 0.08 0.13 0.14 0.08 0.06 0.09 0.11 0.14 0.19 0.24 0.38 0.54 0.60 0.75 0.90 1.01 1.05 1.07 1.06
0.18 0.15 0.11 0.09 0.06 0.04 0.03 0.02 0.02 0.02 0.06 0.10 0.09 0.05 0.05 0.07 0.10 0.14 0.14 0.05 0.01 0.00 0.01 0.03 0.05 0.07 0.09 0.07 0.06 0.08 0.12 0.17 0.23 0.29 0.48 0.60 0.64 0.73 0.82 0.91 0.99 0.97 0.92

GEFSMW_prec_meanprecacc_102.txt.gz
Total_Precipitation_Accumulation
0.55 0.73 1.09 1.47 1.84 2.20 2.35 2.22 1.97 1.85 1.86 1.94 1.93 2.12 2.32 2.44 2.58 2.64 2.63 2.57 2.51 2.43 2.39 2.36 2.26 2.13 2.04 1.89 1.69 1.48 1.30 1.14 0.97 0.90 0.78 0.61 0.44 0.37 0.35 0.32 0.29 0.28 0.28
0.59 0.77 1.15 1.51 1.89 2.19 2.17 2.27 2.35 2.32 2.17 2.38 2.63 2.91 3.17 3.22 3.33 3.51 3.64 3.61 3.39 3.14 2.95 2.79 2.52 2.24 2.10 1.96 1.75 1.50 1.32 1.13 0.95 0.91 0.86 0.68 0.46 0.32 0.24 0.22 0.22 0.21 0.21
0.74 0.88 1.21 1.46 1.72 2.07 2.23 2.36 2.62 2.70 2.61 2.96 3.41 3.85 4.11 4.08 4.05 4.06 4.06 3.92 3.60 3.31 3.06 2.73 2.48 2.27 2.09 1.92 1.76 1.53 1.37 1.13 0.88 0.77 0.79 0.76 0.61 0.38 0.22 0.15 0.13 0.14 0.14
0.56 0.75 1.05 1.41 1.52 1.80 2.02 2.17 2.49 2.84 3.11 3.45 3.91 4.44 4.71 4.83 4.74 4.40 4.08 3.67 3.32 3.03 2.65 2.40 2.28 2.11 1.92 1.76 1.54 1.28 1.12 0.98 0.81 0.69 0.65 0.60 0.53 0.43 0.30 0.18 0.13 0.12 0.12
0.44 0.58 0.73 1.00 1.30 1.57 1.78 1.99 2.26 2.70 3.28 3.93 4.46 4.87 5.17 5.09 4.69 4.22 3.64 3.22 2.85 2.58 2.32 2.08 1.99 1.86 1.63 1.36 1.10 0.91 0.79 0.70 0.63 0.54 0.46 0.40 0.36 0.33 0.32 0.26 0.16 0.12 0.10
0.40 0.45 0.54 0.74 0.99 1.21 1.47 1.77 2.12 2.46 3.01 3.62 4.21 4.57 4.79 4.71 4.29 3.67 3.14 2.76 2.41 2.11 1.84 1.54 1.32 1.15 0.96 0.79 0.66 0.57 0.51 0.47 0.44 0.39 0.33 0.30 0.28 0.26 0.26 0.25 0.19 0.13 0.10
0.43 0.48 0.52 0.62 0.74 0.91 1.15 1.43 1.75 2.17 2.52 2.94 3.48 3.61 3.61 3.40 3.03 2.76 2.52 2.13 1.78 1.48 1.22 0.98 0.82 0.68 0.56 0.48 0.43 0.39 0.35 0.31 0.29 0.26 0.23 0.21 0.20 0.18 0.18 0.20 0.18 0.15 0.11
0.43 0.49 0.54 0.65 0.79 0.92 1.08 1.23 1.46 1.79 2.07 2.26 2.45 2.46 2.32 2.18 2.04 1.87 1.64 1.38 1.14 0.94 0.76 0.60 0.50 0.43 0.37 0.30 0.24 0.19 0.17 0.15 0.15 0.13 0.14 0.13 0.12 0.13 0.15 0.18 0.21 0.21 0.15
0.52 0.56 0.58 0.66 0.78 0.85 0.98 1.03 1.06 1.20 1.30 1.36 1.42 1.48 1.47 1.36 1.29 1.18 1.07 0.96 0.80 0.64 0.51 0.40 0.32 0.26 0.22 0.19 0.16 0.13 0.12 0.12 0.12 0.12 0.11 0.12 0.11 0.12 0.13 0.14 0.18 0.24 0.23
0.63 0.62 0.60 0.62 0.64 0.67 0.72 0.79 0.82 0.82 0.82 0.84 0.84 0.88 0.90 0.86 0.81 0.74 0.68 0.59 0.49 0.40 0.34 0.29 0.24 0.21 0.19 0.17 0.16 0.14 0.13 0.12 0.12 0.12 0.12 0.11 0.10 0.10 0.10 0.11 0.14 0.20 0.28
0.72 0.66 0.64 0.58 0.54 0.54 0.54 0.57 0.62 0.66 0.68 0.67 0.65 0.63 0.61 0.58 0.55 0.51 0.48 0.41 0.34 0.29 0.26 0.24 0.21 0.19 0.17 0.16 0.16 0.16 0.14 0.13 0.11 0.10 0.10 0.10 0.09 0.10 0.10 0.11 0.12 0.15 0.22
0.69 0.62 0.57 0.53 0.47 0.46 0.44 0.44 0.48 0.49 0.51 0.51 0.52 0.50 0.46 0.42 0.40 0.37 0.37 0.36 0.32 0.27 0.25 0.24 0.22 0.19 0.17 0.16 0.15 0.14 0.13 0.12 0.11 0.10 0.10 0.09 0.09 0.10 0.09 0.11 0.12 0.14 0.21
0.85 0.73 0.60 0.52 0.48 0.45 0.45 0.42 0.40 0.39 0.36 0.33 0.31 0.31 0.30 0.27 0.26 0.23 0.24 0.24 0.24 0.23 0.21 0.19 0.19 0.19 0.18 0.17 0.15 0.12 0.10 0.10 0.09 0.09 0.10 0.10 0.11 0.10 0.12 0.14 0.16 0.19 0.22
0.90 0.74 0.64 0.57 0.50 0.46 0.47 0.45 0.38 0.31 0.27 0.23 0.20 0.21 0.20 0.20 0.19 0.18 0.18 0.18 0.18 0.18 0.16 0.15 0.14 0.14 0.13 0.12 0.09 0.07 0.06 0.06 0.06 0.07 0.10 0.12 0.13 0.15 0.19 0.20 0.24 0.29 0.32
0.94 0.86 0.77 0.67 0.56 0.48 0.45 0.43 0.39 0.33 0.28 0.25 0.22 0.21 0.19 0.19 0.19 0.19 0.19 0.18 0.17 0.15 0.14 0.13 0.12 0.09 0.07 0.04 0.02 0.02 0.03 0.04 0.06 0.07 0.10 0.11 0.12 0.17 0.19 0.20 0.25 0.33 0.40
1.19 1.15 0.99 0.80 0.67 0.60 0.54 0.49 0.44 0.36 0.28 0.26 0.27 0.26 0.25 0.24 0.24 0.23 0.21 0.20 0.17 0.15 0.12 0.09 0.07 0.05 0.03 0.02 0.02 0.01 0.02 0.04 0.08 0.11 0.12 0.09 0.08 0.09 0.10 0.14 0.21 0.31 0.40
1.25 1.12 1.00 0.86 0.76 0.71 0.63 0.56 0.51 0.42 0.36 0.35 0.32 0.29 0.27 0.27 0.26 0.22 0.19 0.16 0.13 0.11 0.10 0.07 0.06 0.06 0.04 0.01 0.01 0.01 0.02 0.07 0.12 0.15 0.15 0.11 0.09 0.13 0.18 0.17 0.18 0.27 0.33
1.39 1.27 1.08 0.95 0.82 0.71 0.61 0.53 0.47 0.43 0.40 0.39 0.36 0.31 0.27 0.25 0.22 0.18 0.16 0.13 0.11 0.10 0.10 0.08 0.07 0.08 0.04 0.00 0.00 0.01 0.04 0.10 0.12 0.13 0.15 0.20 0.23 0.17 0.14 0.15 0.26 0.37 0.45
1.28 1.17 1.01 0.91 0.80 0.68 0.57 0.48 0.44 0.41 0.39 0.37 0.30 0.24 0.18 0.16 0.14 0.13 0.12 0.12 0.12 0.11 0.09 0.08 0.09 0.11 0.08 0.01 0.00 0.01 0.05 0.09 0.10 0.10 0.12 0.14 0.20 0.14 0.12 0.21 0.38 0.47 0.59
0.88 0.83 0.79 0.74 0.66 0.57 0.47 0.44 0.42 0.36 0.30 0.23 0.18 0.13 0.09 0.09 0.09 0.10 0.11 0.11 0.12 0.11 0.08 0.08 0.10 0.11 0.10 0.02 0.00 0.01 0.05 0.10 0.11 0.15 0.18 0.14 0.11 0.11 0.15 0.24 0.44 0.60 0.67
0.71 0.68 0.64 0.62 0.55 0.44 0.37 0.35 0.32 0.27 0.18 0.13 0.10 0.07 0.05 0.06 0.07 0.10 0.13 0.14 0.14 0.14 0.12 0.13 0.13 0.11 0.07 0.03 0.00 0.01 0.04 0.08 0.13 0.18 0.23 0.24 0.16 0.16 0.18 0.29 0.49 0.67 0.69
0.70 0.64 0.58 0.51 0.41 0.32 0.29 0.30 0.26 0.16 0.11 0.09 0.08 0.07 0.05 0.03 0.05 0.12 0.16 0.15 0.16 0.17 0.17 0.17 0.15 0.12 0.09 0.05 0.01 0.00 0.01 0.04 0.16 0.29 0.29 0.28 0.25 0.22 0.27 0.40 0.59 0.73 0.87
0.69 0.60 0.48 0.39 0.30 0.24 0.24 0.25 0.20 0.12 0.10 0.12 0.12 0.10 0.07 0.06 0.07 0.12 0.16 0.16 0.16 0.15 0.13 0.13 0.14 0.13 0.13 0.09 0.02 0.01 0.02 0.05 0.15 0.29 0.34 0.33 0.30 0.37 0.56 0.68 0.79 0.91 1.06
0.51 0.42 0.34 0.27 0.21 0.16 0.14 0.14 0.10 0.08 0.10 0.13 0.12 0.10 0.11 0.12 0.12 0.13 0.10 0.11 0.12 0.10 0.09 0.11 0.13 0.16 0.17 0.10 0.06 0.07 0.08 0.11 0.17 0.25 0.39 0.47 0.50 0.64 0.84 0.97 1.06 1.13 1.14
0.31 0.27 0.24 0.20 0.14 0.10 0.08 0.06 0.05 0.06 0.11 0.13 0.12 0.10 0.10 0.12 0.18 0.15 0.07 0.05 0.06 0.02 0.05 0.08 0.11 0.16 0.17 0.08 0.06 0.09 0.12 0.15 0.20 0.25 0.40 0.56 0.62 0.76 0.91 1.02 1.06 1.08 1.07
0.23 0.20 0.17 0.13 0.08 0.06 0.05 0.04 0.03 0.04 0.11 0.15 0.12 0.07 0.06 0.09 0.12 0.15 0.14 0.05 0.01 0.00 0.01 0.03 0.05 0.07 0.09 0.07 0.06 0.08 0.12 0.17 0.23 0.30 0.50 0.62 0.65 0.73 0.83 0.92 0.99 0.98 0.93

GEFSMW_prec_meanprecacc_108.txt.gz
Total_Precipitation_Accumulation
0.58 0.76 1.13 1.51 1.89 2.27 2.45 2.38 2.19 2.17 2.26 2.33 2.21 2.35 2.61 2.84 3.02 3.00 2.95 2.88 2.81 2.74 2.67 2.61 2.50 2.37 2.27 2.11 1.91 1.74 1.56 1.38 1.15 1.08 0.93 0.76 0.66 0.58 0.50 0.44 0.40 0.37 0.34
0.65 0.82 1.19 1.54 1.95 2.27 2.26 2.37 2.49 2.51 2.38 2.61 2.84 3.13 3.43 3.55 3.73 3.92 4.00 3.93 3.69 3.42 3.26 3.09 2.80 2.48 2.31 2.19 1.96 1.71 1.54 1.34 1.11 1.06 1.01 0.81 0.61 0.48 0.38 0.34 0.32 0.29 0.26
0.80 0.94 1.25 1.49 1.76 2.13 2.31 2.44 2.69 2.79 2.74 3.11 3.59 4.06 4.35 4.36 4.34 4.35 4.35 4.21 3.87 3.55 3.29 2.95 2.69 2.47 2.28 2.12 1.97 1.74 1.58 1.33 1.06 0.91 0.93 0.90 0.75 0.51 0.36 0.27 0.22 0.20 0.18
0.65 0.84 1.09 1.45 1.57 1.85 2.07 2.24 2.58 2.94 3.24 3.60 4.06 4.61 4.90 5.06 4.96 4.61 4.31 3.90 3.51 3.19 2.79 2.53 2.44 2.25 2.08 1.92 1.70 1.45 1.30 1.17 1.01 0.87 0.80 0.73 0.65 0.54 0.42 0.30 0.21 0.17 0.16
0.51 0.65 0.79 1.07 1.36 1.61 1.83 2.06 2.35 2.80 3.39 4.06 4.61 5.03 5.34 5.30 4.88 4.39 3.80 3.39 3.02 2.73 2.45 2.22 2.17 2.03 1.77 1.51 1.24 1.03 0.92 0.85 0.79 0.71 0.65 0.59 0.50 0.43 0.40 0.34 0.23 0.17 0.13
0.51 0.55 0.64 0.86 1.07 1.27 1.55 1.89 2.26 2.57 3.13 3.76 4.34 4.70 4.93 4.84 4.42 3.79 3.26 2.89 2.57 2.26 1.98 1.72 1.53 1.37 1.15 0.95 0.79 0.69 0.63 0.59 0.55 0.51 0.47 0.45 0.42 0.38 0.35 0.33 0.26 0.20 0.15
0.52 0.57 0.61 0.72 0.86 1.02 1.24 1.52 1.86 2.30 2.64 3.04 3.58 3.72 3.71 3.50 3.12 2.86 2.62 2.25 1.92 1.63 1.37 1.18 1.02 0.88 0.74 0.64 0.56 0.51 0.48 0.42 0.38 0.35 0.32 0.31 0.29 0.26 0.25 0.26 0.25 0.20 0.15
0.49 0.59 0.62 0.70 0.86 0.99 1.16 1.32 1.54 1.90 2.20 2.36 2.52 2.51 2.39 2.27 2.12 1.95 1.73 1.49 1.25 1.09 0.94 0.82 0.73 0.62 0.54 0.49 0.42 0.35 0.29 0.26 0.25 0.22 0.21 0.21 0.20 0.20 0.21 0.24 0.26 0.25 0.19
0.59 0.62 0.62 0.69 0.83 0.90 1.03 1.10 1.14 1.29 1.39 1.46 1.51 1.56 1.54 1.42 1.36 1.25 1.12 1.02 0.87 0.73 0.62 0.54 0.50 0.45 0.40 0.36 0.30 0.25 0.21 0.21 0.22 0.20 0.18 0.17 0.16 0.16 0.16 0.18 0.21 0.27 0.26
0.68 0.65 0.62 0.65 0.66 0.68 0.75 0.84 0.89 0.89 0.89 0.91 0.91 1.00 0.98 0.91 0.84 0.77 0.71 0.62 0.54 0.46 0.40 0.35 0.32 0.30 0.28 0.26 0.24 0.22 0.20 0.19 0.19 0.18 0.17 0.15 0.13 0.13 0.13 0.14 0.16 0.21 0.29
0.75 0.69 0.66 0.59 0.55 0.56 0.56 0.59 0.67 0.71 0.74 0.73 0.71 0.68 0.66 0.62 0.57 0.54 0.50 0.43 0.38 0.33 0.31 0.29 0.27 0.25 0.24 0.24 0.24 0.24 0.23 0.20 0.18 0.15 0.13 0.12 0.11 0.12 0.12 0.12 0.14 0.15 0.22
0.71 0.64 0.58 0.54 0.48 0.48 0.46 0.46 0.50 0.52 0.54 0.56 0.58 0.57 0.51 0.47 0.45 0.41 0.40 0.38 0.34 0.30 0.29 0.28 0.27 0.24 0.21 0.20 0.21 0.20 0.18 0.17 0.15 0.13 0.12 0.11 0.11 0.11 0.11 0.12 0.13 0.15 0.21
0.88 0.75 0.61 0.53 0.50 0.47 0.48 0.46 0.44 0.42 0.39 0.36 0.35 0.37 0.35 0.33 0.32 0.29 0.28 0.28 0.27 0.25 0.24 0.23 0.22 0.21 0.21 0.21 0.19 0.17 0.15 0.15 0.14 0.14 0.15 0.15 0.15 0.14 0.14 0.16 0.17 0.19 0.22
0.94 0.77 0.65 0.58 0.52 0.48 0.49 0.49 0.43 0.36 0.31 0.27 0.25 0.26 0.27 0.26 0.25 0.24 0.24 0.23 0.22 0.21 0.18 0.16 0.15 0.15 0.15 0.13 0.11 0.10 0.09 0.09 0.09 0.10 0.13 0.14 0.15 0.16 0.20 0.21 0.25 0.29 0.33
0.97 0.89 0.80 0.70 0.58 0.50 0.47 0.45 0.43 0.38 0.33 0.29 0.27 0.26 0.24 0.24 0.23 0.23 0.23 0.21 0.19 0.16 0.16 0.15 0.13 0.11 0.09 0.06 0.05 0.04 0.05 0.06 0.07 0.09 0.11 0.12 0.13 0.18 0.20 0.21 0.26 0.34 0.41
1.23 1.19 1.04 0.85 0.70 0.62 0.56 0.51 0.47 0.39 0.33 0.31 0.32 0.31 0.29 0.29 0.28 0.26 0.24 0.22 0.19 0.17 0.13 0.10 0.08 0.07 0.04 0.03 0.03 0.02 0.03 0.05 0.08 0.12 0.12 0.10 0.09 0.10 0.11 0.15 0.22 0.31 0.40
1.28 1.16 1.04 0.90 0.79 0.73 0.65 0.58 0.54 0.46 0.40 0.39 0.37 0.34 0.32 0.32 0.29 0.25 0.22 0.19 0.16 0.13 0.11 0.08 0.06 0.07 0.04 0.02 0.01 0.01 0.03 0.08 0.13 0.16 0.15 0.11 0.09 0.13 0.19 0.18 0.19 0.27 0.34
1.41 1.30 1.11 0.98 0.84 0.72 0.63 0.55 0.50 0.46 0.43 0.42 0.39 0.36 0.33 0.31 0.27 0.22 0.20 0.17 0.14 0.13 0.11 0.09 0.07 0.08 0.04 0.00 0.01 0.01 0.04 0.10 0.13 0.14 0.16 0.21 0.23 0.18 0.15 0.16 0.27 0.38 0.46
1.30 1.19 1.04 0.93 0.82 0.71 0.59 0.50 0.46 0.43 0.41 0.39 0.33 0.28 0.24 0.22 0.20 0.18 0.17 0.15 0.14 0.13 0.10 0.09 0.10 0.11 0.08 0.01 0.01 0.01 0.06 0.10 0.11 0.11 0.12 0.15 0.20 0.14 0.13 0.21 0.38 0.48 0.60
0.89 0.84 0.81 0.76 0.68 0.59 0.49 0.45 0.44 0.38 0.33 0.27 0.21 0.16 0.13 0.12 0.13 0.14 0.14 0.14 0.13 0.12 0.09 0.09 0.11 0.12 0.10 0.03 0.01 0.02 0.06 0.11 0.11 0.15 0.18 0.14 0.11 0.12 0.16 0.24 0.44 0.60 0.67
0.72 0.69 0.65 0.63 0.56 0.45 0.38 0.36 0.35 0.29 0.21 0.16 0.13 0.10 0.08 0.08 0.09 0.12 0.15 0.16 0.15 0.15 0.13 0.13 0.14 0.12 0.07 0.03 0.01 0.01 0.04 0.09 0.13 0.19 0.24 0.24 0.16 0.16 0.18 0.29 0.49 0.67 0.69
0.72 0.66 0.60 0.53 0.42 0.33 0.30 0.32 0.28 0.19 0.14 0.12 0.11 0.10 0.07 0.05 0.06 0.14 0.18 0.16 0.17 0.17 0.17 0.17 0.15 0.12 0.09 0.05 0.02 0.00 0.02 0.04 0.16 0.29 0.29 0.28 0.25 0.22 0.27 0.41 0.59 0.73 0.87
0.70 0.62 0.50 0.41 0.31 0.25 0.26 0.27 0.23 0.15 0.13 0.15 0.15 0.13 0.10 0.08 0.08 0.13 0.16 0.16 0.17 0.15 0.13 0.14 0.14 0.13 0.13 0.09 0.02 0.01 0.02 0.05 0.15 0.29 0.34 0.33 0.30 0.37 0.56 0.68 0.79 0.91 1.06
0.53 0.44 0.35 0.29 0.22 0.18 0.17 0.16 0.13 0.10 0.12 0.15 0.13 0.12 0.12 0.13 0.13 0.14 0.10 0.11 0.12 0.10 0.10 0.11 0.14 0.16 0.17 0.10 0.06 0.07 0.08 0.11 0.17 0.26 0.39 0.47 0.50 0.64 0.84 0.97 1.06 1.13 1.14
0.32 0.28 0.25 0.21 0.16 0.12 0.10 0.09 0.08 0.08 0.13 0.14 0.12 0.11 0.11 0.13 0.18 0.15 0.07 0.05 0.06 0.02 0.05 0.08 0.11 0.16 0.17 0.08 0.06 0.09 0.12 0.15 0.20 0.25 0.40 0.56 0.62 0.76 0.91 1.02 1.06 1.08 1.07
0.23 0.21 0.18 0.14 0.10 0.08 0.07 0.05 0.04 0.05 0.12 0.16 0.13 0.08 0.07 0.10 0.12 0.16 0.14 0.05 0.01 0.00 0.01 0.03 0.05 0.07 0.09 0.07 0.06 0.08 0.12 0.17 0.23 0.30 0.50 0.62 0.65 0.73 0.83 0.92 0.99 0.98 0.93

GEFSMW_prec_meanprecacc_114.txt.gz
Total_Precipitation_Accumulation
0.59 0.78 1.14 1.54 1.92 2.29 2.48 2.42 2.25 2.25 2.37 2.47 2.34 2.51 2.80 3.09 3.32 3.26 3.18 3.09 3.03 2.97 2.89 2.83 2.73 2.57 2.48 2.31 2.11 1.94 1.77 1.60 1.39 1.34 1.18 0.97 0.84 0.75 0.66 0.59 0.55 0.50 0.46
0.66 0.85 1.21 1.57 1.98 2.30 2.31 2.42 2.55 2.60 2.48 2.73 2.97 3.26 3.58 3.75 4.00 4.26 4.32 4.20 3.95 3.69 3.51 3.31 3.03 2.69 2.51 2.39 2.16 1.91 1.74 1.53 1.35 1.30 1.25 1.02 0.81 0.64 0.53 0.47 0.43 0.40 0.38
0.82 0.98 1.28 1.52 1.79 2.17 2.37 2.50 2.75 2.87 2.83 3.21 3.69 4.16 4.47 4.49 4.51 4.57 4.65 4.61 4.20 3.84 3.54 3.18 2.91 2.65 2.46 2.30 2.16 1.94 1.76 1.53 1.29 1.15 1.16 1.10 0.96 0.72 0.57 0.44 0.35 0.32 0.29
0.68 0.88 1.13 1.50 1.61 1.91 2.14 2.32 2.66 3.04 3.36 3.76 4.24 4.77 5.04 5.18 5.10 4.79 4.55 4.25 3.87 3.51 3.06 2.77 2.69 2.45 2.24 2.08 1.87 1.65 1.49 1.35 1.20 1.09 1.00 0.90 0.80 0.71 0.62 0.51 0.41 0.34 0.30
0.55 0.69 0.83 1.11 1.40 1.65 1.89 2.17 2.46 2.90 3.51 4.21 4.78 5.22 5.50 5.45 5.03 4.55 3.98 3.57 3.23 2.95 2.68 2.43 2.38 2.25 1.97 1.70 1.43 1.22 1.11 1.02 0.97 0.92 0.86 0.79 0.67 0.57 0.52 0.50 0.42 0.37 0.32
0.55 0.58 0.67 0.89 1.10 1.30 1.58 1.94 2.36 2.71 3.26 3.90 4.49 4.86 5.10 5.00 4.58 3.94 3.39 3.04 2.71 2.41 2.17 1.90 1.72 1.59 1.39 1.22 1.06 0.91 0.85 0.80 0.77 0.72 0.69 0.68 0.64 0.57 0.50 0.47 0.42 0.39 0.37
0.55 0.59 0.62 0.73 0.88 1.05 1.27 1.55 1.94 2.43 2.80 3.18 3.72 3.88 3.90 3.67 3.25 2.98 2.75 2.38 2.05 1.77 1.54 1.33 1.19 1.07 0.95 0.86 0.81 0.78 0.73 0.65 0.58 0.53 0.49 0.48 0.43 0.41 0.42 0.45 0.44 0.40 0.36
0.51 0.61 0.63 0.71 0.87 1.02 1.19 1.36 1.62 1.99 2.29 2.44 2.60 2.61 2.50 2.38 2.22 2.03 1.82 1.60 1.37 1.21 1.06 0.93 0.84 0.77 0.73 0.67 0.63 0.58 0.52 0.46 0.42 0.39 0.36 0.34 0.32 0.32 0.34 0.38 0.42 0.44 0.38
0.60 0.64 0.63 0.70 0.83 0.92 1.07 1.16 1.19 1.33 1.44 1.52 1.57 1.62 1.60 1.50 1.45 1.35 1.20 1.09 0.94 0.79 0.68 0.60 0.56 0.54 0.50 0.46 0.40 0.34 0.33 0.35 0.36 0.34 0.33 0.31 0.29 0.29 0.29 0.30 0.34 0.40 0.41
0.69 0.67 0.64 0.66 0.67 0.71 0.79 0.89 0.94 0.94 0.93 0.97 0.96 1.04 1.03 0.96 0.90 0.83 0.76 0.67 0.58 0.49 0.43 0.38 0.36 0.35 0.35 0.34 0.32 0.30 0.28 0.28 0.29 0.28 0.26 0.24 0.22 0.22 0.21 0.23 0.25 0.30 0.39
0.76 0.70 0.67 0.60 0.56 0.57 0.57 0.62 0.70 0.77 0.80 0.79 0.75 0.73 0.70 0.66 0.61 0.57 0.53 0.46 0.40 0.36 0.34 0.32 0.31 0.30 0.31 0.32 0.33 0.35 0.33 0.30 0.27 0.23 0.21 0.19 0.16 0.17 0.17 0.18 0.20 0.23 0.30
0.72 0.65 0.59 0.55 0.49 0.48 0.47 0.47 0.52 0.54 0.58 0.61 0.63 0.61 0.56 0.51 0.48 0.44 0.43 0.41 0.37 0.33 0.33 0.33 0.31 0.29 0.27 0.28 0.29 0.29 0.28 0.27 0.24 0.20 0.17 0.16 0.15 0.15 0.15 0.16 0.18 0.21 0.28
0.90 0.76 0.63 0.54 0.51 0.48 0.48 0.47 0.45 0.44 0.42 0.39 0.39 0.41 0.40 0.38 0.36 0.32 0.31 0.31 0.30 0.29 0.28 0.27 0.27 0.27 0.26 0.25 0.23 0.22 0.21 0.19 0.18 0.18 0.18 0.18 0.18 0.17 0.17 0.19 0.21 0.24 0.28
0.94 0.78 0.67 0.59 0.53 0.49 0.50 0.50 0.44 0.38 0.35 0.31 0.29 0.31 0.32 0.30 0.30 0.28 0.27 0.26 0.26 0.25 0.22 0.20 0.19 0.19 0.18 0.16 0.14 0.11 0.11 0.11 0.10 0.11 0.14 0.16 0.17 0.19 0.23 0.24 0.27 0.31 0.36
0.98 0.90 0.80 0.71 0.59 0.52 0.49 0.47 0.45 0.41 0.36 0.34 0.31 0.30 0.29 0.28 0.28 0.29 0.28 0.26 0.23 0.20 0.18 0.17 0.15 0.13 0.11 0.08 0.06 0.05 0.05 0.07 0.08 0.09 0.12 0.13 0.14 0.19 0.21 0.23 0.27 0.36 0.42
1.25 1.20 1.05 0.87 0.72 0.64 0.58 0.54 0.50 0.42 0.36 0.35 0.36 0.34 0.32 0.33 0.32 0.30 0.29 0.27 0.23 0.19 0.15 0.12 0.10 0.09 0.06 0.05 0.04 0.03 0.04 0.06 0.09 0.13 0.13 0.10 0.10 0.10 0.11 0.15 0.23 0.32 0.42
1.30 1.17 1.06 0.93 0.81 0.75 0.67 0.61 0.56 0.48 0.43 0.42 0.40 0.37 0.35 0.35 0.32 0.29 0.27 0.25 0.20 0.16 0.13 0.09 0.08 0.08 0.06 0.03 0.02 0.02 0.04 0.09 0.14 0.17 0.16 0.12 0.10 0.14 0.20 0.19 0.19 0.28 0.34
1.43 1.32 1.13 0.99 0.85 0.75 0.66 0.59 0.53 0.48 0.45 0.45 0.42 0.39 0.35 0.34 0.31 0.27 0.26 0.22 0.18 0.15 0.13 0.10 0.08 0.09 0.05 0.01 0.01 0.02 0.05 0.11 0.13 0.14 0.16 0.21 0.24 0.18 0.15 0.17 0.27 0.39 0.46
1.32 1.21 1.06 0.95 0.84 0.73 0.61 0.53 0.49 0.46 0.44 0.42 0.36 0.30 0.27 0.25 0.24 0.25 0.23 0.20 0.18 0.15 0.12 0.10 0.10 0.12 0.09 0.01 0.01 0.01 0.06 0.11 0.11 0.11 0.12 0.15 0.21 0.15 0.14 0.22 0.40 0.49 0.61
0.91 0.86 0.83 0.78 0.70 0.61 0.51 0.48 0.46 0.41 0.36 0.30 0.24 0.19 0.16 0.16 0.17 0.18 0.19 0.17 0.16 0.15 0.11 0.10 0.12 0.12 0.11 0.03 0.01 0.02 0.06 0.11 0.11 0.15 0.18 0.14 0.11 0.12 0.17 0.26 0.45 0.61 0.68
0.73 0.70 0.66 0.64 0.58 0.47 0.40 0.38 0.37 0.32 0.24 0.19 0.16 0.13 0.11 0.11 0.13 0.15 0.17 0.18 0.17 0.17 0.14 0.14 0.14 0.12 0.07 0.03 0.01 0.01 0.05 0.09 0.13 0.19 0.24 0.24 0.17 0.16 0.19 0.30 0.50 0.67 0.70
0.73 0.67 0.61 0.55 0.44 0.35 0.32 0.33 0.30 0.21 0.17 0.15 0.14 0.13 0.10 0.08 0.09 0.17 0.20 0.18 0.19 0.19 0.19 0.18 0.16 0.12 0.09 0.05 0.02 0.01 0.02 0.04 0.16 0.30 0.30 0.29 0.25 0.22 0.28 0.41 0.60 0.73 0.88
0.71 0.63 0.51 0.42 0.33 0.27 0.27 0.28 0.24 0.17 0.15 0.17 0.17 0.15 0.13 0.11 0.11 0.16 0.19 0.18 0.18 0.17 0.14 0.15 0.14 0.13 0.13 0.09 0.02 0.02 0.02 0.05 0.15 0.29 0.34 0.33 0.30 0.37 0.56 0.68 0.79 0.91 1.06
0.54 0.45 0.36 0.30 0.23 0.19 0.18 0.17 0.14 0.13 0.15 0.17 0.15 0.14 0.15 0.16 0.16 0.15 0.11 0.12 0.13 0.11 0.10 0.12 0.14 0.17 0.17 0.10 0.06 0.07 0.09 0.11 0.17 0.26 0.39 0.47 0.50 0.64 0.84 0.97 1.06 1.13 1.14
0.33 0.28 0.26 0.23 0.16 0.13 0.11 0.09 0.09 0.09 0.14 0.15 0.14 0.13 0.12 0.14 0.19 0.16 0.07 0.05 0.06 0.03 0.05 0.08 0.11 0.16 0.17 0.08 0.06 0.09 0.12 0.15 0.20 0.25 0.40 0.56 0.62 0.76 0.91 1.02 1.07 1.09 1.07
0.24 0.22 0.19 0.15 0.11 0.09 0.08 0.06 0.05 0.06 0.13 0.17 0.14 0.09 0.08 0.10 0.12 0.16 0.15 0.05 0.01 0.00 0.01 0.03 0.05 0.07 0.09 0.07 0.06 0.08 0.12 0.17 0.23 0.30 0.50 0.63 0.65 0.74 0.83 0.92 0.99 0.98 0.93

GEFSMW_prec_meanprecacc_120.txt.gz
Total_Precipitation_Accumulation
0.60 0.78 1.16 1.56 1.93 2.31 2.51 2.45 2.29 2.29 2.42 2.51 2.38 2.55 2.85 3.16 3.39 3.34 3.27 3.19 3.15 3.10 3.06 3.00 2.88 2.71 2.62 2.46 2.26 2.07 1.90 1.74 1.55 1.50 1.31 1.09 0.96 0.86 0.76 0.71 0.68 0.64 0.59
0.66 0.85 1.22 1.58 1.99 2.31 2.33 2.44 2.58 2.64 2.52 2.77 3.01 3.30 3.63 3.81 4.07 4.32 4.39 4.28 4.03 3.79 3.62 3.46 3.17 2.81 2.63 2.51 2.31 2.07 1.89 1.68 1.51 1.46 1.39 1.15 0.96 0.77 0.64 0.60 0.57 0.54 0.52
0.83 0.99 1.29 1.53 1.80 2.18 2.39 2.54 2.79 2.90 2.87 3.25 3.74 4.22 4.52 4.55 4.58 4.64 4.72 4.68 4.28 3.92 3.64 3.31 3.04 2.76 2.57 2.41 2.30 2.11 1.95 1.71 1.49 1.35 1.38 1.31 1.13 0.86 0.72 0.59 0.51 0.48 0.46
0.68 0.88 1.14 1.51 1.63 1.94 2.16 2.34 2.68 3.06 3.39 3.80 4.30 4.84 5.11 5.27 5.18 4.86 4.62 4.35 3.97 3.60 3.17 2.92 2.85 2.60 2.36 2.20 2.02 1.83 1.70 1.59 1.44 1.32 1.21 1.10 0.99 0.90 0.83 0.73 0.63 0.56 0.53
0.55 0.69 0.84 1.12 1.41 1.66 1.90 2.18 2.48 2.92 3.54 4.24 4.84 5.28 5.58 5.53 5.11 4.63 4.07 3.66 3.34 3.06 2.80 2.58 2.56 2.43 2.14 1.88 1.63 1.43 1.33 1.29 1.24 1.17 1.10 1.01 0.88 0.77 0.72 0.73 0.69 0.65 0.59
0.56 0.59 0.68 0.90 1.11 1.31 1.58 1.94 2.37 2.72 3.28 3.92 4.52 4.90 5.15 5.08 4.66 4.03 3.50 3.13 2.79 2.51 2.28 2.03 1.87 1.74 1.53 1.37 1.24 1.11 1.05 1.03 1.02 0.97 0.92 0.89 0.85 0.79 0.72 0.69 0.65 0.66 0.69
0.57 0.60 0.63 0.74 0.88 1.06 1.27 1.56 1.95 2.44 2.81 3.20 3.74 3.91 3.94 3.74 3.35 3.08 2.84 2.48 2.14 1.88 1.65 1.45 1.32 1.23 1.11 1.00 0.96 0.94 0.90 0.82 0.76 0.72 0.72 0.72 0.67 0.65 0.67 0.73 0.76 0.73 0.70
0.52 0.61 0.63 0.71 0.87 1.02 1.21 1.37 1.63 1.99 2.30 2.45 2.62 2.64 2.54 2.45 2.31 2.12 1.90 1.67 1.45 1.33 1.22 1.07 0.96 0.92 0.89 0.82 0.75 0.70 0.67 0.61 0.56 0.52 0.52 0.53 0.52 0.54 0.62 0.69 0.76 0.80 0.73
0.61 0.64 0.64 0.71 0.84 0.93 1.09 1.19 1.22 1.36 1.46 1.53 1.58 1.64 1.62 1.53 1.50 1.41 1.26 1.15 0.99 0.87 0.80 0.73 0.69 0.65 0.61 0.57 0.49 0.42 0.43 0.48 0.48 0.46 0.45 0.45 0.46 0.47 0.52 0.56 0.62 0.68 0.70
0.70 0.68 0.64 0.67 0.68 0.71 0.81 0.93 0.99 0.99 0.97 1.00 0.99 1.06 1.04 0.98 0.92 0.85 0.79 0.70 0.62 0.54 0.50 0.45 0.44 0.42 0.42 0.42 0.39 0.36 0.34 0.36 0.40 0.40 0.39 0.39 0.39 0.40 0.42 0.46 0.48 0.52 0.59
0.77 0.71 0.68 0.61 0.56 0.57 0.59 0.64 0.74 0.82 0.84 0.82 0.79 0.76 0.73 0.69 0.64 0.61 0.57 0.48 0.43 0.39 0.37 0.37 0.35 0.34 0.36 0.37 0.39 0.40 0.38 0.36 0.35 0.34 0.34 0.33 0.33 0.35 0.34 0.37 0.40 0.42 0.48
0.73 0.65 0.60 0.55 0.50 0.49 0.47 0.49 0.54 0.56 0.62 0.65 0.68 0.67 0.59 0.55 0.51 0.47 0.46 0.44 0.40 0.36 0.36 0.37 0.35 0.32 0.31 0.32 0.34 0.34 0.34 0.34 0.31 0.28 0.27 0.28 0.28 0.30 0.31 0.33 0.35 0.39 0.45
0.90 0.77 0.63 0.55 0.52 0.49 0.49 0.49 0.47 0.46 0.47 0.44 0.44 0.47 0.45 0.42 0.39 0.35 0.34 0.33 0.33 0.32 0.30 0.30 0.29 0.30 0.30 0.30 0.29 0.28 0.28 0.27 0.27 0.25 0.25 0.27 0.28 0.27 0.27 0.30 0.33 0.37 0.41
0.95 0.79 0.68 0.60 0.54 0.50 0.51 0.51 0.46 0.41 0.40 0.35 0.33 0.37 0.37 0.36 0.35 0.33 0.31 0.29 0.29 0.28 0.25 0.23 0.21 0.20 0.21 0.21 0.19 0.17 0.17 0.17 0.16 0.17 0.20 0.23 0.25 0.26 0.30 0.31 0.35 0.39 0.43
0.99 0.91 0.81 0.72 0.60 0.52 0.50 0.49 0.47 0.42 0.39 0.37 0.34 0.34 0.34 0.34 0.33 0.34 0.32 0.28 0.26 0.23 0.22 0.20 0.17 0.14 0.14 0.12 0.11 0.11 0.11 0.13 0.13 0.14 0.17 0.18 0.19 0.23 0.25 0.27 0.33 0.41 0.47
1.26 1.22 1.06 0.88 0.73 0.65 0.59 0.55 0.51 0.44 0.38 0.37 0.38 0.38 0.38 0.38 0.36 0.33 0.32 0.30 0.26 0.23 0.19 0.14 0.13 0.11 0.09 0.09 0.08 0.08 0.10 0.11 0.13 0.16 0.16 0.13 0.12 0.12 0.13 0.17 0.24 0.35 0.45
1.31 1.18 1.07 0.94 0.82 0.76 0.69 0.62 0.58 0.50 0.45 0.44 0.43 0.42 0.40 0.39 0.35 0.31 0.30 0.28 0.24 0.21 0.18 0.12 0.10 0.11 0.08 0.04 0.04 0.04 0.07 0.13 0.19 0.21 0.19 0.15 0.11 0.15 0.20 0.19 0.20 0.28 0.35
1.44 1.33 1.15 1.01 0.87 0.76 0.67 0.61 0.54 0.50 0.48 0.47 0.45 0.42 0.38 0.37 0.33 0.30 0.28 0.26 0.22 0.20 0.18 0.14 0.11 0.12 0.08 0.03 0.03 0.03 0.07 0.13 0.15 0.15 0.17 0.22 0.25 0.19 0.16 0.17 0.28 0.39 0.47
1.35 1.25 1.09 0.97 0.86 0.75 0.63 0.56 0.51 0.48 0.46 0.45 0.40 0.34 0.30 0.30 0.28 0.29 0.27 0.24 0.22 0.20 0.17 0.14 0.13 0.14 0.10 0.02 0.01 0.02 0.07 0.11 0.11 0.11 0.12 0.15 0.21 0.15 0.14 0.23 0.41 0.50 0.61
0.92 0.88 0.84 0.79 0.71 0.63 0.53 0.51 0.50 0.45 0.39 0.33 0.27 0.22 0.20 0.21 0.21 0.22 0.24 0.22 0.21 0.20 0.16 0.14 0.14 0.14 0.12 0.03 0.01 0.02 0.07 0.11 0.12 0.15 0.19 0.15 0.11 0.12 0.17 0.27 0.47 0.63 0.70
0.75 0.71 0.67 0.65 0.59 0.49 0.41 0.41 0.40 0.35 0.27 0.21 0.19 0.16 0.15 0.15 0.16 0.19 0.22 0.22 0.21 0.20 0.18 0.17 0.16 0.13 0.07 0.03 0.01 0.02 0.06 0.09 0.13 0.20 0.25 0.25 0.17 0.17 0.19 0.30 0.52 0.69 0.71
0.74 0.68 0.62 0.56 0.45 0.37 0.35 0.37 0.34 0.24 0.19 0.17 0.16 0.15 0.13 0.10 0.11 0.19 0.24 0.22 0.22 0.23 0.22 0.21 0.17 0.13 0.09 0.05 0.02 0.01 0.02 0.04 0.16 0.30 0.30 0.29 0.26 0.23 0.28 0.41 0.60 0.74 0.88
0.73 0.65 0.53 0.45 0.35 0.29 0.30 0.32 0.27 0.20 0.18 0.20 0.20 0.18 0.15 0.14 0.13 0.18 0.22 0.21 0.21 0.19 0.16 0.16 0.15 0.14 0.13 0.09 0.02 0.02 0.02 0.05 0.15 0.30 0.34 0.33 0.30 0.37 0.56 0.68 0.79 0.91 1.07
0.55 0.47 0.39 0.32 0.26 0.22 0.21 0.20 0.16 0.15 0.17 0.20 0.18 0.17 0.17 0.19 0.18 0.18 0.13 0.15 0.16 0.14 0.12 0.13 0.14 0.17 0.17 0.11 0.06 0.07 0.09 0.11 0.17 0.26 0.39 0.47 0.50 0.64 0.84 0.97 1.06 1.14 1.14
0.35 0.30 0.29 0.26 0.19 0.16 0.13 0.11 0.10 0.11 0.17 0.17 0.16 0.16 0.14 0.16 0.21 0.18 0.09 0.07 0.07 0.04 0.06 0.10 0.11 0.17 0.17 0.08 0.06 0.09 0.12 0.16 0.20 0.25 0.40 0.56 0.62 0.76 0.91 1.02 1.07 1.09 1.08
0.26 0.24 0.21 0.19 0.14 0.11 0.09 0.07 0.06 0.08 0.15 0.19 0.15 0.10 0.09 0.11 0.13 0.16 0.15 0.06 0.01 0.01 0.01 0.03 0.05 0.07 0.09 0.07 0.06 0.08 0.12 0.17 0.23 0.31 0.51 0.63 0.66 0.74 0.83 0.92 0.99 0.98 0.94

GEFSMW_prec_meanprecacc_126.txt.gz
Total_Precipitation_Accumulation
0.62 0.81 1.20 1.57 1.95 2.32 2.52 2.48 2.33 2.34 2.48 2.57 2.44 2.61 2.92 3.23 3.47 3.41 3.32 3.23 3.19 3.16 3.14 3.11 3.03 2.88 2.78 2.63 2.44 2.28 2.13 1.95 1.75 1.68 1.46 1.22 1.07 0.98 0.90 0.88 0.88 0.85 0.82
0.69 0.89 1.25 1.60 2.00 2.33 2.34 2.46 2.61 2.68 2.57 2.84 3.08 3.36 3.69 3.86 4.12 4.37 4.44 4.32 4.09 3.85 3.69 3.55 3.28 2.92 2.75 2.65 2.47 2.27 2.11 1.89 1.70 1.63 1.56 1.28 1.06 0.86 0.73 0.71 0.70 0.70 0.73
0.84 1.00 1.31 1.54 1.81 2.19 2.40 2.55 2.81 2.92 2.90 3.29 3.79 4.27 4.57 4.60 4.63 4.69 4.77 4.74 4.33 3.97 3.69 3.37 3.13 2.87 2.67 2.52 2.44 2.29 2.16 1.93 1.71 1.56 1.59 1.49 1.27 0.98 0.82 0.71 0.64 0.62 0.64
0.71 0.89 1.16 1.52 1.64 1.94 2.17 2.35 2.70 3.08 3.41 3.83 4.36 4.90 5.17 5.33 5.25 4.93 4.69 4.41 4.02 3.63 3.20 2.96 2.91 2.71 2.50 2.32 2.13 1.97 1.88 1.79 1.64 1.53 1.40 1.29 1.17 1.06 0.97 0.88 0.81 0.73 0.69
0.57 0.70 0.85 1.13 1.42 1.67 1.90 2.19 2.49 2.93 3.56 4.27 4.88 5.34 5.65 5.60 5.18 4.70 4.14 3.72 3.38 3.09 2.83 2.61 2.60 2.49 2.24 1.99 1.73 1.54 1.46 1.44 1.42 1.36 1.30 1.21 1.06 0.91 0.85 0.88 0.86 0.84 0.79
0.58 0.60 0.69 0.90 1.12 1.31 1.59 1.95 2.38 2.73 3.29 3.94 4.55 4.94 5.20 5.12 4.71 4.09 3.56 3.19 2.84 2.55 2.31 2.06 1.90 1.78 1.59 1.45 1.32 1.19 1.15 1.15 1.17 1.16 1.11 1.07 1.01 0.93 0.86 0.84 0.81 0.85 0.91
0.58 0.61 0.63 0.74 0.89 1.06 1.28 1.57 1.96 2.45 2.83 3.22 3.77 3.95 3.98 3.79 3.40 3.13 2.90 2.53 2.19 1.92 1.69 1.49 1.37 1.29 1.18 1.09 1.05 1.02 0.99 0.93 0.90 0.88 0.91 0.92 0.86 0.82 0.85 0.91 0.94 0.92 0.90
0.53 0.62 0.64 0.72 0.88 1.03 1.22 1.39 1.65 2.01 2.31 2.47 2.65 2.67 2.57 2.48 2.34 2.15 1.93 1.70 1.49 1.37 1.26 1.11 1.01 0.96 0.94 0.90 0.87 0.83 0.78 0.72 0.67 0.65 0.67 0.71 0.71 0.74 0.82 0.88 0.97 1.03 0.96
0.62 0.65 0.64 0.71 0.84 0.93 1.10 1.20 1.24 1.37 1.48 1.55 1.61 1.66 1.66 1.57 1.53 1.44 1.29 1.18 1.03 0.90 0.84 0.78 0.75 0.72 0.67 0.62 0.57 0.54 0.55 0.60 0.60 0.56 0.56 0.59 0.61 0.64 0.70 0.75 0.83 0.90 0.93
0.71 0.68 0.65 0.67 0.68 0.72 0.81 0.94 1.00 1.00 0.98 1.02 1.02 1.09 1.09 1.02 0.95 0.88 0.81 0.72 0.64 0.57 0.54 0.50 0.50 0.51 0.53 0.50 0.46 0.45 0.43 0.45 0.50 0.51 0.49 0.49 0.51 0.53 0.55 0.61 0.64 0.68 0.76
0.78 0.71 0.68 0.61 0.57 0.58 0.59 0.65 0.75 0.83 0.86 0.85 0.83 0.79 0.77 0.73 0.68 0.64 0.60 0.51 0.45 0.41 0.40 0.41 0.39 0.40 0.45 0.47 0.47 0.47 0.45 0.42 0.42 0.43 0.44 0.43 0.43 0.45 0.45 0.48 0.52 0.56 0.62
0.73 0.65 0.60 0.56 0.50 0.49 0.48 0.49 0.54 0.57 0.64 0.67 0.70 0.69 0.62 0.57 0.54 0.50 0.49 0.47 0.42 0.39 0.39 0.40 0.38 0.36 0.35 0.38 0.41 0.41 0.40 0.39 0.37 0.35 0.35 0.35 0.37 0.39 0.39 0.41 0.45 0.52 0.59
0.91 0.77 0.64 0.56 0.52 0.49 0.50 0.49 0.47 0.47 0.49 0.46 0.46 0.49 0.48 0.45 0.42 0.38 0.38 0.37 0.36 0.35 0.33 0.32 0.32 0.32 0.32 0.32 0.32 0.33 0.32 0.32 0.31 0.30 0.32 0.34 0.36 0.36 0.36 0.38 0.42 0.49 0.56
0.96 0.79 0.68 0.61 0.54 0.51 0.52 0.52 0.47 0.41 0.41 0.39 0.36 0.40 0.41 0.39 0.38 0.37 0.35 0.33 0.31 0.30 0.27 0.24 0.23 0.23 0.23 0.22 0.21 0.20 0.21 0.22 0.22 0.23 0.27 0.32 0.35 0.36 0.39 0.40 0.44 0.49 0.55
1.00 0.91 0.82 0.73 0.61 0.54 0.51 0.50 0.48 0.44 0.41 0.40 0.39 0.41 0.38 0.38 0.38 0.39 0.36 0.33 0.30 0.26 0.24 0.21 0.19 0.16 0.15 0.15 0.14 0.14 0.14 0.17 0.18 0.19 0.22 0.24 0.27 0.32 0.33 0.34 0.40 0.49 0.56
1.27 1.23 1.08 0.89 0.75 0.67 0.61 0.57 0.54 0.46 0.40 0.40 0.43 0.45 0.43 0.43 0.42 0.40 0.39 0.36 0.31 0.27 0.21 0.16 0.15 0.13 0.10 0.11 0.11 0.12 0.15 0.17 0.19 0.21 0.21 0.17 0.16 0.17 0.17 0.21 0.28 0.39 0.50
1.31 1.19 1.08 0.95 0.84 0.78 0.71 0.65 0.60 0.52 0.47 0.47 0.45 0.45 0.44 0.44 0.41 0.36 0.36 0.35 0.30 0.26 0.22 0.17 0.14 0.13 0.10 0.06 0.06 0.07 0.12 0.19 0.23 0.25 0.23 0.18 0.14 0.18 0.23 0.22 0.22 0.31 0.38
1.47 1.36 1.17 1.04 0.90 0.78 0.70 0.65 0.57 0.51 0.50 0.49 0.48 0.44 0.41 0.40 0.37 0.35 0.34 0.32 0.29 0.26 0.24 0.20 0.15 0.15 0.09 0.05 0.04 0.04 0.10 0.16 0.18 0.18 0.21 0.25 0.27 0.20 0.17 0.19 0.29 0.40 0.48
1.39 1.28 1.12 1.00 0.91 0.79 0.67 0.60 0.54 0.50 0.48 0.48 0.44 0.37 0.33 0.33 0.32 0.34 0.33 0.29 0.28 0.26 0.22 0.19 0.17 0.16 0.12 0.03 0.02 0.03 0.09 0.13 0.12 0.12 0.13 0.16 0.21 0.16 0.15 0.26 0.43 0.51 0.62
0.96 0.90 0.86 0.81 0.73 0.65 0.55 0.54 0.53 0.47 0.41 0.35 0.30 0.25 0.24 0.26 0.27 0.28 0.30 0.27 0.26 0.25 0.21 0.18 0.17 0.16 0.13 0.04 0.02 0.03 0.08 0.12 0.12 0.16 0.19 0.15 0.12 0.13 0.17 0.30 0.51 0.66 0.72
0.77 0.74 0.69 0.68 0.62 0.51 0.44 0.44 0.44 0.38 0.29 0.23 0.20 0.18 0.18 0.20 0.21 0.24 0.28 0.28 0.26 0.26 0.24 0.22 0.19 0.14 0.08 0.04 0.01 0.02 0.06 0.10 0.14 0.20 0.25 0.25 0.17 0.17 0.19 0.31 0.53 0.70 0.72
0.76 0.70 0.65 0.60 0.48 0.40 0.39 0.41 0.38 0.27 0.21 0.19 0.19 0.18 0.15 0.12 0.14 0.23 0.29 0.27 0.29 0.30 0.29 0.26 0.21 0.14 0.10 0.05 0.02 0.01 0.02 0.05 0.17 0.30 0.30 0.29 0.26 0.23 0.28 0.41 0.60 0.74 0.89
0.75 0.68 0.57 0.49 0.39 0.34 0.34 0.36 0.31 0.22 0.19 0.21 0.23 0.21 0.18 0.17 0.16 0.22 0.26 0.27 0.28 0.26 0.22 0.21 0.19 0.17 0.15 0.10 0.03 0.02 0.02 0.05 0.15 0.30 0.34 0.33 0.30 0.38 0.56 0.68 0.79 0.92 1.08
0.58 0.50 0.43 0.36 0.30 0.25 0.24 0.23 0.18 0.17 0.20 0.23 0.22 0.20 0.20 0.22 0.22 0.22 0.18 0.19 0.21 0.19 0.16 0.17 0.18 0.20 0.19 0.11 0.07 0.08 0.10 0.12 0.17 0.26 0.39 0.47 0.50 0.64 0.84 0.98 1.07 1.14 1.15
0.37 0.34 0.33 0.29 0.22 0.18 0.16 0.13 0.12 0.14 0.20 0.20 0.19 0.18 0.16 0.19 0.25 0.20 0.11 0.09 0.10 0.07 0.10 0.13 0.14 0.19 0.18 0.09 0.07 0.10 0.13 0.16 0.20 0.26 0.41 0.57 0.63 0.76 0.92 1.03 1.08 1.10 1.09
0.29 0.28 0.25 0.21 0.16 0.13 0.11 0.09 0.08 0.10 0.19 0.21 0.17 0.11 0.10 0.12 0.15 0.17 0.16 0.07 0.02 0.02 0.03 0.04 0.06 0.08 0.09 0.07 0.06 0.08 0.12 0.17 0.23 0.31 0.52 0.64 0.66 0.74 0.84 0.93 1.00 0.99 0.95

GEFSMW_prec_meanprecacc_132.txt.gz
Total_Precipitation_Accumulation
0.75 0.89 1.27 1.62 2.00 2.41 2.68 2.65 2.43 2.43 2.56 2.63 2.47 2.64 2.95 3.27 3.52 3.45 3.37 3.33 3.28 3.21 3.19 3.17 3.08 2.94 2.86 2.71 2.52 2.35 2.23 2.08 1.90 1.83 1.62 1.38 1.21 1.09 1.01 1.02 1.02 0.98 0.96
0.79 0.96 1.33 1.65 2.04 2.37 2.40 2.57 2.69 2.72 2.61 2.88 3.10 3.38 3.71 3.89 4.16 4.41 4.48 4.36 4.12 3.88 3.72 3.58 3.31 2.97 2.80 2.70 2.52 2.32 2.17 1.99 1.82 1.75 1.70 1.43 1.20 0.95 0.82 0.81 0.80 0.83 0.86
0.94 1.09 1.37 1.59 1.85 2.23 2.43 2.58 2.84 2.95 2.92 3.31 3.81 4.28 4.59 4.63 4.68 4.74 4.82 4.77 4.36 3.99 3.71 3.40 3.16 2.91 2.73 2.59 2.49 2.34 2.21 2.01 1.82 1.68 1.72 1.61 1.41 1.11 0.92 0.80 0.74 0.74 0.78
0.79 0.96 1.20 1.56 1.68 1.98 2.20 2.37 2.72 3.10 3.43 3.84 4.37 4.91 5.20 5.37 5.29 4.97 4.73 4.44 4.04 3.66 3.23 2.99 2.94 2.74 2.53 2.37 2.19 2.02 1.94 1.86 1.75 1.65 1.51 1.40 1.32 1.22 1.08 0.97 0.90 0.83 0.82
0.64 0.75 0.89 1.17 1.44 1.69 1.93 2.21 2.51 2.94 3.56 4.27 4.89 5.35 5.67 5.63 5.22 4.74 4.17 3.75 3.42 3.12 2.85 2.62 2.62 2.52 2.27 2.03 1.78 1.58 1.51 1.49 1.50 1.46 1.40 1.32 1.20 1.03 0.92 0.93 0.92 0.92 0.89
0.63 0.64 0.71 0.93 1.14 1.34 1.61 1.97 2.40 2.74 3.30 3.95 4.56 4.95 5.22 5.14 4.74 4.13 3.59 3.21 2.86 2.57 2.33 2.07 1.91 1.79 1.61 1.48 1.36 1.24 1.20 1.18 1.22 1.24 1.18 1.14 1.10 1.03 0.96 0.92 0.89 0.93 1.00
0.65 0.64 0.65 0.75 0.90 1.08 1.29 1.58 1.98 2.47 2.85 3.24 3.79 3.96 3.99 3.81 3.43 3.16 2.92 2.55 2.21 1.94 1.71 1.51 1.38 1.31 1.21 1.14 1.09 1.05 1.02 0.96 0.94 0.95 0.97 0.98 0.93 0.90 0.94 1.00 1.04 1.01 1.00
0.62 0.66 0.66 0.73 0.89 1.05 1.24 1.40 1.67 2.03 2.34 2.50 2.67 2.69 2.60 2.51 2.37 2.19 1.96 1.73 1.51 1.39 1.28 1.13 1.02 0.99 0.99 0.95 0.92 0.89 0.83 0.76 0.70 0.70 0.74 0.78 0.77 0.81 0.90 0.97 1.06 1.14 1.08
0.71 0.69 0.67 0.72 0.86 0.94 1.12 1.22 1.26 1.41 1.52 1.59 1.64 1.69 1.69 1.60 1.58 1.48 1.31 1.20 1.05 0.92 0.85 0.79 0.76 0.74 0.70 0.65 0.60 0.60 0.63 0.65 0.63 0.60 0.61 0.65 0.68 0.72 0.78 0.84 0.92 1.01 1.04
0.75 0.71 0.67 0.68 0.69 0.73 0.83 0.96 1.02 1.04 1.03 1.06 1.05 1.12 1.11 1.04 0.97 0.90 0.84 0.74 0.65 0.58 0.55 0.51 0.51 0.52 0.55 0.52 0.49 0.49 0.53 0.54 0.54 0.55 0.52 0.54 0.56 0.59 0.64 0.71 0.73 0.78 0.85
0.80 0.72 0.69 0.62 0.57 0.59 0.60 0.67 0.77 0.85 0.88 0.89 0.86 0.81 0.79 0.74 0.68 0.65 0.61 0.53 0.47 0.43 0.41 0.41 0.40 0.42 0.47 0.50 0.52 0.53 0.53 0.56 0.52 0.51 0.50 0.48 0.48 0.50 0.52 0.57 0.62 0.66 0.71
0.76 0.67 0.61 0.57 0.51 0.50 0.48 0.50 0.56 0.58 0.66 0.69 0.72 0.71 0.64 0.58 0.54 0.50 0.50 0.48 0.44 0.41 0.41 0.42 0.39 0.37 0.37 0.40 0.45 0.47 0.48 0.51 0.49 0.46 0.44 0.43 0.44 0.46 0.47 0.50 0.54 0.60 0.68
0.93 0.79 0.65 0.56 0.52 0.49 0.50 0.50 0.48 0.48 0.51 0.47 0.47 0.51 0.49 0.46 0.43 0.39 0.39 0.38 0.37 0.37 0.36 0.36 0.34 0.34 0.34 0.33 0.33 0.35 0.37 0.38 0.39 0.39 0.41 0.43 0.43 0.42 0.43 0.46 0.49 0.56 0.64
0.99 0.81 0.69 0.61 0.55 0.51 0.52 0.52 0.47 0.42 0.43 0.40 0.37 0.41 0.42 0.41 0.39 0.38 0.36 0.34 0.33 0.32 0.29 0.26 0.24 0.24 0.24 0.23 0.21 0.20 0.22 0.25 0.25 0.27 0.32 0.38 0.41 0.41 0.46 0.49 0.51 0.55 0.62
1.03 0.93 0.83 0.74 0.62 0.54 0.51 0.50 0.49 0.44 0.41 0.40 0.40 0.42 0.40 0.39 0.40 0.41 0.38 0.35 0.32 0.28 0.25 0.22 0.19 0.17 0.16 0.16 0.15 0.15 0.15 0.19 0.20 0.21 0.24 0.28 0.32 0.38 0.41 0.42 0.47 0.54 0.62
1.31 1.25 1.09 0.90 0.76 0.67 0.61 0.58 0.55 0.47 0.41 0.41 0.44 0.46 0.44 0.44 0.44 0.42 0.41 0.38 0.33 0.28 0.23 0.17 0.15 0.13 0.11 0.12 0.12 0.13 0.16 0.18 0.20 0.23 0.23 0.20 0.19 0.21 0.22 0.28 0.36 0.45 0.55
1.35 1.23 1.11 0.97 0.85 0.78 0.71 0.66 0.61 0.53 0.48 0.47 0.46 0.47 0.45 0.45 0.42 0.38 0.39 0.37 0.32 0.28 0.24 0.18 0.15 0.14 0.11 0.08 0.08 0.09 0.14 0.20 0.25 0.28 0.26 0.20 0.17 0.21 0.25 0.25 0.27 0.36 0.42
1.52 1.41 1.22 1.07 0.92 0.79 0.71 0.65 0.57 0.52 0.50 0.50 0.49 0.45 0.41 0.41 0.38 0.37 0.38 0.35 0.31 0.28 0.25 0.21 0.17 0.17 0.11 0.06 0.06 0.07 0.11 0.18 0.20 0.20 0.22 0.27 0.29 0.23 0.20 0.22 0.31 0.42 0.49
1.44 1.33 1.17 1.04 0.93 0.80 0.69 0.61 0.55 0.51 0.49 0.49 0.45 0.38 0.34 0.34 0.33 0.36 0.37 0.34 0.32 0.30 0.26 0.22 0.19 0.19 0.14 0.06 0.04 0.04 0.10 0.14 0.14 0.14 0.15 0.18 0.23 0.18 0.17 0.27 0.44 0.52 0.63
1.00 0.95 0.90 0.84 0.76 0.67 0.56 0.54 0.53 0.47 0.42 0.36 0.31 0.26 0.25 0.27 0.28 0.30 0.31 0.30 0.30 0.28 0.24 0.21 0.20 0.18 0.15 0.07 0.04 0.04 0.09 0.13 0.13 0.17 0.20 0.16 0.13 0.14 0.19 0.31 0.51 0.67 0.73
0.80 0.77 0.72 0.71 0.65 0.53 0.45 0.45 0.44 0.39 0.30 0.24 0.20 0.19 0.19 0.21 0.22 0.25 0.29 0.29 0.28 0.29 0.26 0.24 0.22 0.17 0.10 0.06 0.02 0.02 0.07 0.10 0.14 0.20 0.25 0.25 0.18 0.17 0.19 0.31 0.53 0.70 0.72
0.78 0.72 0.67 0.62 0.50 0.42 0.40 0.42 0.38 0.28 0.21 0.19 0.19 0.19 0.16 0.13 0.14 0.24 0.30 0.28 0.30 0.31 0.30 0.28 0.23 0.17 0.12 0.06 0.02 0.01 0.02 0.05 0.17 0.30 0.30 0.29 0.26 0.23 0.28 0.42 0.61 0.75 0.90
0.76 0.69 0.58 0.50 0.40 0.35 0.35 0.37 0.32 0.22 0.20 0.22 0.24 0.23 0.19 0.17 0.17 0.22 0.27 0.28 0.29 0.26 0.23 0.22 0.20 0.18 0.16 0.10 0.03 0.02 0.02 0.05 0.15 0.30 0.34 0.33 0.30 0.38 0.56 0.69 0.80 0.93 1.09
0.58 0.51 0.44 0.37 0.30 0.26 0.25 0.24 0.19 0.18 0.21 0.24 0.22 0.20 0.21 0.23 0.23 0.22 0.18 0.20 0.22 0.19 0.17 0.18 0.19 0.21 0.20 0.12 0.07 0.08 0.10 0.12 0.17 0.26 0.39 0.47 0.50 0.65 0.85 0.98 1.07 1.15 1.16
0.38 0.35 0.34 0.30 0.22 0.19 0.16 0.13 0.12 0.14 0.21 0.21 0.20 0.19 0.16 0.19 0.25 0.21 0.12 0.10 0.10 0.07 0.10 0.14 0.15 0.20 0.19 0.09 0.07 0.10 0.13 0.16 0.20 0.26 0.41 0.57 0.63 0.76 0.92 1.03 1.08 1.11 1.09
0.29 0.29 0.26 0.22 0.17 0.14 0.11 0.09 0.08 0.10 0.19 0.21 0.17 0.12 0.10 0.13 0.15 0.18 0.16 0.07 0.03 0.02 0.03 0.05 0.06 0.08 0.09 0.07 0.06 0.08 0.12 0.17 0.23 0.31 0.52 0.64 0.66 0.74 0.84 0.93 1.01 1.00 0.95

GEFSMW_prec_meanprecacc_138.txt.gz
Total_Precipitation_Accumulation
0.80 0.93 1.32 1.74 2.11 2.52 2.77 2.72 2.49 2.50 2.65 2.73 2.54 2.71 3.01 3.32 3.57 3.50 3.41 3.37 3.32 3.25 3.23 3.21 3.13 3.00 2.91 2.77 2.58 2.41 2.29 2.14 1.96 1.89 1.66 1.43 1.26 1.12 1.06 1.09 1.11 1.07 1.04
0.83 0.99 1.35 1.68 2.09 2.42 2.48 2.66 2.77 2.80 2.68 2.96 3.19 3.46 3.79 3.94 4.21 4.46 4.52 4.39 4.16 3.92 3.75 3.62 3.37 3.04 2.85 2.75 2.57 2.36 2.20 2.03 1.86 1.79 1.74 1.46 1.23 0.98 0.85 0.86 0.87 0.91 0.96
0.99 1.14 1.41 1.63 1.92 2.29 2.50 2.65 2.91 3.01 2.96 3.37 3.91 4.39 4.67 4.69 4.75 4.78 4.85 4.80 4.39 4.03 3.75 3.44 3.21 2.96 2.77 2.63 2.54 2.38 2.23 2.04 1.86 1.72 1.76 1.65 1.43 1.13 0.95 0.83 0.80 0.82 0.88
0.85 1.00 1.24 1.60 1.74 2.06 2.29 2.45 2.79 3.16 3.47 3.88 4.42 4.98 5.27 5.43 5.34 5.01 4.77 4.48 4.08 3.70 3.27 3.02 2.98 2.79 2.58 2.41 2.22 2.06 1.97 1.90 1.79 1.69 1.56 1.45 1.36 1.26 1.12 1.01 0.95 0.91 0.91
0.68 0.78 0.92 1.20 1.47 1.73 2.00 2.28 2.58 2.99 3.59 4.31 4.93 5.38 5.70 5.66 5.25 4.77 4.21 3.79 3.46 3.16 2.89 2.66 2.66 2.55 2.31 2.07 1.81 1.62 1.54 1.53 1.55 1.51 1.45 1.37 1.25 1.08 0.97 0.98 0.96 0.97 0.95
0.68 0.69 0.75 0.96 1.17 1.39 1.67 2.03 2.45 2.77 3.32 3.98 4.59 4.98 5.25 5.18 4.78 4.17 3.63 3.24 2.90 2.60 2.36 2.11 1.95 1.82 1.64 1.50 1.39 1.27 1.24 1.23 1.28 1.30 1.23 1.18 1.15 1.08 1.02 0.97 0.93 0.99 1.07
0.72 0.70 0.70 0.79 0.94 1.13 1.35 1.63 2.02 2.50 2.88 3.26 3.81 3.99 4.02 3.84 3.47 3.19 2.95 2.58 2.24 1.96 1.74 1.54 1.40 1.33 1.23 1.16 1.11 1.09 1.06 1.01 0.99 1.00 1.01 1.01 0.96 0.94 0.98 1.04 1.08 1.06 1.07
0.70 0.72 0.70 0.77 0.94 1.09 1.28 1.45 1.70 2.07 2.38 2.52 2.70 2.72 2.63 2.56 2.42 2.24 2.01 1.77 1.55 1.42 1.30 1.14 1.03 1.00 1.00 0.97 0.94 0.91 0.86 0.79 0.74 0.74 0.77 0.81 0.79 0.83 0.93 1.01 1.11 1.19 1.14
0.77 0.76 0.72 0.77 0.90 0.99 1.16 1.25 1.29 1.44 1.54 1.62 1.69 1.77 1.78 1.68 1.66 1.57 1.39 1.25 1.08 0.96 0.88 0.80 0.77 0.75 0.71 0.66 0.61 0.61 0.64 0.66 0.65 0.63 0.64 0.67 0.69 0.73 0.80 0.87 0.96 1.07 1.12
0.78 0.75 0.70 0.71 0.72 0.77 0.87 0.99 1.04 1.06 1.05 1.09 1.09 1.16 1.17 1.09 1.02 0.94 0.89 0.78 0.68 0.59 0.56 0.52 0.51 0.53 0.56 0.53 0.50 0.51 0.54 0.56 0.56 0.57 0.55 0.56 0.57 0.60 0.66 0.73 0.77 0.84 0.93
0.86 0.77 0.72 0.64 0.60 0.62 0.64 0.70 0.78 0.86 0.91 0.92 0.89 0.86 0.85 0.78 0.71 0.67 0.63 0.55 0.48 0.44 0.43 0.43 0.42 0.43 0.47 0.50 0.53 0.55 0.55 0.61 0.58 0.56 0.54 0.51 0.50 0.52 0.53 0.59 0.65 0.70 0.76
0.84 0.73 0.66 0.61 0.53 0.51 0.49 0.52 0.58 0.59 0.67 0.72 0.75 0.73 0.67 0.62 0.57 0.52 0.51 0.50 0.44 0.42 0.42 0.44 0.41 0.39 0.38 0.41 0.46 0.49 0.51 0.56 0.57 0.55 0.52 0.48 0.47 0.49 0.50 0.52 0.56 0.64 0.73
0.99 0.84 0.71 0.61 0.55 0.51 0.51 0.50 0.49 0.49 0.52 0.50 0.49 0.52 0.51 0.48 0.44 0.40 0.39 0.39 0.38 0.38 0.36 0.36 0.35 0.35 0.36 0.35 0.35 0.36 0.39 0.43 0.47 0.48 0.51 0.51 0.49 0.47 0.48 0.50 0.54 0.61 0.70
1.05 0.86 0.73 0.65 0.58 0.53 0.53 0.53 0.48 0.43 0.44 0.41 0.38 0.42 0.43 0.42 0.41 0.39 0.37 0.34 0.33 0.33 0.30 0.27 0.25 0.26 0.26 0.25 0.23 0.22 0.24 0.27 0.30 0.33 0.41 0.48 0.51 0.49 0.52 0.55 0.56 0.60 0.68
1.07 0.97 0.86 0.76 0.64 0.56 0.52 0.51 0.49 0.44 0.41 0.41 0.40 0.42 0.40 0.40 0.41 0.41 0.39 0.35 0.32 0.29 0.26 0.23 0.20 0.19 0.19 0.18 0.16 0.16 0.16 0.20 0.23 0.25 0.30 0.37 0.42 0.47 0.48 0.50 0.54 0.60 0.68
1.35 1.28 1.12 0.93 0.80 0.71 0.64 0.60 0.56 0.48 0.41 0.41 0.45 0.47 0.45 0.45 0.45 0.43 0.41 0.38 0.33 0.29 0.23 0.18 0.16 0.15 0.15 0.16 0.15 0.14 0.17 0.19 0.22 0.25 0.27 0.26 0.28 0.30 0.30 0.36 0.44 0.52 0.61
1.40 1.27 1.15 1.02 0.89 0.82 0.74 0.68 0.63 0.54 0.48 0.47 0.46 0.47 0.45 0.45 0.42 0.38 0.39 0.37 0.32 0.28 0.25 0.19 0.16 0.16 0.15 0.12 0.11 0.11 0.15 0.23 0.28 0.30 0.28 0.24 0.23 0.29 0.32 0.31 0.34 0.44 0.50
1.57 1.46 1.27 1.13 0.96 0.82 0.73 0.66 0.58 0.52 0.51 0.50 0.49 0.45 0.42 0.41 0.38 0.38 0.39 0.36 0.32 0.28 0.26 0.22 0.18 0.18 0.14 0.10 0.09 0.10 0.13 0.20 0.22 0.22 0.25 0.30 0.33 0.29 0.26 0.26 0.36 0.47 0.55
1.49 1.39 1.23 1.09 0.97 0.83 0.71 0.62 0.56 0.51 0.49 0.49 0.45 0.38 0.34 0.34 0.33 0.36 0.38 0.35 0.33 0.31 0.27 0.23 0.21 0.21 0.17 0.10 0.08 0.08 0.13 0.17 0.17 0.16 0.18 0.20 0.26 0.22 0.22 0.32 0.48 0.55 0.66
1.04 1.00 0.94 0.87 0.79 0.68 0.58 0.55 0.54 0.48 0.42 0.37 0.31 0.26 0.25 0.27 0.28 0.30 0.32 0.31 0.31 0.30 0.26 0.24 0.23 0.21 0.19 0.11 0.08 0.07 0.12 0.16 0.15 0.18 0.22 0.18 0.14 0.16 0.22 0.34 0.54 0.69 0.75
0.86 0.81 0.76 0.74 0.67 0.56 0.47 0.47 0.46 0.40 0.30 0.24 0.21 0.20 0.20 0.21 0.22 0.25 0.29 0.30 0.29 0.30 0.28 0.27 0.25 0.22 0.16 0.10 0.05 0.04 0.09 0.12 0.15 0.21 0.26 0.26 0.19 0.19 0.22 0.34 0.55 0.72 0.74
0.88 0.79 0.71 0.64 0.54 0.48 0.47 0.46 0.40 0.28 0.22 0.20 0.20 0.19 0.16 0.14 0.15 0.24 0.30 0.29 0.30 0.32 0.32 0.31 0.26 0.20 0.15 0.08 0.04 0.03 0.04 0.05 0.17 0.31 0.30 0.30 0.27 0.25 0.30 0.43 0.62 0.75 0.90
0.80 0.73 0.61 0.52 0.42 0.38 0.39 0.40 0.33 0.23 0.21 0.22 0.24 0.23 0.19 0.18 0.18 0.23 0.27 0.28 0.29 0.28 0.25 0.25 0.23 0.20 0.17 0.11 0.04 0.03 0.03 0.06 0.16 0.30 0.34 0.33 0.31 0.39 0.58 0.70 0.81 0.93 1.09
0.60 0.52 0.45 0.38 0.31 0.27 0.25 0.24 0.19 0.18 0.21 0.24 0.23 0.21 0.22 0.24 0.23 0.23 0.18 0.20 0.22 0.20 0.19 0.20 0.22 0.23 0.21 0.13 0.08 0.08 0.10 0.12 0.17 0.26 0.39 0.47 0.50 0.65 0.85 0.99 1.08 1.15 1.16
0.39 0.35 0.35 0.30 0.23 0.19 0.16 0.13 0.12 0.15 0.21 0.21 0.20 0.19 0.17 0.20 0.25 0.21 0.12 0.10 0.11 0.08 0.11 0.14 0.16 0.21 0.19 0.09 0.07 0.10 0.13 0.16 0.21 0.26 0.41 0.57 0.63 0.76 0.92 1.03 1.09 1.12 1.10
0.30 0.29 0.26 0.22 0.17 0.14 0.12 0.09 0.08 0.10 0.19 0.22 0.18 0.12 0.10 0.13 0.15 0.18 0.17 0.08 0.03 0.03 0.03 0.05 0.06 0.08 0.09 0.07 0.06 0.08 0.12 0.17 0.23 0.31 0.52 0.64 0.66 0.74 0.84 0.93 1.01 1.00 0.96

GEFSMW_prec_meanprecacc_144.txt.gz
Total_Precipitation_Accumulation
0.82 0.95 1.34 1.76 2.13 2.56 2.85 2.80 2.56 2.55 2.70 2.77 2.58 2.75 3.06 3.37 3.61 3.54 3.45 3.40 3.35 3.27 3.25 3.23 3.16 3.03 2.96 2.82 2.64 2.46 2.35 2.19 2.01 1.94 1.71 1.47 1.29 1.16 1.09 1.12 1.14 1.10 1.09
0.86 1.02 1.37 1.70 2.10 2.44 2.55 2.78 2.87 2.85 2.72 2.99 3.22 3.50 3.83 3.99 4.26 4.50 4.56 4.42 4.19 3.95 3.77 3.64 3.41 3.08 2.90 2.81 2.64 2.41 2.26 2.08 1.91 1.85 1.82 1.52 1.27 1.01 0.87 0.88 0.89 0.93 0.99
1.01 1.17 1.43 1.64 1.93 2.30 2.53 2.78 3.00 3.06 2.99 3.39 3.94 4.43 4.71 4.73 4.79 4.82 4.88 4.83 4.42 4.05 3.76 3.45 3.23 3.00 2.82 2.69 2.62 2.44 2.28 2.10 1.91 1.78 1.84 1.73 1.51 1.18 0.99 0.86 0.82 0.85 0.92
0.87 1.03 1.26 1.61 1.75 2.07 2.33 2.56 2.85 3.21 3.51 3.92 4.45 5.02 5.32 5.47 5.38 5.04 4.80 4.50 4.11 3.73 3.29 3.04 3.00 2.83 2.63 2.47 2.28 2.12 2.02 1.96 1.86 1.75 1.62 1.53 1.44 1.33 1.17 1.05 0.99 0.94 0.94
0.72 0.81 0.94 1.21 1.49 1.75 2.04 2.35 2.67 3.05 3.64 4.35 4.96 5.41 5.73 5.69 5.28 4.80 4.23 3.81 3.48 3.18 2.91 2.68 2.68 2.59 2.34 2.10 1.84 1.66 1.59 1.59 1.63 1.59 1.51 1.43 1.32 1.15 1.05 1.04 1.02 1.00 0.98
0.73 0.74 0.79 0.98 1.19 1.40 1.69 2.06 2.49 2.81 3.36 4.02 4.63 5.00 5.27 5.19 4.80 4.19 3.65 3.27 2.92 2.62 2.37 2.12 1.97 1.85 1.67 1.54 1.43 1.31 1.28 1.27 1.33 1.36 1.30 1.26 1.24 1.17 1.11 1.06 1.00 1.04 1.10
0.79 0.77 0.75 0.82 0.96 1.15 1.37 1.65 2.05 2.54 2.92 3.31 3.84 4.01 4.04 3.86 3.49 3.21 2.97 2.59 2.26 1.99 1.75 1.56 1.43 1.35 1.25 1.18 1.14 1.12 1.09 1.03 1.02 1.04 1.08 1.09 1.05 1.03 1.07 1.12 1.15 1.13 1.12
0.77 0.78 0.75 0.80 0.96 1.11 1.30 1.47 1.73 2.11 2.42 2.56 2.74 2.74 2.65 2.57 2.44 2.26 2.03 1.79 1.57 1.45 1.34 1.18 1.06 1.01 1.01 0.98 0.95 0.93 0.89 0.82 0.76 0.76 0.80 0.84 0.86 0.92 1.03 1.09 1.19 1.26 1.20
0.81 0.80 0.75 0.79 0.92 1.01 1.18 1.27 1.31 1.46 1.57 1.65 1.73 1.80 1.80 1.71 1.69 1.61 1.43 1.30 1.14 1.03 0.96 0.86 0.80 0.76 0.72 0.66 0.62 0.62 0.65 0.68 0.66 0.64 0.66 0.70 0.73 0.80 0.89 0.94 1.03 1.15 1.19
0.81 0.78 0.74 0.73 0.74 0.79 0.89 1.00 1.06 1.08 1.08 1.13 1.11 1.19 1.20 1.13 1.05 0.97 0.91 0.82 0.72 0.63 0.60 0.55 0.54 0.55 0.57 0.54 0.51 0.52 0.55 0.57 0.58 0.59 0.57 0.58 0.59 0.64 0.71 0.78 0.82 0.90 1.00
0.90 0.83 0.80 0.72 0.65 0.65 0.66 0.74 0.81 0.88 0.92 0.93 0.91 0.88 0.87 0.80 0.74 0.69 0.66 0.57 0.51 0.47 0.45 0.44 0.44 0.44 0.48 0.51 0.54 0.56 0.57 0.62 0.60 0.58 0.57 0.55 0.53 0.55 0.57 0.63 0.68 0.74 0.80
0.91 0.81 0.75 0.68 0.59 0.56 0.53 0.55 0.60 0.61 0.69 0.74 0.77 0.74 0.69 0.65 0.62 0.57 0.54 0.51 0.45 0.43 0.44 0.45 0.42 0.40 0.39 0.42 0.47 0.52 0.53 0.58 0.58 0.57 0.56 0.52 0.51 0.53 0.53 0.55 0.58 0.66 0.76
1.07 0.91 0.77 0.67 0.61 0.57 0.56 0.53 0.51 0.51 0.54 0.52 0.51 0.54 0.53 0.50 0.48 0.43 0.41 0.40 0.40 0.39 0.37 0.37 0.37 0.36 0.36 0.36 0.36 0.39 0.41 0.46 0.49 0.52 0.56 0.55 0.53 0.51 0.51 0.54 0.57 0.64 0.74
1.11 0.91 0.78 0.69 0.62 0.56 0.56 0.56 0.50 0.44 0.45 0.43 0.40 0.44 0.45 0.43 0.42 0.41 0.38 0.35 0.34 0.34 0.31 0.27 0.25 0.27 0.27 0.27 0.25 0.24 0.27 0.30 0.33 0.38 0.48 0.54 0.55 0.52 0.56 0.58 0.60 0.64 0.73
1.13 1.02 0.92 0.81 0.67 0.57 0.54 0.53 0.51 0.46 0.43 0.42 0.42 0.44 0.42 0.41 0.41 0.42 0.39 0.36 0.33 0.29 0.27 0.23 0.20 0.20 0.20 0.20 0.19 0.18 0.19 0.24 0.26 0.29 0.36 0.43 0.48 0.50 0.51 0.53 0.58 0.66 0.74
1.41 1.34 1.19 1.00 0.84 0.73 0.66 0.62 0.59 0.49 0.43 0.42 0.46 0.48 0.46 0.46 0.45 0.43 0.42 0.39 0.34 0.30 0.24 0.18 0.16 0.16 0.15 0.18 0.17 0.17 0.20 0.23 0.26 0.29 0.31 0.31 0.35 0.36 0.35 0.41 0.49 0.59 0.68
1.47 1.34 1.21 1.08 0.95 0.86 0.77 0.70 0.64 0.56 0.50 0.49 0.48 0.48 0.47 0.47 0.43 0.39 0.40 0.38 0.33 0.29 0.25 0.20 0.17 0.17 0.15 0.14 0.14 0.15 0.20 0.27 0.32 0.34 0.33 0.29 0.30 0.37 0.39 0.39 0.42 0.51 0.57
1.65 1.55 1.35 1.18 1.01 0.86 0.76 0.69 0.60 0.54 0.53 0.53 0.51 0.47 0.43 0.42 0.39 0.39 0.40 0.37 0.33 0.29 0.27 0.23 0.19 0.19 0.15 0.12 0.12 0.14 0.18 0.24 0.26 0.26 0.29 0.34 0.39 0.37 0.34 0.33 0.43 0.53 0.62
1.56 1.48 1.32 1.18 1.04 0.88 0.74 0.65 0.58 0.54 0.53 0.53 0.48 0.40 0.36 0.35 0.34 0.37 0.39 0.36 0.34 0.32 0.28 0.24 0.21 0.23 0.20 0.14 0.12 0.13 0.18 0.21 0.20 0.19 0.21 0.24 0.30 0.28 0.30 0.39 0.54 0.60 0.71
1.09 1.07 1.02 0.97 0.88 0.75 0.63 0.59 0.58 0.52 0.45 0.39 0.33 0.28 0.27 0.29 0.30 0.31 0.33 0.33 0.32 0.30 0.26 0.24 0.24 0.22 0.22 0.13 0.10 0.11 0.15 0.19 0.18 0.21 0.24 0.21 0.17 0.21 0.27 0.39 0.59 0.74 0.78
0.90 0.85 0.80 0.80 0.74 0.63 0.56 0.54 0.51 0.44 0.32 0.26 0.23 0.21 0.22 0.23 0.24 0.26 0.30 0.31 0.30 0.30 0.28 0.28 0.27 0.24 0.18 0.12 0.07 0.07 0.11 0.15 0.18 0.24 0.29 0.28 0.22 0.22 0.25 0.37 0.58 0.74 0.76
0.93 0.85 0.76 0.68 0.57 0.53 0.56 0.55 0.48 0.33 0.25 0.22 0.21 0.22 0.19 0.15 0.16 0.25 0.31 0.30 0.32 0.33 0.34 0.33 0.28 0.23 0.18 0.12 0.08 0.06 0.05 0.07 0.20 0.34 0.32 0.31 0.29 0.27 0.33 0.46 0.64 0.78 0.92
0.84 0.78 0.68 0.58 0.45 0.40 0.44 0.45 0.36 0.24 0.22 0.24 0.26 0.25 0.20 0.19 0.18 0.23 0.28 0.29 0.31 0.29 0.27 0.27 0.26 0.23 0.20 0.15 0.08 0.05 0.05 0.07 0.17 0.31 0.35 0.34 0.32 0.40 0.60 0.72 0.83 0.95 1.12
0.63 0.56 0.51 0.44 0.34 0.29 0.27 0.26 0.20 0.19 0.22 0.26 0.25 0.22 0.23 0.24 0.24 0.23 0.19 0.21 0.23 0.21 0.20 0.23 0.24 0.25 0.24 0.16 0.10 0.10 0.11 0.13 0.18 0.27 0.39 0.47 0.51 0.66 0.87 1.00 1.09 1.17 1.18
0.41 0.38 0.39 0.34 0.25 0.20 0.18 0.14 0.13 0.16 0.22 0.23 0.22 0.20 0.18 0.21 0.26 0.22 0.13 0.11 0.12 0.08 0.12 0.16 0.18 0.23 0.22 0.11 0.08 0.10 0.13 0.17 0.21 0.27 0.42 0.57 0.63 0.77 0.93 1.05 1.11 1.14 1.12
0.31 0.31 0.28 0.24 0.19 0.15 0.13 0.10 0.08 0.11 0.21 0.23 0.19 0.13 0.10 0.13 0.16 0.19 0.18 0.08 0.04 0.03 0.04 0.05 0.07 0.09 0.10 0.08 0.07 0.08 0.13 0.18 0.25 0.33 0.53 0.65 0.67 0.75 0.85 0.94 1.02 1.01 0.97

GEFSMW_prec_meanprecacc_150.txt.gz
Total_Precipitation_Accumulation
0.85 0.98 1.37 1.79 2.16 2.59 2.87 2.81 2.57 2.58 2.73 2.82 2.63 2.82 3.11 3.42 3.67 3.59 3.49 3.44 3.38 3.31 3.30 3.30 3.25 3.13 3.08 2.95 2.75 2.56 2.45 2.29 2.09 2.01 1.78 1.52 1.34 1.21 1.17 1.21 1.26 1.20 1.16
0.88 1.04 1.39 1.71 2.11 2.46 2.56 2.79 2.88 2.87 2.75 3.03 3.27 3.54 3.86 4.02 4.30 4.55 4.61 4.47 4.23 3.99 3.81 3.69 3.47 3.15 2.99 2.90 2.71 2.49 2.35 2.17 2.00 1.94 1.89 1.59 1.36 1.10 0.96 0.98 0.98 1.01 1.08
1.04 1.19 1.45 1.66 1.94 2.32 2.55 2.79 3.02 3.08 3.02 3.43 3.98 4.47 4.75 4.76 4.83 4.88 4.94 4.89 4.46 4.10 3.81 3.49 3.28 3.05 2.87 2.75 2.68 2.52 2.37 2.19 2.00 1.87 1.94 1.84 1.61 1.28 1.09 0.95 0.89 0.91 0.98
0.93 1.07 1.28 1.63 1.77 2.09 2.35 2.58 2.89 3.24 3.54 3.96 4.49 5.06 5.37 5.52 5.43 5.10 4.85 4.55 4.15 3.77 3.33 3.08 3.05 2.88 2.68 2.51 2.33 2.18 2.10 2.05 1.95 1.84 1.72 1.64 1.57 1.45 1.29 1.15 1.07 1.00 0.99
0.78 0.87 0.98 1.23 1.50 1.77 2.05 2.38 2.72 3.09 3.68 4.41 5.02 5.46 5.78 5.75 5.34 4.86 4.29 3.87 3.53 3.22 2.95 2.73 2.73 2.64 2.40 2.16 1.90 1.73 1.67 1.68 1.72 1.69 1.62 1.54 1.46 1.30 1.20 1.18 1.12 1.07 1.04
0.81 0.80 0.82 1.01 1.21 1.42 1.71 2.09 2.53 2.85 3.39 4.05 4.67 5.05 5.32 5.24 4.85 4.23 3.71 3.33 2.97 2.67 2.41 2.15 2.01 1.89 1.72 1.61 1.51 1.40 1.35 1.34 1.40 1.44 1.40 1.36 1.34 1.29 1.24 1.19 1.12 1.11 1.16
0.86 0.84 0.80 0.86 1.00 1.18 1.40 1.68 2.09 2.57 2.94 3.33 3.87 4.04 4.09 3.92 3.54 3.25 3.02 2.64 2.30 2.01 1.77 1.58 1.45 1.38 1.30 1.25 1.23 1.22 1.18 1.09 1.07 1.09 1.14 1.15 1.11 1.10 1.15 1.22 1.25 1.21 1.18
0.83 0.83 0.79 0.84 0.99 1.14 1.34 1.50 1.76 2.14 2.45 2.59 2.77 2.77 2.69 2.62 2.48 2.29 2.06 1.82 1.60 1.46 1.35 1.19 1.08 1.06 1.08 1.04 1.03 0.99 0.94 0.86 0.80 0.79 0.83 0.88 0.89 0.96 1.09 1.17 1.28 1.35 1.28
0.84 0.84 0.80 0.83 0.96 1.05 1.22 1.30 1.33 1.50 1.61 1.68 1.75 1.83 1.83 1.73 1.71 1.64 1.46 1.32 1.16 1.04 0.97 0.88 0.83 0.80 0.75 0.70 0.66 0.66 0.69 0.71 0.71 0.68 0.68 0.73 0.75 0.83 0.93 1.01 1.12 1.23 1.27
0.84 0.82 0.78 0.78 0.78 0.83 0.93 1.05 1.08 1.10 1.11 1.14 1.13 1.21 1.22 1.15 1.07 1.00 0.94 0.83 0.73 0.64 0.61 0.57 0.55 0.56 0.58 0.55 0.53 0.54 0.58 0.60 0.61 0.63 0.60 0.61 0.62 0.67 0.75 0.82 0.88 0.98 1.08
0.94 0.86 0.84 0.76 0.70 0.69 0.70 0.77 0.84 0.90 0.94 0.95 0.93 0.92 0.91 0.83 0.77 0.74 0.68 0.59 0.52 0.48 0.46 0.45 0.45 0.46 0.50 0.53 0.56 0.57 0.59 0.65 0.64 0.62 0.60 0.57 0.56 0.58 0.61 0.67 0.72 0.79 0.87
0.96 0.87 0.80 0.74 0.65 0.62 0.58 0.60 0.64 0.64 0.72 0.76 0.81 0.80 0.73 0.68 0.65 0.61 0.57 0.53 0.47 0.44 0.45 0.46 0.44 0.41 0.40 0.43 0.49 0.53 0.55 0.61 0.62 0.61 0.61 0.56 0.54 0.57 0.57 0.59 0.62 0.70 0.81
1.14 0.98 0.83 0.73 0.68 0.62 0.60 0.58 0.55 0.54 0.57 0.55 0.54 0.58 0.56 0.54 0.52 0.47 0.45 0.42 0.41 0.40 0.38 0.38 0.38 0.37 0.37 0.37 0.37 0.40 0.43 0.48 0.54 0.56 0.61 0.61 0.58 0.56 0.56 0.58 0.61 0.69 0.80
1.19 1.01 0.86 0.78 0.69 0.63 0.61 0.59 0.53 0.47 0.48 0.45 0.43 0.47 0.48 0.46 0.46 0.44 0.41 0.37 0.35 0.35 0.32 0.29 0.27 0.28 0.28 0.27 0.26 0.26 0.29 0.33 0.37 0.42 0.54 0.59 0.59 0.57 0.60 0.63 0.65 0.71 0.81
1.21 1.13 0.99 0.88 0.73 0.64 0.60 0.57 0.54 0.49 0.45 0.45 0.45 0.47 0.44 0.42 0.43 0.45 0.41 0.37 0.34 0.30 0.28 0.25 0.21 0.20 0.21 0.21 0.21 0.21 0.21 0.27 0.30 0.33 0.41 0.48 0.51 0.53 0.54 0.56 0.62 0.71 0.82
1.45 1.40 1.23 1.04 0.89 0.79 0.72 0.67 0.62 0.53 0.46 0.45 0.49 0.50 0.48 0.48 0.47 0.45 0.44 0.41 0.36 0.32 0.25 0.21 0.18 0.17 0.16 0.18 0.18 0.19 0.23 0.29 0.33 0.36 0.38 0.38 0.40 0.40 0.38 0.44 0.51 0.63 0.75
1.52 1.38 1.25 1.12 1.00 0.94 0.85 0.78 0.71 0.62 0.54 0.53 0.52 0.52 0.49 0.49 0.46 0.41 0.42 0.40 0.35 0.31 0.28 0.23 0.20 0.19 0.16 0.14 0.14 0.17 0.25 0.34 0.40 0.42 0.41 0.35 0.36 0.42 0.43 0.42 0.44 0.55 0.62
1.71 1.62 1.41 1.25 1.08 0.93 0.84 0.75 0.65 0.61 0.58 0.57 0.55 0.52 0.48 0.45 0.42 0.41 0.42 0.39 0.35 0.32 0.31 0.26 0.22 0.22 0.16 0.13 0.13 0.16 0.22 0.28 0.30 0.30 0.34 0.41 0.46 0.41 0.39 0.38 0.47 0.57 0.66
1.63 1.56 1.41 1.27 1.13 0.96 0.81 0.70 0.64 0.60 0.58 0.57 0.51 0.43 0.38 0.38 0.37 0.40 0.42 0.39 0.37 0.35 0.31 0.27 0.24 0.26 0.21 0.16 0.14 0.15 0.22 0.24 0.24 0.22 0.24 0.28 0.34 0.32 0.36 0.46 0.60 0.64 0.74
1.14 1.13 1.08 1.03 0.96 0.84 0.71 0.65 0.62 0.56 0.48 0.42 0.36 0.30 0.29 0.31 0.33 0.34 0.36 0.35 0.34 0.32 0.28 0.27 0.27 0.25 0.24 0.16 0.14 0.14 0.17 0.22 0.21 0.24 0.27 0.24 0.21 0.24 0.32 0.47 0.66 0.79 0.83
0.93 0.88 0.84 0.84 0.80 0.69 0.64 0.61 0.57 0.49 0.36 0.29 0.27 0.25 0.25 0.26 0.26 0.28 0.32 0.33 0.31 0.32 0.31 0.31 0.30 0.26 0.20 0.14 0.09 0.09 0.13 0.16 0.20 0.27 0.31 0.31 0.24 0.25 0.29 0.42 0.62 0.77 0.80
0.96 0.88 0.79 0.72 0.62 0.58 0.63 0.64 0.55 0.39 0.29 0.27 0.27 0.26 0.21 0.17 0.17 0.27 0.34 0.32 0.34 0.36 0.36 0.35 0.31 0.25 0.19 0.13 0.09 0.07 0.07 0.08 0.22 0.36 0.34 0.33 0.31 0.29 0.36 0.49 0.66 0.79 0.95
0.89 0.83 0.72 0.62 0.50 0.45 0.49 0.51 0.40 0.26 0.24 0.27 0.30 0.28 0.23 0.21 0.20 0.26 0.31 0.31 0.32 0.30 0.29 0.29 0.27 0.25 0.22 0.17 0.10 0.07 0.06 0.09 0.19 0.33 0.37 0.35 0.33 0.42 0.62 0.74 0.84 0.97 1.14
0.67 0.60 0.56 0.50 0.40 0.33 0.30 0.29 0.22 0.20 0.24 0.28 0.28 0.25 0.25 0.27 0.25 0.24 0.20 0.22 0.24 0.22 0.22 0.24 0.26 0.28 0.26 0.18 0.12 0.12 0.13 0.15 0.20 0.30 0.42 0.49 0.52 0.68 0.89 1.03 1.12 1.19 1.20
0.45 0.42 0.44 0.39 0.29 0.23 0.20 0.16 0.14 0.18 0.24 0.26 0.24 0.22 0.20 0.23 0.27 0.22 0.13 0.11 0.12 0.09 0.13 0.17 0.19 0.25 0.24 0.13 0.10 0.12 0.15 0.18 0.23 0.29 0.44 0.60 0.66 0.79 0.95 1.07 1.14 1.17 1.14
0.34 0.34 0.32 0.29 0.23 0.18 0.16 0.12 0.11 0.14 0.24 0.26 0.21 0.15 0.12 0.14 0.16 0.19 0.18 0.08 0.04 0.03 0.04 0.06 0.08 0.11 0.12 0.10 0.08 0.10 0.14 0.19 0.26 0.34 0.54 0.66 0.68 0.76 0.86 0.96 1.04 1.03 0.99

GEFSMW_prec_meanprecacc_156.txt.gz
Total_Precipitation_Accumulation
0.90 1.04 1.47 1.89 2.22 2.66 2.92 2.87 2.63 2.65 2.77 2.84 2.65 2.82 3.11 3.44 3.69 3.61 3.52 3.48 3.42 3.35 3.34 3.35 3.29 3.17 3.12 2.98 2.82 2.63 2.52 2.35 2.14 2.06 1.83 1.56 1.38 1.26 1.21 1.25 1.29 1.24 1.20
0.93 1.14 1.52 1.78 2.15 2.51 2.61 2.83 2.92 2.90 2.78 3.04 3.29 3.56 3.87 4.04 4.31 4.57 4.63 4.51 4.27 4.03 3.84 3.74 3.53 3.21 3.03 2.92 2.74 2.57 2.44 2.24 2.05 2.00 1.95 1.63 1.40 1.14 0.99 1.02 1.03 1.06 1.11
1.15 1.32 1.55 1.72 1.97 2.34 2.57 2.82 3.05 3.10 3.04 3.45 3.99 4.49 4.76 4.78 4.84 4.90 4.97 4.91 4.49 4.13 3.85 3.55 3.33 3.10 2.91 2.79 2.71 2.56 2.44 2.25 2.07 1.95 2.01 1.89 1.65 1.31 1.13 1.00 0.96 0.98 1.02
1.04 1.21 1.41 1.75 1.84 2.13 2.38 2.61 2.92 3.27 3.56 3.98 4.50 5.08 5.39 5.54 5.45 5.14 4.90 4.59 4.18 3.80 3.35 3.12 3.10 2.93 2.71 2.54 2.37 2.21 2.14 2.09 2.00 1.91 1.77 1.71 1.63 1.49 1.34 1.22 1.16 1.09 1.06
0.93 1.01 1.12 1.37 1.62 1.86 2.11 2.42 2.76 3.12 3.72 4.45 5.04 5.48 5.81 5.78 5.38 4.90 4.34 3.90 3.56 3.26 2.98 2.76 2.76 2.67 2.43 2.18 1.93 1.76 1.69 1.70 1.75 1.72 1.66 1.58 1.51 1.35 1.24 1.23 1.18 1.15 1.10
0.97 0.96 0.98 1.17 1.38 1.55 1.81 2.17 2.58 2.89 3.42 4.08 4.70 5.07 5.34 5.28 4.90 4.28 3.75 3.37 3.01 2.70 2.44 2.18 2.03 1.91 1.74 1.63 1.53 1.41 1.37 1.36 1.43 1.47 1.43 1.40 1.38 1.34 1.28 1.23 1.15 1.15 1.21
1.04 0.98 0.92 1.00 1.16 1.29 1.51 1.75 2.13 2.60 2.97 3.35 3.90 4.07 4.12 3.96 3.59 3.31 3.09 2.71 2.34 2.04 1.80 1.61 1.48 1.40 1.32 1.26 1.25 1.24 1.22 1.15 1.12 1.14 1.17 1.17 1.13 1.13 1.19 1.26 1.28 1.24 1.21
0.96 0.93 0.88 0.93 1.06 1.18 1.38 1.54 1.79 2.17 2.47 2.61 2.79 2.80 2.72 2.65 2.53 2.34 2.11 1.87 1.63 1.49 1.37 1.21 1.10 1.08 1.10 1.06 1.04 1.02 0.98 0.92 0.85 0.83 0.86 0.90 0.90 0.98 1.13 1.21 1.32 1.39 1.30
0.95 0.92 0.86 0.88 0.99 1.08 1.26 1.34 1.36 1.51 1.63 1.70 1.78 1.86 1.85 1.75 1.73 1.66 1.48 1.35 1.19 1.05 0.98 0.89 0.85 0.82 0.77 0.71 0.67 0.68 0.70 0.73 0.73 0.70 0.71 0.74 0.76 0.85 0.97 1.04 1.15 1.28 1.30
0.96 0.94 0.89 0.86 0.84 0.87 0.97 1.08 1.10 1.12 1.13 1.17 1.15 1.23 1.23 1.16 1.08 1.00 0.95 0.85 0.75 0.65 0.62 0.57 0.56 0.57 0.59 0.56 0.54 0.56 0.59 0.61 0.63 0.65 0.63 0.62 0.63 0.70 0.78 0.85 0.91 1.02 1.12
1.06 0.99 0.92 0.85 0.78 0.75 0.75 0.82 0.87 0.93 0.97 0.97 0.95 0.95 0.92 0.84 0.78 0.75 0.69 0.60 0.53 0.49 0.47 0.47 0.46 0.47 0.50 0.53 0.57 0.59 0.61 0.67 0.65 0.63 0.61 0.58 0.57 0.60 0.64 0.70 0.76 0.83 0.90
1.05 0.96 0.88 0.82 0.75 0.70 0.65 0.66 0.69 0.68 0.75 0.79 0.83 0.84 0.77 0.72 0.68 0.63 0.58 0.54 0.48 0.46 0.47 0.47 0.44 0.41 0.40 0.43 0.49 0.55 0.57 0.63 0.64 0.63 0.62 0.57 0.55 0.59 0.60 0.62 0.66 0.75 0.85
1.19 1.04 0.88 0.79 0.76 0.72 0.68 0.65 0.61 0.59 0.61 0.58 0.56 0.61 0.61 0.58 0.55 0.48 0.45 0.43 0.43 0.42 0.39 0.39 0.38 0.37 0.37 0.37 0.37 0.41 0.44 0.50 0.55 0.59 0.64 0.63 0.61 0.58 0.59 0.62 0.65 0.74 0.85
1.23 1.06 0.92 0.85 0.76 0.70 0.70 0.67 0.59 0.52 0.52 0.49 0.45 0.49 0.49 0.48 0.47 0.45 0.41 0.37 0.36 0.36 0.33 0.29 0.27 0.28 0.28 0.28 0.26 0.27 0.30 0.34 0.38 0.44 0.56 0.61 0.61 0.60 0.63 0.67 0.70 0.75 0.85
1.25 1.18 1.06 0.94 0.77 0.67 0.64 0.62 0.59 0.52 0.48 0.47 0.47 0.49 0.45 0.43 0.44 0.45 0.41 0.37 0.35 0.31 0.29 0.26 0.22 0.20 0.21 0.21 0.21 0.21 0.22 0.29 0.32 0.34 0.43 0.50 0.54 0.56 0.57 0.60 0.66 0.75 0.86
1.49 1.43 1.26 1.08 0.93 0.82 0.76 0.71 0.66 0.56 0.48 0.47 0.50 0.52 0.50 0.49 0.49 0.47 0.46 0.42 0.37 0.32 0.26 0.22 0.19 0.17 0.16 0.19 0.19 0.20 0.25 0.30 0.35 0.39 0.42 0.42 0.44 0.43 0.41 0.47 0.55 0.66 0.80
1.55 1.42 1.29 1.16 1.05 0.98 0.88 0.81 0.74 0.63 0.56 0.55 0.54 0.55 0.53 0.53 0.49 0.44 0.44 0.42 0.37 0.32 0.29 0.23 0.20 0.19 0.16 0.15 0.15 0.17 0.27 0.36 0.42 0.45 0.44 0.38 0.38 0.45 0.46 0.45 0.48 0.59 0.68
1.73 1.65 1.44 1.29 1.13 0.98 0.88 0.78 0.68 0.64 0.62 0.60 0.57 0.55 0.51 0.48 0.44 0.43 0.44 0.41 0.36 0.32 0.31 0.27 0.22 0.23 0.17 0.14 0.14 0.16 0.22 0.29 0.32 0.32 0.36 0.43 0.48 0.44 0.43 0.41 0.50 0.61 0.71
1.64 1.58 1.43 1.30 1.17 1.02 0.88 0.79 0.72 0.66 0.62 0.58 0.52 0.45 0.41 0.40 0.39 0.41 0.43 0.40 0.38 0.35 0.31 0.27 0.25 0.26 0.22 0.16 0.14 0.16 0.22 0.25 0.24 0.23 0.26 0.31 0.36 0.35 0.40 0.49 0.63 0.67 0.78
1.16 1.14 1.10 1.05 0.98 0.87 0.76 0.72 0.70 0.62 0.53 0.45 0.37 0.32 0.30 0.33 0.34 0.35 0.37 0.36 0.35 0.32 0.28 0.27 0.27 0.26 0.24 0.17 0.14 0.15 0.18 0.23 0.22 0.26 0.29 0.27 0.24 0.27 0.36 0.51 0.69 0.81 0.85
0.95 0.90 0.86 0.86 0.81 0.72 0.68 0.67 0.63 0.56 0.42 0.33 0.29 0.28 0.27 0.27 0.27 0.29 0.33 0.34 0.32 0.32 0.31 0.31 0.31 0.27 0.21 0.15 0.10 0.09 0.14 0.17 0.22 0.29 0.34 0.33 0.27 0.28 0.33 0.46 0.64 0.80 0.82
0.99 0.90 0.81 0.74 0.63 0.59 0.65 0.68 0.58 0.42 0.32 0.30 0.31 0.30 0.24 0.18 0.19 0.28 0.34 0.32 0.34 0.36 0.37 0.36 0.31 0.26 0.19 0.14 0.10 0.08 0.07 0.10 0.24 0.38 0.35 0.34 0.33 0.32 0.39 0.52 0.68 0.81 0.97
0.92 0.86 0.73 0.63 0.51 0.46 0.51 0.53 0.42 0.28 0.26 0.30 0.34 0.32 0.25 0.23 0.22 0.27 0.31 0.32 0.33 0.31 0.29 0.29 0.28 0.26 0.22 0.17 0.11 0.08 0.08 0.11 0.20 0.34 0.38 0.36 0.34 0.44 0.64 0.76 0.86 0.99 1.17
0.69 0.62 0.58 0.51 0.41 0.35 0.32 0.30 0.23 0.21 0.25 0.29 0.29 0.26 0.26 0.28 0.27 0.26 0.21 0.22 0.25 0.23 0.22 0.24 0.26 0.28 0.27 0.19 0.13 0.14 0.15 0.17 0.21 0.31 0.43 0.51 0.54 0.69 0.90 1.04 1.14 1.21 1.23
0.47 0.43 0.45 0.41 0.30 0.24 0.21 0.17 0.15 0.19 0.26 0.27 0.26 0.24 0.22 0.24 0.28 0.23 0.14 0.12 0.13 0.10 0.14 0.18 0.20 0.26 0.25 0.15 0.12 0.14 0.17 0.19 0.24 0.29 0.45 0.61 0.67 0.80 0.96 1.09 1.16 1.18 1.15
0.35 0.35 0.34 0.31 0.24 0.19 0.17 0.13 0.11 0.15 0.25 0.27 0.23 0.16 0.13 0.15 0.17 0.19 0.18 0.09 0.04 0.04 0.04 0.06 0.09 0.11 0.13 0.11 0.09 0.12 0.16 0.20 0.28 0.35 0.56 0.67 0.69 0.77 0.86 0.96 1.05 1.03 0.99

GEFSMW_prec_meanprecacc_162.txt.gz
Total_Precipitation_Accumulation
0.93 1.08 1.52 1.96 2.32 2.76 3.02 2.96 2.72 2.75 2.85 2.92 2.70 2.86 3.14 3.47 3.71 3.64 3.54 3.51 3.45 3.39 3.38 3.38 3.34 3.23 3.16 3.02 2.85 2.67 2.57 2.41 2.19 2.12 1.88 1.61 1.42 1.31 1.26 1.29 1.34 1.29 1.24
0.95 1.17 1.56 1.85 2.26 2.61 2.74 2.98 3.03 2.99 2.84 3.15 3.38 3.60 3.91 4.07 4.34 4.59 4.65 4.52 4.29 4.05 3.86 3.78 3.57 3.26 3.08 2.96 2.78 2.61 2.48 2.27 2.10 2.05 2.00 1.67 1.44 1.19 1.03 1.06 1.07 1.11 1.16
1.18 1.37 1.59 1.76 2.03 2.41 2.67 2.95 3.18 3.19 3.10 3.54 4.11 4.54 4.80 4.81 4.87 4.93 4.99 4.93 4.51 4.15 3.87 3.57 3.38 3.16 2.98 2.84 2.76 2.61 2.48 2.29 2.11 1.97 2.04 1.92 1.68 1.34 1.17 1.05 1.01 1.02 1.06
1.08 1.25 1.46 1.81 1.89 2.17 2.43 2.66 3.00 3.36 3.66 4.08 4.61 5.16 5.44 5.58 5.49 5.18 4.93 4.61 4.20 3.82 3.38 3.14 3.13 2.97 2.76 2.58 2.40 2.24 2.18 2.13 2.04 1.94 1.80 1.74 1.67 1.54 1.38 1.24 1.20 1.14 1.10
0.96 1.05 1.19 1.45 1.69 1.91 2.15 2.46 2.80 3.19 3.82 4.62 5.19 5.58 5.88 5.84 5.43 4.95 4.39 3.94 3.59 3.29 3.01 2.79 2.79 2.70 2.45 2.20 1.95 1.78 1.71 1.72 1.77 1.75 1.69 1.61 1.54 1.39 1.28 1.26 1.21 1.19 1.15
1.02 1.01 1.04 1.23 1.43 1.60 1.86 2.21 2.63 2.96 3.51 4.24 4.88 5.19 5.40 5.34 4.98 4.35 3.82 3.43 3.05 2.74 2.48 2.22 2.08 1.95 1.78 1.66 1.55 1.43 1.39 1.37 1.44 1.49 1.45 1.44 1.42 1.38 1.34 1.27 1.18 1.18 1.26
1.10 1.04 0.98 1.05 1.20 1.34 1.57 1.80 2.17 2.65 3.03 3.41 3.96 4.14 4.18 4.01 3.64 3.36 3.14 2.76 2.38 2.08 1.84 1.65 1.52 1.44 1.35 1.30 1.29 1.27 1.24 1.16 1.14 1.16 1.20 1.21 1.16 1.17 1.24 1.32 1.34 1.27 1.25
1.02 0.98 0.92 0.97 1.12 1.25 1.46 1.62 1.84 2.22 2.53 2.65 2.83 2.84 2.76 2.69 2.56 2.36 2.13 1.89 1.65 1.51 1.39 1.23 1.14 1.12 1.14 1.11 1.09 1.05 1.00 0.94 0.86 0.84 0.88 0.93 0.94 1.02 1.17 1.26 1.38 1.45 1.34
0.99 0.97 0.91 0.94 1.07 1.17 1.33 1.40 1.41 1.55 1.66 1.73 1.81 1.89 1.88 1.77 1.75 1.68 1.50 1.36 1.20 1.07 0.99 0.90 0.87 0.84 0.80 0.75 0.72 0.71 0.73 0.75 0.75 0.72 0.72 0.75 0.78 0.87 1.00 1.08 1.20 1.34 1.35
1.00 0.99 0.96 0.95 0.94 0.96 1.04 1.14 1.16 1.16 1.17 1.20 1.18 1.27 1.27 1.19 1.11 1.03 0.96 0.87 0.77 0.67 0.63 0.59 0.58 0.59 0.61 0.58 0.56 0.57 0.61 0.63 0.64 0.67 0.65 0.64 0.64 0.71 0.79 0.87 0.95 1.07 1.19
1.10 1.04 0.99 0.93 0.85 0.82 0.82 0.90 0.94 0.97 1.01 1.02 0.99 0.98 0.95 0.87 0.80 0.76 0.70 0.61 0.54 0.51 0.49 0.48 0.47 0.48 0.51 0.55 0.58 0.61 0.62 0.68 0.66 0.65 0.63 0.60 0.59 0.62 0.65 0.72 0.79 0.89 0.97
1.11 1.02 0.95 0.91 0.82 0.76 0.71 0.73 0.76 0.73 0.78 0.82 0.87 0.87 0.80 0.74 0.70 0.64 0.59 0.55 0.49 0.47 0.48 0.48 0.46 0.43 0.42 0.45 0.51 0.56 0.59 0.66 0.65 0.64 0.63 0.58 0.57 0.60 0.61 0.64 0.68 0.78 0.90
1.25 1.11 0.95 0.86 0.82 0.77 0.74 0.72 0.69 0.64 0.65 0.61 0.60 0.64 0.63 0.60 0.57 0.50 0.46 0.44 0.43 0.43 0.41 0.40 0.39 0.38 0.38 0.38 0.38 0.42 0.46 0.52 0.57 0.59 0.65 0.64 0.62 0.59 0.60 0.64 0.67 0.77 0.88
1.25 1.10 0.98 0.90 0.82 0.78 0.77 0.75 0.69 0.60 0.58 0.53 0.49 0.52 0.52 0.50 0.49 0.46 0.42 0.38 0.37 0.37 0.34 0.30 0.28 0.29 0.29 0.28 0.27 0.27 0.30 0.36 0.40 0.45 0.58 0.63 0.63 0.61 0.65 0.70 0.72 0.78 0.88
1.26 1.20 1.09 0.97 0.82 0.72 0.70 0.70 0.68 0.61 0.55 0.54 0.52 0.52 0.48 0.46 0.46 0.47 0.43 0.39 0.36 0.33 0.31 0.28 0.24 0.21 0.21 0.22 0.22 0.22 0.22 0.30 0.33 0.36 0.45 0.53 0.57 0.58 0.59 0.62 0.68 0.78 0.90
1.51 1.45 1.28 1.10 0.95 0.84 0.78 0.75 0.72 0.61 0.52 0.52 0.56 0.57 0.53 0.53 0.52 0.50 0.49 0.45 0.40 0.36 0.30 0.26 0.24 0.20 0.18 0.21 0.21 0.21 0.25 0.31 0.36 0.41 0.44 0.45 0.48 0.47 0.44 0.49 0.58 0.70 0.84
1.56 1.42 1.30 1.18 1.07 1.00 0.91 0.85 0.79 0.67 0.60 0.58 0.58 0.59 0.56 0.56 0.53 0.48 0.49 0.47 0.41 0.35 0.31 0.26 0.25 0.23 0.17 0.15 0.15 0.18 0.27 0.37 0.43 0.46 0.46 0.40 0.41 0.48 0.49 0.48 0.52 0.62 0.71
1.74 1.65 1.45 1.29 1.13 0.99 0.90 0.82 0.72 0.69 0.67 0.64 0.59 0.56 0.52 0.49 0.46 0.45 0.46 0.42 0.37 0.33 0.32 0.27 0.24 0.25 0.18 0.14 0.14 0.17 0.23 0.29 0.32 0.32 0.38 0.45 0.50 0.46 0.45 0.44 0.53 0.63 0.74
1.65 1.59 1.44 1.31 1.18 1.04 0.90 0.81 0.75 0.71 0.68 0.63 0.55 0.46 0.42 0.41 0.39 0.42 0.44 0.40 0.38 0.36 0.32 0.28 0.26 0.28 0.23 0.17 0.14 0.16 0.23 0.26 0.25 0.23 0.27 0.33 0.37 0.37 0.43 0.52 0.66 0.70 0.82
1.16 1.15 1.10 1.06 0.99 0.88 0.77 0.74 0.73 0.66 0.60 0.53 0.43 0.35 0.33 0.35 0.36 0.36 0.37 0.36 0.36 0.33 0.29 0.28 0.29 0.27 0.25 0.17 0.14 0.15 0.18 0.24 0.23 0.26 0.30 0.29 0.26 0.30 0.39 0.53 0.71 0.83 0.89
0.96 0.91 0.86 0.87 0.82 0.72 0.69 0.69 0.67 0.61 0.47 0.39 0.35 0.32 0.31 0.31 0.30 0.31 0.34 0.34 0.32 0.33 0.31 0.32 0.32 0.28 0.21 0.15 0.10 0.10 0.14 0.18 0.22 0.29 0.35 0.34 0.29 0.31 0.36 0.49 0.67 0.83 0.87
1.00 0.91 0.82 0.75 0.64 0.60 0.66 0.70 0.63 0.46 0.36 0.35 0.36 0.34 0.28 0.23 0.22 0.30 0.35 0.33 0.34 0.36 0.37 0.36 0.32 0.26 0.20 0.14 0.10 0.08 0.08 0.10 0.24 0.38 0.36 0.35 0.35 0.34 0.41 0.54 0.71 0.84 1.00
0.93 0.87 0.75 0.65 0.53 0.47 0.52 0.56 0.45 0.31 0.29 0.34 0.39 0.37 0.28 0.27 0.26 0.29 0.32 0.32 0.33 0.31 0.29 0.30 0.28 0.26 0.23 0.18 0.11 0.09 0.09 0.12 0.21 0.35 0.39 0.38 0.36 0.46 0.66 0.78 0.88 1.01 1.19
0.72 0.64 0.60 0.53 0.43 0.35 0.33 0.31 0.24 0.24 0.28 0.33 0.34 0.32 0.31 0.32 0.32 0.29 0.22 0.23 0.25 0.23 0.22 0.25 0.27 0.28 0.28 0.20 0.15 0.15 0.17 0.19 0.23 0.33 0.46 0.52 0.56 0.71 0.92 1.06 1.16 1.23 1.25
0.50 0.47 0.48 0.43 0.31 0.25 0.22 0.17 0.16 0.20 0.27 0.29 0.29 0.28 0.26 0.27 0.32 0.28 0.17 0.13 0.13 0.11 0.14 0.18 0.20 0.26 0.26 0.16 0.15 0.16 0.19 0.22 0.25 0.31 0.46 0.62 0.68 0.81 0.96 1.11 1.18 1.21 1.18
0.38 0.38 0.36 0.32 0.25 0.20 0.17 0.13 0.11 0.16 0.26 0.28 0.24 0.17 0.14 0.16 0.19 0.22 0.20 0.10 0.05 0.04 0.04 0.06 0.09 0.12 0.14 0.12 0.11 0.14 0.19 0.23 0.29 0.36 0.56 0.67 0.69 0.77 0.87 0.97 1.06 1.04 0.99

GEFSMW_prec_meanprecacc_168.txt.gz
Total_Precipitation_Accumulation
0.96 1.11 1.55 1.99 2.36 2.81 3.07 3.02 2.78 2.80 2.90 2.97 2.74 2.90 3.18 3.50 3.74 3.66 3.56 3.53 3.48 3.42 3.42 3.42 3.39 3.28 3.23 3.09 2.91 2.74 2.65 2.48 2.27 2.21 1.95 1.66 1.45 1.34 1.30 1.35 1.40 1.35 1.30
0.98 1.19 1.58 1.86 2.29 2.66 2.79 3.04 3.09 3.05 2.89 3.20 3.43 3.65 3.95 4.11 4.37 4.63 4.69 4.56 4.32 4.09 3.90 3.81 3.61 3.30 3.14 3.02 2.83 2.68 2.55 2.34 2.17 2.13 2.09 1.75 1.50 1.23 1.07 1.10 1.12 1.15 1.20
1.20 1.39 1.61 1.79 2.08 2.46 2.71 2.99 3.24 3.26 3.16 3.59 4.16 4.59 4.85 4.85 4.91 4.96 5.03 4.97 4.55 4.18 3.89 3.59 3.41 3.20 3.02 2.88 2.82 2.67 2.55 2.36 2.19 2.04 2.12 2.00 1.76 1.40 1.23 1.10 1.09 1.12 1.12
1.09 1.27 1.49 1.85 1.94 2.22 2.49 2.72 3.05 3.41 3.70 4.12 4.66 5.23 5.51 5.63 5.53 5.22 4.98 4.67 4.24 3.85 3.40 3.16 3.15 3.00 2.80 2.62 2.45 2.30 2.23 2.19 2.12 2.03 1.88 1.81 1.74 1.61 1.46 1.31 1.27 1.25 1.19
0.98 1.08 1.22 1.50 1.75 1.98 2.22 2.51 2.83 3.22 3.86 4.66 5.26 5.65 5.94 5.89 5.48 5.01 4.45 4.00 3.66 3.35 3.06 2.84 2.84 2.75 2.49 2.24 1.99 1.82 1.75 1.76 1.83 1.82 1.76 1.68 1.60 1.45 1.35 1.33 1.31 1.29 1.24
1.05 1.04 1.09 1.31 1.51 1.66 1.90 2.24 2.66 3.00 3.55 4.27 4.91 5.23 5.46 5.41 5.05 4.43 3.89 3.50 3.11 2.79 2.53 2.27 2.12 1.99 1.81 1.70 1.58 1.46 1.42 1.41 1.49 1.54 1.51 1.49 1.48 1.45 1.41 1.35 1.27 1.28 1.37
1.13 1.08 1.04 1.12 1.26 1.39 1.61 1.84 2.20 2.68 3.05 3.43 3.99 4.18 4.25 4.09 3.72 3.44 3.21 2.83 2.46 2.14 1.88 1.68 1.55 1.47 1.40 1.36 1.34 1.30 1.27 1.20 1.18 1.20 1.25 1.26 1.22 1.22 1.31 1.41 1.44 1.38 1.34
1.04 1.00 0.95 1.02 1.15 1.30 1.50 1.64 1.86 2.24 2.56 2.68 2.86 2.87 2.82 2.76 2.62 2.43 2.19 1.95 1.71 1.56 1.42 1.26 1.17 1.15 1.17 1.15 1.16 1.13 1.06 0.98 0.91 0.88 0.93 0.98 0.98 1.06 1.22 1.33 1.48 1.56 1.42
1.01 0.99 0.95 0.98 1.10 1.19 1.35 1.42 1.43 1.58 1.69 1.77 1.85 1.93 1.93 1.82 1.80 1.73 1.54 1.38 1.21 1.09 1.01 0.93 0.91 0.88 0.85 0.81 0.80 0.80 0.80 0.82 0.82 0.79 0.78 0.80 0.82 0.92 1.04 1.13 1.27 1.44 1.44
1.02 1.02 0.99 0.99 0.96 0.99 1.07 1.17 1.18 1.19 1.20 1.24 1.23 1.31 1.32 1.22 1.14 1.06 0.99 0.89 0.78 0.68 0.65 0.61 0.60 0.62 0.65 0.62 0.60 0.64 0.69 0.70 0.72 0.75 0.71 0.69 0.68 0.74 0.83 0.91 1.01 1.15 1.28
1.12 1.06 1.02 0.96 0.88 0.85 0.85 0.92 0.96 1.00 1.05 1.06 1.04 1.03 1.00 0.90 0.83 0.79 0.72 0.62 0.55 0.52 0.50 0.50 0.50 0.50 0.54 0.58 0.63 0.66 0.69 0.74 0.71 0.70 0.68 0.64 0.63 0.65 0.67 0.74 0.83 0.94 1.03
1.13 1.05 0.98 0.97 0.90 0.85 0.79 0.80 0.81 0.77 0.83 0.87 0.93 0.94 0.85 0.77 0.72 0.66 0.60 0.56 0.50 0.48 0.50 0.51 0.49 0.45 0.44 0.48 0.55 0.61 0.62 0.69 0.69 0.68 0.67 0.62 0.61 0.63 0.63 0.66 0.71 0.82 0.95
1.27 1.14 1.00 0.92 0.89 0.86 0.83 0.79 0.76 0.71 0.71 0.66 0.65 0.69 0.67 0.62 0.59 0.51 0.47 0.45 0.44 0.44 0.43 0.42 0.41 0.40 0.39 0.39 0.40 0.45 0.50 0.56 0.60 0.62 0.67 0.66 0.64 0.62 0.62 0.67 0.70 0.80 0.92
1.27 1.12 1.01 0.94 0.88 0.85 0.85 0.82 0.77 0.67 0.64 0.60 0.56 0.57 0.56 0.54 0.52 0.49 0.45 0.40 0.38 0.38 0.36 0.32 0.31 0.31 0.31 0.30 0.29 0.29 0.33 0.39 0.43 0.47 0.59 0.65 0.65 0.63 0.67 0.71 0.75 0.81 0.93
1.28 1.22 1.10 0.99 0.85 0.76 0.76 0.76 0.76 0.70 0.63 0.61 0.61 0.61 0.53 0.50 0.50 0.50 0.46 0.41 0.38 0.34 0.33 0.30 0.26 0.24 0.23 0.23 0.24 0.24 0.24 0.32 0.35 0.38 0.47 0.54 0.58 0.59 0.61 0.63 0.69 0.80 0.93
1.52 1.47 1.29 1.11 0.96 0.85 0.80 0.77 0.76 0.67 0.59 0.59 0.66 0.68 0.63 0.60 0.58 0.55 0.53 0.48 0.42 0.37 0.31 0.27 0.26 0.23 0.20 0.23 0.22 0.23 0.28 0.34 0.39 0.44 0.47 0.46 0.48 0.48 0.46 0.51 0.59 0.71 0.87
1.58 1.45 1.31 1.19 1.08 1.01 0.91 0.86 0.80 0.71 0.65 0.67 0.66 0.69 0.68 0.67 0.62 0.55 0.54 0.51 0.44 0.38 0.34 0.28 0.27 0.26 0.20 0.17 0.17 0.19 0.28 0.38 0.44 0.48 0.48 0.41 0.42 0.50 0.52 0.52 0.54 0.64 0.73
1.74 1.66 1.47 1.31 1.14 1.00 0.92 0.83 0.74 0.71 0.72 0.72 0.69 0.63 0.59 0.56 0.52 0.50 0.51 0.46 0.41 0.36 0.34 0.30 0.27 0.27 0.19 0.15 0.15 0.17 0.24 0.30 0.33 0.34 0.39 0.47 0.51 0.47 0.48 0.48 0.58 0.66 0.77
1.66 1.60 1.45 1.33 1.20 1.05 0.92 0.83 0.77 0.73 0.72 0.70 0.63 0.53 0.47 0.46 0.44 0.46 0.46 0.42 0.40 0.37 0.33 0.30 0.30 0.31 0.24 0.17 0.15 0.17 0.24 0.27 0.26 0.24 0.28 0.34 0.39 0.38 0.44 0.53 0.69 0.73 0.84
1.17 1.16 1.13 1.08 1.01 0.90 0.78 0.77 0.75 0.68 0.63 0.58 0.50 0.42 0.38 0.40 0.41 0.41 0.41 0.39 0.37 0.34 0.30 0.30 0.31 0.28 0.26 0.17 0.14 0.15 0.19 0.25 0.23 0.27 0.31 0.30 0.26 0.31 0.40 0.55 0.74 0.87 0.92
0.96 0.91 0.87 0.88 0.83 0.73 0.70 0.71 0.68 0.63 0.51 0.43 0.42 0.41 0.38 0.39 0.38 0.39 0.40 0.38 0.34 0.34 0.32 0.33 0.32 0.28 0.22 0.16 0.10 0.10 0.15 0.19 0.23 0.30 0.36 0.35 0.29 0.31 0.36 0.50 0.70 0.86 0.91
1.00 0.92 0.84 0.76 0.65 0.61 0.67 0.71 0.64 0.48 0.39 0.38 0.41 0.42 0.37 0.30 0.28 0.36 0.40 0.36 0.37 0.38 0.38 0.38 0.33 0.27 0.20 0.15 0.11 0.09 0.08 0.11 0.25 0.40 0.38 0.36 0.35 0.35 0.42 0.55 0.72 0.86 1.04
0.94 0.88 0.76 0.66 0.54 0.48 0.53 0.57 0.46 0.32 0.31 0.38 0.43 0.42 0.35 0.34 0.30 0.32 0.35 0.34 0.35 0.32 0.30 0.31 0.30 0.27 0.24 0.19 0.13 0.11 0.10 0.12 0.22 0.36 0.40 0.39 0.37 0.48 0.68 0.80 0.90 1.03 1.22
0.72 0.65 0.61 0.55 0.44 0.37 0.35 0.33 0.25 0.25 0.30 0.36 0.39 0.38 0.37 0.38 0.38 0.33 0.24 0.24 0.26 0.24 0.23 0.26 0.28 0.30 0.30 0.22 0.17 0.18 0.19 0.20 0.24 0.34 0.47 0.54 0.57 0.72 0.94 1.09 1.18 1.26 1.29
0.51 0.48 0.49 0.45 0.33 0.26 0.23 0.18 0.17 0.21 0.28 0.31 0.32 0.33 0.33 0.33 0.39 0.33 0.20 0.14 0.14 0.11 0.14 0.19 0.21 0.27 0.27 0.18 0.16 0.17 0.20 0.23 0.26 0.32 0.49 0.65 0.70 0.82 0.98 1.12 1.20 1.23 1.21
0.40 0.41 0.39 0.35 0.27 0.22 0.19 0.15 0.12 0.16 0.27 0.29 0.26 0.20 0.18 0.21 0.24 0.27 0.24 0.12 0.05 0.04 0.04 0.06 0.09 0.12 0.14 0.12 0.11 0.14 0.19 0.23 0.30 0.39 0.60 0.71 0.71 0.78 0.88 0.98 1.07 1.05 1.00

GEFSMW_prec_meanprecacc_174.txt.gz
Total_Precipitation_Accumulation
0.96 1.12 1.57 2.01 2.39 2.85 3.12 3.08 2.85 2.86 2.98 3.09 2.89 3.04 3.29 3.58 3.80 3.71 3.61 3.58 3.53 3.48 3.48 3.49 3.47 3.35 3.29 3.16 2.98 2.81 2.73 2.55 2.34 2.28 2.02 1.72 1.51 1.43 1.38 1.40 1.46 1.43 1.39
0.99 1.21 1.59 1.88 2.31 2.69 2.84 3.08 3.14 3.12 2.96 3.29 3.53 3.75 4.04 4.18 4.43 4.66 4.73 4.61 4.37 4.15 3.95 3.88 3.67 3.36 3.21 3.09 2.90 2.75 2.63 2.41 2.24 2.20 2.18 1.83 1.56 1.29 1.13 1.18 1.19 1.21 1.29
1.22 1.42 1.63 1.80 2.10 2.49 2.74 3.03 3.29 3.33 3.24 3.68 4.23 4.64 4.90 4.89 4.95 5.00 5.08 5.01 4.59 4.23 3.94 3.65 3.48 3.27 3.09 2.95 2.88 2.74 2.62 2.43 2.26 2.14 2.23 2.11 1.85 1.48 1.31 1.19 1.17 1.21 1.22
1.12 1.32 1.53 1.88 1.98 2.26 2.53 2.78 3.11 3.48 3.78 4.21 4.73 5.28 5.55 5.67 5.57 5.27 5.04 4.71 4.28 3.90 3.47 3.23 3.22 3.07 2.87 2.70 2.50 2.36 2.30 2.26 2.18 2.12 1.99 1.92 1.85 1.71 1.54 1.38 1.34 1.34 1.29
1.02 1.12 1.25 1.54 1.81 2.06 2.30 2.59 2.91 3.32 3.96 4.76 5.33 5.71 5.97 5.93 5.52 5.06 4.49 4.05 3.70 3.39 3.10 2.89 2.90 2.82 2.56 2.30 2.04 1.89 1.82 1.83 1.90 1.91 1.86 1.77 1.71 1.56 1.45 1.41 1.37 1.36 1.31
1.10 1.11 1.16 1.37 1.60 1.75 1.98 2.30 2.73 3.06 3.60 4.32 4.94 5.26 5.49 5.44 5.09 4.47 3.93 3.54 3.15 2.84 2.57 2.31 2.16 2.04 1.86 1.75 1.64 1.51 1.48 1.48 1.56 1.61 1.59 1.58 1.58 1.54 1.51 1.44 1.34 1.36 1.44
1.17 1.14 1.11 1.21 1.35 1.48 1.70 1.92 2.27 2.73 3.09 3.47 4.03 4.22 4.29 4.14 3.77 3.50 3.27 2.89 2.51 2.19 1.92 1.72 1.59 1.52 1.45 1.40 1.39 1.36 1.33 1.26 1.25 1.26 1.31 1.34 1.31 1.31 1.40 1.49 1.52 1.47 1.41
1.06 1.04 1.02 1.11 1.28 1.40 1.58 1.71 1.92 2.30 2.61 2.73 2.91 2.92 2.87 2.81 2.67 2.48 2.25 2.00 1.76 1.60 1.45 1.29 1.21 1.19 1.21 1.19 1.21 1.18 1.12 1.04 0.97 0.93 0.98 1.04 1.05 1.14 1.30 1.41 1.56 1.63 1.49
1.04 1.02 0.99 1.04 1.16 1.25 1.40 1.48 1.50 1.65 1.75 1.82 1.90 1.97 1.97 1.87 1.84 1.77 1.60 1.44 1.28 1.14 1.06 0.97 0.95 0.92 0.88 0.84 0.84 0.84 0.86 0.88 0.88 0.84 0.83 0.86 0.88 0.98 1.10 1.20 1.34 1.51 1.52
1.04 1.04 1.02 1.02 1.01 1.04 1.13 1.23 1.25 1.25 1.25 1.28 1.27 1.35 1.36 1.27 1.18 1.10 1.04 0.93 0.83 0.73 0.69 0.66 0.65 0.65 0.67 0.64 0.64 0.68 0.73 0.75 0.78 0.81 0.76 0.74 0.74 0.80 0.88 0.97 1.07 1.23 1.36
1.13 1.08 1.04 0.99 0.93 0.89 0.90 0.98 1.02 1.05 1.09 1.10 1.08 1.08 1.05 0.95 0.88 0.83 0.76 0.66 0.60 0.57 0.56 0.55 0.54 0.53 0.55 0.60 0.67 0.70 0.73 0.78 0.76 0.75 0.73 0.70 0.69 0.71 0.74 0.80 0.90 1.02 1.13
1.14 1.07 1.00 0.99 0.92 0.88 0.83 0.85 0.86 0.82 0.87 0.91 0.97 0.99 0.92 0.85 0.79 0.72 0.65 0.61 0.55 0.53 0.55 0.56 0.52 0.48 0.46 0.50 0.58 0.63 0.65 0.73 0.74 0.73 0.73 0.69 0.68 0.70 0.71 0.74 0.79 0.91 1.04
1.28 1.16 1.02 0.93 0.91 0.89 0.86 0.84 0.82 0.78 0.78 0.73 0.73 0.77 0.75 0.71 0.67 0.58 0.53 0.50 0.48 0.48 0.47 0.45 0.44 0.42 0.42 0.42 0.44 0.49 0.53 0.60 0.65 0.67 0.74 0.75 0.72 0.70 0.70 0.74 0.78 0.89 1.00
1.28 1.14 1.03 0.96 0.89 0.86 0.86 0.84 0.80 0.71 0.69 0.67 0.65 0.66 0.64 0.63 0.63 0.56 0.52 0.46 0.43 0.42 0.39 0.35 0.33 0.34 0.33 0.32 0.31 0.32 0.37 0.42 0.47 0.52 0.66 0.73 0.71 0.70 0.74 0.78 0.82 0.88 1.00
1.29 1.24 1.13 1.01 0.86 0.78 0.77 0.77 0.78 0.72 0.66 0.66 0.68 0.68 0.61 0.58 0.61 0.62 0.55 0.49 0.44 0.38 0.36 0.32 0.27 0.27 0.25 0.25 0.25 0.26 0.27 0.34 0.39 0.42 0.52 0.58 0.62 0.64 0.68 0.69 0.75 0.86 1.00
1.53 1.49 1.33 1.15 0.99 0.87 0.82 0.79 0.78 0.70 0.62 0.62 0.70 0.74 0.70 0.66 0.67 0.69 0.65 0.56 0.49 0.43 0.34 0.29 0.27 0.25 0.21 0.23 0.23 0.25 0.30 0.36 0.43 0.49 0.52 0.50 0.52 0.51 0.50 0.56 0.63 0.75 0.91
1.59 1.47 1.35 1.22 1.10 1.03 0.93 0.88 0.82 0.73 0.69 0.70 0.69 0.73 0.74 0.75 0.71 0.65 0.65 0.60 0.52 0.44 0.38 0.31 0.29 0.28 0.21 0.18 0.17 0.20 0.30 0.41 0.48 0.52 0.52 0.44 0.43 0.52 0.55 0.56 0.57 0.66 0.76
1.75 1.68 1.49 1.34 1.18 1.03 0.94 0.85 0.76 0.73 0.74 0.76 0.73 0.67 0.64 0.61 0.58 0.58 0.60 0.57 0.51 0.44 0.41 0.34 0.29 0.30 0.20 0.16 0.15 0.17 0.25 0.32 0.35 0.36 0.42 0.51 0.54 0.48 0.49 0.51 0.62 0.70 0.80
1.67 1.61 1.48 1.37 1.25 1.08 0.94 0.85 0.79 0.74 0.73 0.72 0.67 0.59 0.51 0.49 0.49 0.52 0.54 0.50 0.47 0.44 0.39 0.34 0.32 0.33 0.26 0.18 0.15 0.17 0.25 0.29 0.28 0.25 0.29 0.35 0.40 0.39 0.44 0.55 0.72 0.78 0.88
1.18 1.17 1.15 1.12 1.06 0.93 0.81 0.78 0.77 0.70 0.64 0.60 0.54 0.47 0.43 0.42 0.44 0.45 0.46 0.44 0.42 0.38 0.34 0.32 0.33 0.31 0.27 0.18 0.14 0.15 0.21 0.28 0.26 0.29 0.33 0.31 0.27 0.31 0.40 0.58 0.78 0.91 0.96
0.97 0.92 0.89 0.91 0.88 0.77 0.72 0.73 0.70 0.65 0.52 0.44 0.44 0.44 0.43 0.42 0.40 0.41 0.43 0.41 0.37 0.37 0.35 0.36 0.35 0.30 0.23 0.16 0.10 0.10 0.16 0.21 0.26 0.33 0.37 0.36 0.30 0.31 0.36 0.51 0.71 0.88 0.93
1.02 0.94 0.86 0.78 0.69 0.65 0.70 0.73 0.66 0.49 0.40 0.39 0.42 0.44 0.41 0.35 0.32 0.39 0.43 0.38 0.40 0.41 0.42 0.41 0.36 0.29 0.21 0.15 0.11 0.09 0.08 0.12 0.28 0.42 0.39 0.36 0.35 0.35 0.42 0.56 0.73 0.87 1.05
0.96 0.91 0.78 0.68 0.56 0.52 0.56 0.59 0.48 0.34 0.32 0.39 0.45 0.44 0.38 0.39 0.36 0.37 0.38 0.37 0.38 0.35 0.33 0.34 0.32 0.29 0.25 0.20 0.14 0.11 0.10 0.13 0.24 0.38 0.40 0.39 0.38 0.48 0.68 0.80 0.91 1.05 1.25
0.74 0.67 0.63 0.57 0.47 0.39 0.37 0.35 0.27 0.26 0.31 0.39 0.41 0.40 0.41 0.42 0.42 0.38 0.28 0.26 0.28 0.26 0.25 0.28 0.30 0.32 0.31 0.24 0.18 0.19 0.20 0.21 0.26 0.36 0.48 0.54 0.57 0.73 0.94 1.10 1.19 1.27 1.30
0.53 0.50 0.51 0.48 0.35 0.28 0.25 0.20 0.18 0.22 0.30 0.33 0.35 0.35 0.36 0.37 0.43 0.38 0.23 0.16 0.14 0.11 0.15 0.20 0.22 0.28 0.28 0.18 0.16 0.18 0.21 0.24 0.27 0.34 0.51 0.66 0.71 0.84 0.99 1.13 1.21 1.26 1.23
0.42 0.43 0.41 0.37 0.29 0.25 0.22 0.17 0.14 0.18 0.28 0.31 0.28 0.22 0.21 0.25 0.27 0.31 0.27 0.14 0.06 0.04 0.05 0.07 0.10 0.12 0.15 0.13 0.12 0.14 0.19 0.23 0.31 0.40 0.62 0.73 0.73 0.80 0.90 1.01 1.09 1.08 1.04

GEFSMW_prec_meanprecacc_180.txt.gz
Total_Precipitation_Accumulation
1.00 1.15 1.60 2.08 2.43 2.90 3.18 3.13 2.90 2.93 3.04 3.13 2.95 3.10 3.34 3.64 3.87 3.79 3.69 3.63 3.58 3.52 3.52 3.54 3.51 3.39 3.33 3.19 3.01 2.85 2.76 2.58 2.37 2.31 2.04 1.74 1.53 1.46 1.43 1.46 1.52 1.50 1.48
1.03 1.27 1.69 1.99 2.39 2.74 2.88 3.12 3.18 3.17 3.01 3.34 3.58 3.79 4.08 4.22 4.46 4.71 4.79 4.65 4.42 4.19 3.99 3.91 3.71 3.41 3.27 3.16 2.97 2.81 2.67 2.43 2.27 2.23 2.20 1.85 1.59 1.32 1.17 1.23 1.24 1.28 1.39
1.26 1.52 1.80 1.96 2.20 2.58 2.81 3.08 3.34 3.39 3.30 3.72 4.26 4.68 4.95 4.94 4.99 5.05 5.12 5.06 4.64 4.27 3.97 3.68 3.51 3.31 3.13 3.00 2.93 2.79 2.67 2.47 2.30 2.18 2.28 2.16 1.89 1.52 1.34 1.24 1.24 1.28 1.31
1.18 1.41 1.63 2.00 2.08 2.36 2.63 2.86 3.19 3.54 3.83 4.25 4.78 5.33 5.59 5.70 5.60 5.30 5.07 4.76 4.33 3.94 3.51 3.27 3.24 3.08 2.89 2.74 2.55 2.40 2.33 2.29 2.22 2.16 2.03 1.97 1.90 1.75 1.59 1.43 1.41 1.41 1.38
1.10 1.19 1.34 1.63 1.89 2.13 2.38 2.67 2.97 3.35 3.99 4.78 5.35 5.72 5.99 5.95 5.55 5.08 4.51 4.07 3.73 3.41 3.13 2.91 2.92 2.83 2.58 2.34 2.12 1.92 1.84 1.86 1.94 1.95 1.91 1.83 1.76 1.60 1.51 1.49 1.43 1.41 1.38
1.17 1.19 1.27 1.48 1.68 1.84 2.06 2.36 2.77 3.09 3.62 4.34 4.96 5.28 5.50 5.46 5.10 4.49 3.95 3.57 3.17 2.85 2.58 2.32 2.17 2.06 1.88 1.77 1.67 1.56 1.50 1.50 1.59 1.65 1.63 1.62 1.61 1.58 1.55 1.51 1.40 1.41 1.50
1.22 1.20 1.21 1.32 1.49 1.60 1.78 1.99 2.32 2.76 3.12 3.50 4.05 4.24 4.31 4.15 3.79 3.51 3.29 2.91 2.53 2.20 1.93 1.73 1.60 1.53 1.46 1.43 1.43 1.40 1.36 1.28 1.26 1.28 1.34 1.36 1.33 1.35 1.45 1.56 1.58 1.51 1.44
1.12 1.12 1.11 1.20 1.39 1.53 1.68 1.80 1.99 2.35 2.66 2.77 2.93 2.94 2.89 2.82 2.69 2.50 2.27 2.02 1.77 1.62 1.48 1.32 1.22 1.21 1.24 1.23 1.24 1.22 1.15 1.05 0.98 0.95 1.00 1.06 1.06 1.17 1.33 1.45 1.59 1.66 1.51
1.11 1.11 1.10 1.13 1.25 1.35 1.49 1.54 1.55 1.70 1.80 1.87 1.94 2.00 2.00 1.88 1.86 1.80 1.62 1.47 1.31 1.17 1.09 1.00 0.98 0.96 0.92 0.88 0.87 0.87 0.88 0.89 0.89 0.86 0.85 0.88 0.90 1.00 1.12 1.22 1.38 1.54 1.55
1.10 1.11 1.10 1.12 1.09 1.10 1.18 1.29 1.31 1.32 1.32 1.34 1.32 1.40 1.40 1.31 1.22 1.14 1.08 0.99 0.88 0.78 0.74 0.70 0.69 0.71 0.73 0.70 0.67 0.70 0.75 0.77 0.81 0.82 0.78 0.76 0.78 0.84 0.91 0.99 1.10 1.26 1.39
1.18 1.13 1.10 1.04 0.97 0.93 0.93 1.01 1.07 1.10 1.13 1.14 1.12 1.13 1.12 1.03 0.93 0.88 0.82 0.73 0.67 0.63 0.60 0.61 0.60 0.60 0.62 0.65 0.70 0.71 0.74 0.80 0.79 0.77 0.75 0.73 0.72 0.75 0.78 0.84 0.93 1.06 1.18
1.17 1.11 1.05 1.03 0.97 0.91 0.85 0.87 0.89 0.86 0.90 0.94 1.01 1.05 0.98 0.92 0.85 0.77 0.71 0.67 0.60 0.58 0.59 0.61 0.59 0.54 0.52 0.56 0.62 0.65 0.66 0.75 0.77 0.76 0.76 0.72 0.70 0.72 0.73 0.77 0.82 0.95 1.09
1.31 1.18 1.06 0.99 0.94 0.91 0.88 0.86 0.85 0.81 0.82 0.77 0.77 0.84 0.82 0.78 0.73 0.63 0.58 0.54 0.52 0.53 0.52 0.51 0.51 0.50 0.48 0.48 0.48 0.51 0.55 0.63 0.69 0.71 0.77 0.78 0.76 0.73 0.73 0.76 0.82 0.93 1.05
1.31 1.16 1.06 0.98 0.91 0.88 0.88 0.86 0.81 0.73 0.72 0.70 0.69 0.72 0.71 0.69 0.69 0.61 0.56 0.49 0.46 0.46 0.45 0.41 0.40 0.44 0.42 0.37 0.35 0.38 0.41 0.46 0.50 0.55 0.69 0.76 0.74 0.73 0.78 0.82 0.87 0.93 1.05
1.33 1.28 1.16 1.03 0.88 0.80 0.79 0.78 0.79 0.73 0.67 0.68 0.70 0.72 0.67 0.63 0.67 0.67 0.60 0.52 0.48 0.43 0.44 0.41 0.35 0.36 0.33 0.29 0.30 0.31 0.30 0.37 0.41 0.44 0.54 0.61 0.64 0.66 0.70 0.73 0.80 0.91 1.05
1.59 1.53 1.35 1.17 1.00 0.88 0.82 0.80 0.78 0.70 0.63 0.64 0.72 0.77 0.75 0.72 0.73 0.76 0.72 0.64 0.57 0.50 0.43 0.39 0.36 0.33 0.28 0.27 0.26 0.28 0.32 0.37 0.44 0.50 0.52 0.51 0.53 0.53 0.51 0.58 0.66 0.79 0.97
1.64 1.51 1.37 1.23 1.11 1.04 0.94 0.89 0.83 0.74 0.71 0.72 0.72 0.75 0.78 0.80 0.78 0.74 0.73 0.70 0.62 0.55 0.48 0.39 0.36 0.35 0.26 0.21 0.19 0.22 0.31 0.41 0.48 0.53 0.53 0.44 0.44 0.53 0.56 0.57 0.59 0.70 0.82
1.77 1.69 1.50 1.35 1.19 1.04 0.95 0.87 0.77 0.74 0.76 0.78 0.75 0.69 0.67 0.68 0.64 0.63 0.66 0.64 0.59 0.54 0.49 0.39 0.32 0.32 0.21 0.16 0.16 0.19 0.26 0.33 0.36 0.37 0.43 0.51 0.54 0.48 0.50 0.52 0.63 0.71 0.82
1.69 1.62 1.49 1.39 1.26 1.10 0.95 0.86 0.80 0.75 0.74 0.73 0.68 0.60 0.53 0.54 0.54 0.56 0.57 0.54 0.52 0.50 0.42 0.36 0.33 0.34 0.26 0.18 0.15 0.18 0.26 0.29 0.28 0.26 0.29 0.36 0.40 0.39 0.45 0.55 0.73 0.78 0.89
1.22 1.20 1.17 1.14 1.08 0.95 0.82 0.80 0.78 0.71 0.65 0.61 0.54 0.48 0.45 0.47 0.48 0.48 0.48 0.47 0.46 0.42 0.35 0.33 0.33 0.31 0.27 0.18 0.15 0.16 0.22 0.28 0.27 0.29 0.33 0.31 0.27 0.31 0.41 0.59 0.79 0.92 0.97
1.01 0.95 0.91 0.93 0.90 0.79 0.73 0.74 0.71 0.66 0.53 0.45 0.44 0.44 0.44 0.46 0.44 0.43 0.45 0.43 0.39 0.38 0.36 0.36 0.35 0.30 0.23 0.16 0.11 0.11 0.16 0.22 0.27 0.33 0.38 0.36 0.30 0.31 0.37 0.52 0.72 0.89 0.94
1.07 0.97 0.88 0.80 0.70 0.68 0.72 0.74 0.66 0.50 0.41 0.40 0.42 0.45 0.43 0.39 0.36 0.41 0.45 0.40 0.41 0.42 0.42 0.41 0.36 0.29 0.21 0.15 0.12 0.09 0.09 0.13 0.29 0.43 0.39 0.36 0.36 0.35 0.42 0.57 0.74 0.88 1.06
1.01 0.94 0.81 0.69 0.57 0.55 0.59 0.62 0.49 0.34 0.33 0.40 0.46 0.46 0.40 0.44 0.41 0.38 0.39 0.38 0.40 0.37 0.34 0.35 0.32 0.30 0.25 0.20 0.14 0.12 0.11 0.14 0.24 0.38 0.40 0.39 0.38 0.48 0.68 0.81 0.92 1.06 1.25
0.80 0.71 0.66 0.59 0.48 0.42 0.39 0.37 0.28 0.26 0.32 0.40 0.43 0.42 0.43 0.47 0.47 0.40 0.29 0.27 0.29 0.27 0.26 0.28 0.30 0.32 0.32 0.24 0.18 0.19 0.20 0.22 0.27 0.36 0.48 0.54 0.57 0.73 0.94 1.10 1.20 1.28 1.31
0.60 0.55 0.55 0.49 0.37 0.30 0.26 0.21 0.19 0.22 0.30 0.34 0.36 0.37 0.39 0.41 0.45 0.39 0.24 0.16 0.14 0.11 0.15 0.20 0.22 0.29 0.28 0.18 0.16 0.18 0.21 0.24 0.28 0.34 0.52 0.66 0.71 0.84 1.00 1.14 1.22 1.26 1.25
0.49 0.49 0.45 0.39 0.32 0.27 0.23 0.17 0.14 0.19 0.29 0.32 0.29 0.23 0.23 0.27 0.29 0.31 0.27 0.14 0.06 0.04 0.05 0.07 0.10 0.12 0.15 0.13 0.12 0.15 0.20 0.24 0.31 0.41 0.63 0.74 0.74 0.81 0.90 1.01 1.10 1.10 1.06

GEFSMW_prec_meanprecacc_186.txt.gz
Total_Precipitation_Accumulation
1.07 1.23 1.69 2.24 2.63 3.07 3.33 3.25 3.01 3.04 3.15 3.21 3.03 3.21 3.44 3.73 3.95 3.86 3.75 3.68 3.63 3.58 3.58 3.61 3.59 3.46 3.39 3.24 3.05 2.89 2.80 2.61 2.40 2.33 2.06 1.76 1.56 1.49 1.45 1.48 1.54 1.51 1.49
1.09 1.35 1.78 2.09 2.50 2.82 2.96 3.20 3.28 3.27 3.10 3.41 3.65 3.86 4.15 4.28 4.52 4.75 4.83 4.70 4.46 4.23 4.04 3.97 3.79 3.50 3.33 3.21 3.01 2.85 2.71 2.47 2.29 2.26 2.23 1.87 1.61 1.35 1.19 1.26 1.27 1.30 1.41
1.33 1.58 1.87 2.03 2.27 2.66 2.88 3.15 3.42 3.48 3.38 3.79 4.31 4.73 4.99 4.98 5.04 5.09 5.16 5.11 4.69 4.32 4.02 3.74 3.58 3.39 3.21 3.05 2.97 2.83 2.70 2.50 2.33 2.22 2.32 2.20 1.93 1.55 1.37 1.26 1.27 1.32 1.36
1.23 1.45 1.67 2.05 2.15 2.44 2.70 2.94 3.26 3.61 3.90 4.31 4.81 5.37 5.63 5.74 5.65 5.34 5.10 4.78 4.36 3.97 3.54 3.32 3.31 3.16 2.96 2.78 2.59 2.44 2.37 2.32 2.24 2.19 2.06 2.01 1.93 1.80 1.63 1.47 1.45 1.46 1.43
1.13 1.21 1.36 1.68 1.96 2.21 2.45 2.74 3.04 3.42 4.05 4.83 5.38 5.76 6.03 5.99 5.58 5.10 4.52 4.08 3.73 3.42 3.14 2.94 2.97 2.88 2.62 2.38 2.16 1.95 1.88 1.88 1.95 1.96 1.92 1.85 1.79 1.63 1.55 1.54 1.48 1.45 1.42
1.18 1.21 1.29 1.53 1.77 1.93 2.14 2.43 2.82 3.15 3.68 4.38 5.01 5.32 5.53 5.48 5.13 4.52 3.97 3.57 3.18 2.86 2.59 2.33 2.20 2.09 1.91 1.80 1.72 1.60 1.53 1.52 1.61 1.66 1.64 1.63 1.64 1.62 1.59 1.57 1.47 1.45 1.53
1.23 1.22 1.23 1.37 1.56 1.69 1.87 2.08 2.40 2.83 3.19 3.55 4.09 4.27 4.33 4.17 3.81 3.53 3.31 2.92 2.54 2.22 1.96 1.76 1.63 1.56 1.50 1.48 1.48 1.44 1.39 1.30 1.29 1.30 1.35 1.37 1.35 1.38 1.49 1.61 1.66 1.57 1.47
1.14 1.14 1.13 1.26 1.46 1.61 1.78 1.90 2.09 2.45 2.75 2.84 2.99 2.98 2.92 2.85 2.71 2.53 2.29 2.05 1.80 1.65 1.52 1.37 1.27 1.25 1.28 1.26 1.27 1.24 1.17 1.08 1.02 0.98 1.02 1.07 1.08 1.20 1.37 1.50 1.66 1.73 1.55
1.13 1.13 1.13 1.19 1.32 1.44 1.59 1.64 1.65 1.79 1.90 1.97 2.01 2.06 2.05 1.92 1.89 1.82 1.64 1.50 1.35 1.23 1.16 1.08 1.05 1.01 0.97 0.92 0.90 0.90 0.91 0.93 0.94 0.89 0.87 0.89 0.91 1.02 1.15 1.26 1.42 1.60 1.60
1.12 1.14 1.14 1.17 1.15 1.17 1.24 1.34 1.36 1.38 1.40 1.42 1.37 1.45 1.46 1.37 1.27 1.19 1.14 1.05 0.97 0.91 0.89 0.84 0.80 0.78 0.79 0.74 0.70 0.72 0.78 0.81 0.84 0.85 0.81 0.78 0.79 0.85 0.93 1.01 1.13 1.29 1.43
1.20 1.16 1.13 1.06 1.00 0.96 0.95 1.04 1.10 1.14 1.18 1.18 1.17 1.21 1.21 1.12 1.01 0.94 0.89 0.82 0.78 0.76 0.71 0.68 0.65 0.63 0.65 0.68 0.71 0.73 0.75 0.81 0.80 0.79 0.77 0.74 0.74 0.78 0.80 0.86 0.96 1.08 1.20
1.20 1.13 1.08 1.06 0.99 0.93 0.86 0.89 0.91 0.88 0.93 0.98 1.08 1.14 1.08 1.01 0.92 0.83 0.77 0.74 0.68 0.65 0.63 0.65 0.62 0.57 0.56 0.59 0.64 0.67 0.68 0.76 0.78 0.77 0.77 0.74 0.72 0.76 0.76 0.79 0.85 0.97 1.11
1.33 1.21 1.09 1.02 0.96 0.92 0.90 0.87 0.86 0.83 0.85 0.80 0.81 0.90 0.88 0.84 0.78 0.67 0.61 0.57 0.56 0.57 0.56 0.54 0.53 0.53 0.51 0.51 0.52 0.54 0.57 0.65 0.71 0.73 0.78 0.79 0.78 0.76 0.75 0.78 0.84 0.96 1.07
1.33 1.19 1.09 1.01 0.93 0.89 0.89 0.87 0.83 0.75 0.76 0.74 0.75 0.78 0.76 0.75 0.74 0.66 0.59 0.52 0.49 0.48 0.47 0.43 0.43 0.47 0.46 0.41 0.39 0.42 0.46 0.51 0.55 0.58 0.71 0.77 0.76 0.75 0.79 0.83 0.88 0.94 1.07
1.36 1.30 1.18 1.06 0.90 0.81 0.80 0.80 0.81 0.76 0.71 0.73 0.76 0.81 0.75 0.70 0.73 0.73 0.65 0.56 0.51 0.46 0.46 0.43 0.39 0.41 0.39 0.36 0.37 0.37 0.37 0.42 0.45 0.47 0.56 0.63 0.66 0.68 0.72 0.75 0.82 0.93 1.07
1.61 1.56 1.38 1.20 1.02 0.89 0.83 0.81 0.80 0.72 0.65 0.69 0.80 0.84 0.83 0.80 0.81 0.83 0.78 0.69 0.60 0.54 0.46 0.42 0.39 0.39 0.36 0.37 0.35 0.35 0.37 0.41 0.47 0.53 0.55 0.53 0.56 0.55 0.53 0.60 0.67 0.81 0.99
1.67 1.54 1.40 1.26 1.13 1.06 0.95 0.89 0.84 0.75 0.72 0.74 0.77 0.81 0.83 0.87 0.85 0.81 0.78 0.73 0.66 0.59 0.52 0.43 0.42 0.42 0.36 0.31 0.28 0.29 0.36 0.46 0.52 0.56 0.55 0.46 0.46 0.56 0.58 0.59 0.60 0.71 0.83
1.80 1.72 1.53 1.38 1.22 1.06 0.96 0.87 0.78 0.75 0.78 0.80 0.77 0.72 0.70 0.71 0.67 0.66 0.70 0.68 0.65 0.60 0.54 0.46 0.41 0.41 0.31 0.24 0.23 0.26 0.31 0.37 0.40 0.40 0.45 0.53 0.56 0.50 0.51 0.54 0.64 0.72 0.83
1.72 1.64 1.51 1.42 1.30 1.13 0.98 0.88 0.82 0.76 0.76 0.75 0.70 0.61 0.55 0.56 0.55 0.58 0.60 0.58 0.59 0.55 0.48 0.42 0.40 0.41 0.32 0.22 0.19 0.23 0.30 0.34 0.31 0.28 0.31 0.37 0.41 0.40 0.46 0.57 0.74 0.79 0.89
1.25 1.23 1.20 1.17 1.11 0.99 0.86 0.84 0.81 0.72 0.66 0.62 0.56 0.49 0.46 0.48 0.50 0.50 0.54 0.52 0.50 0.43 0.37 0.35 0.36 0.33 0.30 0.21 0.18 0.19 0.24 0.31 0.28 0.30 0.34 0.32 0.27 0.32 0.42 0.60 0.79 0.92 0.97
1.05 0.99 0.95 0.97 0.94 0.83 0.78 0.78 0.73 0.67 0.54 0.46 0.45 0.45 0.45 0.48 0.46 0.46 0.49 0.48 0.41 0.39 0.37 0.37 0.36 0.30 0.23 0.17 0.12 0.12 0.17 0.23 0.28 0.33 0.38 0.36 0.30 0.31 0.38 0.53 0.73 0.90 0.94
1.11 1.01 0.93 0.85 0.76 0.73 0.77 0.78 0.69 0.51 0.42 0.40 0.43 0.45 0.44 0.41 0.39 0.44 0.48 0.42 0.42 0.42 0.43 0.43 0.37 0.29 0.22 0.16 0.12 0.10 0.10 0.13 0.29 0.43 0.39 0.36 0.36 0.35 0.42 0.57 0.75 0.89 1.06
1.04 0.98 0.85 0.74 0.62 0.60 0.66 0.67 0.53 0.35 0.33 0.41 0.46 0.46 0.41 0.47 0.45 0.42 0.41 0.39 0.40 0.37 0.35 0.35 0.33 0.30 0.26 0.21 0.15 0.12 0.12 0.14 0.25 0.38 0.41 0.40 0.38 0.48 0.69 0.81 0.92 1.07 1.25
0.83 0.74 0.70 0.63 0.53 0.47 0.45 0.42 0.31 0.28 0.32 0.41 0.44 0.43 0.45 0.52 0.51 0.43 0.30 0.27 0.29 0.27 0.26 0.29 0.31 0.32 0.32 0.24 0.19 0.19 0.21 0.22 0.27 0.38 0.49 0.55 0.58 0.74 0.95 1.11 1.21 1.29 1.31
0.62 0.57 0.58 0.54 0.42 0.36 0.33 0.26 0.22 0.25 0.32 0.35 0.38 0.39 0.43 0.46 0.48 0.40 0.24 0.17 0.15 0.12 0.15 0.20 0.22 0.29 0.28 0.19 0.17 0.18 0.22 0.25 0.29 0.35 0.53 0.67 0.72 0.85 1.00 1.15 1.23 1.27 1.26
0.51 0.51 0.48 0.44 0.37 0.33 0.30 0.23 0.18 0.21 0.31 0.34 0.31 0.27 0.29 0.31 0.30 0.32 0.27 0.15 0.06 0.05 0.05 0.07 0.10 0.13 0.15 0.13 0.12 0.15 0.20 0.25 0.33 0.42 0.64 0.75 0.75 0.81 0.91 1.02 1.11 1.10 1.07

GEFSMW_prec_meanprecacc_192.txt.gz
Total_Precipitation_Accumulation
1.08 1.25 1.73 2.27 2.65 3.10 3.38 3.30 3.09 3.12 3.24 3.30 3.11 3.28 3.50 3.78 4.00 3.91 3.79 3.73 3.68 3.64 3.63 3.66 3.65 3.53 3.44 3.29 3.09 2.92 2.83 2.64 2.44 2.37 2.09 1.79 1.58 1.52 1.48 1.52 1.59 1.57 1.54
1.10 1.37 1.82 2.12 2.52 2.85 2.99 3.23 3.32 3.33 3.16 3.47 3.69 3.90 4.20 4.35 4.58 4.81 4.89 4.77 4.53 4.30 4.08 4.01 3.84 3.55 3.38 3.25 3.05 2.90 2.75 2.50 2.33 2.30 2.27 1.90 1.64 1.38 1.22 1.29 1.31 1.36 1.47
1.34 1.60 1.89 2.05 2.30 2.68 2.91 3.18 3.46 3.53 3.43 3.83 4.35 4.76 5.04 5.04 5.12 5.17 5.24 5.19 4.76 4.38 4.07 3.78 3.63 3.44 3.25 3.09 3.01 2.88 2.75 2.54 2.36 2.25 2.36 2.25 1.97 1.59 1.41 1.29 1.30 1.37 1.42
1.24 1.46 1.68 2.06 2.17 2.46 2.73 2.97 3.30 3.66 3.94 4.35 4.85 5.42 5.69 5.80 5.72 5.42 5.17 4.84 4.40 4.02 3.59 3.36 3.35 3.20 3.00 2.83 2.62 2.47 2.41 2.36 2.28 2.22 2.09 2.05 1.99 1.84 1.68 1.51 1.49 1.51 1.49
1.14 1.22 1.38 1.70 1.98 2.24 2.48 2.77 3.08 3.47 4.09 4.86 5.43 5.81 6.09 6.04 5.64 5.16 4.56 4.12 3.76 3.45 3.17 2.98 3.00 2.92 2.66 2.42 2.19 2.00 1.92 1.93 2.00 2.00 1.96 1.89 1.83 1.68 1.61 1.59 1.53 1.50 1.48
1.19 1.22 1.31 1.55 1.79 1.97 2.18 2.46 2.86 3.18 3.71 4.42 5.05 5.38 5.59 5.53 5.17 4.55 4.01 3.62 3.23 2.90 2.63 2.36 2.23 2.12 1.95 1.84 1.76 1.65 1.59 1.57 1.67 1.72 1.68 1.68 1.68 1.66 1.65 1.62 1.53 1.53 1.60
1.24 1.23 1.24 1.38 1.58 1.71 1.90 2.12 2.45 2.88 3.22 3.58 4.13 4.33 4.39 4.21 3.84 3.57 3.36 2.98 2.61 2.29 2.01 1.80 1.68 1.61 1.55 1.52 1.51 1.49 1.44 1.35 1.34 1.36 1.40 1.42 1.40 1.43 1.54 1.67 1.72 1.65 1.55
1.14 1.15 1.14 1.26 1.48 1.63 1.80 1.94 2.14 2.49 2.80 2.90 3.05 3.04 2.97 2.90 2.75 2.56 2.34 2.10 1.85 1.70 1.58 1.44 1.33 1.30 1.32 1.30 1.31 1.30 1.23 1.13 1.07 1.03 1.06 1.12 1.12 1.24 1.43 1.55 1.72 1.81 1.63
1.13 1.14 1.13 1.20 1.34 1.46 1.61 1.67 1.70 1.84 1.94 2.03 2.08 2.11 2.08 1.95 1.92 1.86 1.68 1.53 1.38 1.27 1.22 1.14 1.10 1.05 1.01 0.97 0.94 0.95 0.97 0.99 0.99 0.94 0.91 0.93 0.96 1.07 1.20 1.30 1.49 1.68 1.68
1.13 1.15 1.16 1.20 1.18 1.20 1.27 1.37 1.38 1.40 1.43 1.46 1.44 1.52 1.51 1.40 1.30 1.23 1.18 1.08 1.00 0.94 0.94 0.90 0.85 0.85 0.87 0.81 0.74 0.76 0.82 0.85 0.88 0.89 0.84 0.82 0.84 0.89 0.97 1.05 1.18 1.36 1.51
1.22 1.18 1.16 1.12 1.04 1.00 0.99 1.07 1.13 1.17 1.21 1.22 1.22 1.26 1.25 1.16 1.05 0.98 0.92 0.85 0.82 0.79 0.75 0.72 0.68 0.68 0.70 0.72 0.75 0.75 0.77 0.83 0.83 0.82 0.81 0.79 0.78 0.81 0.83 0.89 0.99 1.13 1.26
1.21 1.15 1.11 1.10 1.02 0.97 0.91 0.94 0.96 0.92 0.96 1.02 1.11 1.17 1.12 1.06 0.99 0.91 0.83 0.77 0.70 0.66 0.65 0.67 0.64 0.59 0.57 0.61 0.67 0.70 0.70 0.79 0.80 0.79 0.79 0.76 0.76 0.80 0.79 0.81 0.88 1.01 1.15
1.35 1.23 1.13 1.06 0.99 0.96 0.94 0.93 0.92 0.88 0.88 0.83 0.84 0.93 0.92 0.90 0.87 0.77 0.68 0.61 0.58 0.58 0.58 0.55 0.54 0.54 0.52 0.52 0.54 0.57 0.60 0.68 0.74 0.75 0.80 0.81 0.81 0.79 0.77 0.81 0.87 0.99 1.11
1.35 1.21 1.12 1.05 0.96 0.93 0.94 0.91 0.87 0.80 0.79 0.76 0.78 0.82 0.80 0.79 0.82 0.74 0.64 0.55 0.50 0.50 0.49 0.44 0.44 0.49 0.48 0.42 0.41 0.45 0.49 0.55 0.58 0.61 0.73 0.79 0.79 0.78 0.82 0.86 0.91 0.98 1.11
1.40 1.32 1.20 1.09 0.93 0.84 0.84 0.83 0.83 0.78 0.73 0.75 0.79 0.85 0.79 0.74 0.78 0.79 0.69 0.59 0.53 0.47 0.47 0.45 0.41 0.43 0.41 0.38 0.39 0.40 0.40 0.46 0.49 0.51 0.59 0.65 0.68 0.70 0.74 0.77 0.85 0.97 1.11
1.64 1.57 1.40 1.22 1.05 0.92 0.86 0.84 0.83 0.74 0.67 0.70 0.81 0.87 0.85 0.82 0.83 0.86 0.81 0.71 0.63 0.55 0.48 0.44 0.41 0.41 0.38 0.38 0.36 0.37 0.39 0.44 0.51 0.56 0.58 0.55 0.57 0.57 0.56 0.63 0.71 0.85 1.03
1.69 1.55 1.41 1.27 1.15 1.08 0.98 0.92 0.86 0.77 0.74 0.76 0.79 0.83 0.85 0.88 0.86 0.83 0.80 0.75 0.68 0.61 0.54 0.45 0.44 0.44 0.37 0.32 0.29 0.30 0.38 0.48 0.55 0.60 0.59 0.49 0.48 0.58 0.60 0.61 0.63 0.73 0.85
1.81 1.73 1.54 1.39 1.23 1.08 0.99 0.90 0.80 0.77 0.80 0.82 0.79 0.75 0.73 0.74 0.69 0.68 0.72 0.70 0.67 0.61 0.56 0.48 0.44 0.44 0.34 0.27 0.26 0.29 0.33 0.40 0.43 0.44 0.50 0.58 0.60 0.54 0.56 0.57 0.68 0.76 0.86
1.72 1.65 1.52 1.43 1.32 1.16 1.02 0.92 0.85 0.79 0.78 0.77 0.72 0.64 0.57 0.58 0.57 0.60 0.62 0.60 0.60 0.57 0.51 0.44 0.42 0.43 0.35 0.26 0.24 0.28 0.34 0.38 0.36 0.32 0.36 0.42 0.46 0.44 0.52 0.63 0.79 0.84 0.94
1.26 1.23 1.20 1.18 1.12 1.02 0.90 0.89 0.86 0.76 0.70 0.66 0.58 0.53 0.48 0.50 0.51 0.53 0.58 0.56 0.52 0.46 0.40 0.38 0.38 0.36 0.33 0.25 0.21 0.23 0.29 0.36 0.33 0.35 0.40 0.39 0.33 0.36 0.47 0.66 0.85 0.98 1.02
1.06 1.00 0.97 0.99 0.97 0.87 0.83 0.84 0.79 0.72 0.58 0.50 0.49 0.49 0.50 0.51 0.49 0.50 0.54 0.50 0.43 0.41 0.39 0.39 0.38 0.33 0.26 0.21 0.16 0.16 0.21 0.27 0.32 0.38 0.43 0.42 0.34 0.35 0.41 0.57 0.76 0.93 0.97
1.12 1.03 0.95 0.87 0.79 0.77 0.82 0.84 0.75 0.56 0.46 0.45 0.48 0.51 0.48 0.44 0.43 0.49 0.51 0.44 0.43 0.43 0.45 0.44 0.38 0.31 0.23 0.17 0.14 0.11 0.12 0.15 0.32 0.45 0.42 0.39 0.38 0.37 0.44 0.59 0.76 0.90 1.08
1.06 1.00 0.87 0.76 0.64 0.63 0.70 0.73 0.59 0.41 0.38 0.43 0.51 0.51 0.45 0.51 0.49 0.45 0.43 0.40 0.41 0.38 0.36 0.37 0.34 0.31 0.27 0.22 0.16 0.13 0.13 0.15 0.26 0.39 0.43 0.41 0.40 0.50 0.71 0.83 0.94 1.08 1.27
0.85 0.77 0.72 0.65 0.55 0.50 0.48 0.46 0.37 0.34 0.39 0.46 0.48 0.47 0.48 0.57 0.55 0.45 0.31 0.29 0.30 0.28 0.28 0.30 0.32 0.33 0.33 0.26 0.20 0.21 0.22 0.23 0.29 0.39 0.51 0.57 0.60 0.75 0.96 1.12 1.22 1.30 1.33
0.65 0.60 0.60 0.56 0.44 0.39 0.36 0.30 0.26 0.30 0.38 0.41 0.44 0.44 0.48 0.50 0.50 0.41 0.26 0.18 0.16 0.13 0.16 0.21 0.23 0.30 0.30 0.20 0.18 0.20 0.23 0.26 0.30 0.36 0.54 0.69 0.73 0.86 1.01 1.15 1.23 1.28 1.27
0.53 0.53 0.50 0.46 0.39 0.35 0.33 0.28 0.22 0.25 0.35 0.40 0.37 0.33 0.34 0.34 0.32 0.34 0.28 0.15 0.07 0.05 0.05 0.07 0.11 0.14 0.16 0.14 0.13 0.17 0.21 0.25 0.33 0.42 0.65 0.76 0.76 0.82 0.92 1.03 1.12 1.12 1.08

GEFSMW_prec_meanprecacc_198.txt.gz
Total_Precipitation_Accumulation
1.09 1.26 1.74 2.28 2.66 3.11 3.39 3.33 3.13 3.17 3.30 3.36 3.16 3.33 3.56 3.83 4.06 3.96 3.84 3.78 3.74 3.71 3.70 3.72 3.70 3.58 3.49 3.34 3.14 2.99 2.89 2.70 2.50 2.43 2.14 1.83 1.61 1.55 1.52 1.56 1.64 1.63 1.60
1.11 1.38 1.82 2.12 2.52 2.86 3.01 3.26 3.36 3.38 3.22 3.52 3.73 3.94 4.26 4.40 4.64 4.87 4.95 4.84 4.59 4.37 4.14 4.07 3.90 3.60 3.43 3.30 3.10 2.95 2.81 2.56 2.41 2.37 2.34 1.97 1.69 1.42 1.26 1.34 1.36 1.42 1.54
1.35 1.61 1.90 2.06 2.31 2.71 2.95 3.23 3.50 3.58 3.49 3.88 4.40 4.81 5.11 5.11 5.19 5.24 5.30 5.26 4.82 4.43 4.11 3.83 3.67 3.49 3.31 3.15 3.06 2.94 2.81 2.60 2.42 2.32 2.44 2.32 2.04 1.67 1.48 1.35 1.36 1.43 1.48
1.25 1.47 1.68 2.07 2.19 2.50 2.77 3.03 3.34 3.71 4.00 4.41 4.89 5.46 5.73 5.84 5.76 5.47 5.22 4.89 4.45 4.06 3.62 3.40 3.39 3.25 3.05 2.88 2.67 2.53 2.47 2.42 2.33 2.27 2.16 2.12 2.07 1.93 1.76 1.57 1.55 1.56 1.55
1.18 1.25 1.39 1.71 2.00 2.28 2.54 2.83 3.12 3.51 4.16 4.93 5.47 5.85 6.12 6.09 5.69 5.20 4.61 4.16 3.80 3.48 3.21 3.02 3.04 2.96 2.71 2.48 2.25 2.06 1.99 1.99 2.06 2.07 2.02 1.95 1.91 1.77 1.69 1.65 1.58 1.55 1.53
1.24 1.26 1.34 1.57 1.83 2.00 2.23 2.55 2.94 3.25 3.78 4.52 5.13 5.43 5.65 5.59 5.22 4.60 4.07 3.68 3.28 2.95 2.66 2.40 2.28 2.16 2.00 1.90 1.81 1.70 1.65 1.64 1.74 1.80 1.77 1.76 1.77 1.75 1.74 1.71 1.59 1.58 1.64
1.28 1.27 1.27 1.41 1.62 1.76 1.97 2.20 2.52 2.94 3.28 3.67 4.23 4.41 4.46 4.29 3.91 3.64 3.42 3.05 2.66 2.35 2.06 1.85 1.73 1.66 1.61 1.57 1.56 1.53 1.49 1.40 1.41 1.44 1.48 1.51 1.49 1.53 1.65 1.78 1.79 1.71 1.60
1.18 1.19 1.18 1.32 1.53 1.67 1.84 1.99 2.19 2.55 2.85 2.97 3.13 3.14 3.07 3.00 2.84 2.65 2.40 2.17 1.94 1.79 1.66 1.50 1.39 1.36 1.38 1.34 1.36 1.34 1.28 1.19 1.14 1.10 1.15 1.21 1.21 1.34 1.53 1.65 1.81 1.87 1.67
1.16 1.16 1.16 1.25 1.43 1.55 1.66 1.72 1.75 1.89 1.98 2.08 2.15 2.19 2.16 2.03 1.99 1.93 1.75 1.61 1.46 1.34 1.31 1.24 1.17 1.11 1.06 1.01 1.00 1.00 1.02 1.05 1.07 1.01 0.99 1.02 1.04 1.15 1.29 1.40 1.59 1.77 1.74
1.16 1.18 1.19 1.23 1.22 1.27 1.35 1.41 1.42 1.44 1.46 1.49 1.47 1.56 1.56 1.45 1.36 1.30 1.25 1.16 1.08 1.00 1.01 0.97 0.90 0.89 0.92 0.87 0.81 0.81 0.86 0.90 0.95 0.97 0.92 0.91 0.93 0.97 1.03 1.11 1.25 1.43 1.57
1.25 1.20 1.19 1.15 1.08 1.05 1.06 1.14 1.21 1.23 1.26 1.26 1.26 1.30 1.29 1.20 1.10 1.04 0.99 0.93 0.89 0.85 0.80 0.76 0.72 0.72 0.75 0.77 0.80 0.79 0.80 0.86 0.87 0.87 0.86 0.85 0.86 0.90 0.89 0.94 1.04 1.18 1.32
1.24 1.17 1.13 1.14 1.07 1.02 0.96 1.01 1.04 1.00 1.04 1.08 1.17 1.22 1.17 1.12 1.05 0.97 0.90 0.86 0.77 0.72 0.70 0.71 0.67 0.62 0.60 0.64 0.69 0.73 0.73 0.81 0.83 0.82 0.84 0.82 0.82 0.87 0.86 0.88 0.93 1.05 1.20
1.37 1.26 1.15 1.09 1.04 1.02 1.01 1.00 0.99 0.95 0.94 0.89 0.90 0.99 0.99 0.97 0.93 0.84 0.76 0.70 0.65 0.63 0.61 0.58 0.57 0.57 0.54 0.54 0.56 0.59 0.62 0.70 0.76 0.78 0.85 0.86 0.86 0.84 0.83 0.86 0.92 1.04 1.16
1.37 1.23 1.16 1.09 1.01 0.97 1.00 0.99 0.93 0.85 0.84 0.81 0.82 0.87 0.88 0.88 0.90 0.83 0.73 0.63 0.56 0.54 0.52 0.47 0.47 0.52 0.50 0.44 0.43 0.46 0.51 0.58 0.62 0.65 0.78 0.85 0.84 0.84 0.87 0.90 0.95 1.03 1.17
1.42 1.35 1.23 1.12 0.96 0.87 0.88 0.88 0.86 0.81 0.78 0.80 0.83 0.90 0.85 0.82 0.87 0.90 0.80 0.68 0.59 0.52 0.51 0.48 0.43 0.46 0.43 0.39 0.40 0.42 0.42 0.50 0.53 0.55 0.63 0.70 0.71 0.73 0.78 0.81 0.89 1.01 1.16
1.66 1.59 1.42 1.25 1.07 0.96 0.92 0.90 0.86 0.77 0.71 0.74 0.85 0.91 0.90 0.88 0.89 0.94 0.89 0.79 0.69 0.61 0.52 0.47 0.44 0.44 0.40 0.39 0.37 0.39 0.42 0.48 0.56 0.62 0.63 0.59 0.60 0.59 0.58 0.65 0.74 0.89 1.08
1.72 1.57 1.43 1.29 1.17 1.11 1.02 0.99 0.92 0.81 0.78 0.80 0.83 0.88 0.90 0.95 0.95 0.92 0.88 0.84 0.74 0.66 0.58 0.48 0.48 0.48 0.40 0.34 0.31 0.32 0.40 0.51 0.60 0.66 0.65 0.53 0.51 0.61 0.64 0.65 0.67 0.78 0.89
1.85 1.77 1.57 1.42 1.26 1.11 1.02 0.94 0.87 0.82 0.84 0.85 0.83 0.78 0.77 0.79 0.77 0.81 0.86 0.81 0.74 0.66 0.59 0.51 0.48 0.48 0.36 0.30 0.28 0.31 0.36 0.44 0.47 0.49 0.55 0.63 0.65 0.58 0.60 0.62 0.73 0.82 0.92
1.75 1.68 1.55 1.46 1.34 1.18 1.04 0.95 0.89 0.83 0.81 0.80 0.75 0.67 0.62 0.64 0.63 0.68 0.75 0.73 0.70 0.62 0.54 0.47 0.47 0.47 0.38 0.30 0.26 0.29 0.36 0.41 0.38 0.35 0.39 0.46 0.50 0.48 0.55 0.67 0.83 0.89 1.00
1.29 1.27 1.24 1.21 1.15 1.04 0.93 0.92 0.90 0.80 0.73 0.68 0.61 0.56 0.53 0.56 0.58 0.61 0.67 0.66 0.64 0.53 0.44 0.41 0.42 0.40 0.38 0.29 0.24 0.26 0.31 0.39 0.36 0.38 0.43 0.43 0.37 0.40 0.51 0.70 0.89 1.04 1.08
1.09 1.03 1.00 1.02 1.00 0.89 0.86 0.88 0.85 0.77 0.62 0.52 0.51 0.52 0.55 0.57 0.56 0.61 0.65 0.60 0.53 0.49 0.44 0.43 0.42 0.37 0.30 0.24 0.19 0.19 0.24 0.31 0.36 0.41 0.47 0.47 0.40 0.38 0.44 0.62 0.82 0.99 1.03
1.14 1.05 0.98 0.92 0.84 0.80 0.85 0.88 0.79 0.61 0.49 0.47 0.51 0.54 0.54 0.51 0.50 0.58 0.63 0.55 0.52 0.50 0.50 0.49 0.43 0.35 0.27 0.21 0.17 0.14 0.13 0.17 0.34 0.48 0.45 0.43 0.41 0.39 0.46 0.61 0.78 0.92 1.10
1.08 1.03 0.90 0.80 0.69 0.67 0.74 0.76 0.63 0.45 0.41 0.46 0.55 0.56 0.52 0.59 0.58 0.55 0.53 0.51 0.50 0.44 0.41 0.41 0.38 0.35 0.30 0.25 0.18 0.15 0.14 0.16 0.28 0.41 0.45 0.43 0.40 0.51 0.71 0.84 0.95 1.10 1.30
0.89 0.81 0.76 0.69 0.59 0.55 0.53 0.50 0.40 0.38 0.43 0.52 0.54 0.53 0.56 0.66 0.64 0.53 0.42 0.38 0.37 0.33 0.32 0.34 0.35 0.36 0.35 0.28 0.22 0.22 0.23 0.25 0.30 0.40 0.52 0.58 0.60 0.76 0.97 1.13 1.23 1.33 1.36
0.69 0.63 0.63 0.59 0.48 0.42 0.39 0.32 0.29 0.34 0.44 0.48 0.51 0.52 0.54 0.58 0.59 0.48 0.33 0.27 0.21 0.17 0.20 0.24 0.26 0.32 0.32 0.22 0.20 0.22 0.25 0.28 0.31 0.37 0.56 0.71 0.75 0.88 1.03 1.17 1.25 1.31 1.30
0.56 0.55 0.53 0.49 0.41 0.37 0.36 0.30 0.25 0.30 0.42 0.46 0.43 0.39 0.40 0.40 0.39 0.38 0.33 0.20 0.10 0.07 0.07 0.09 0.13 0.16 0.17 0.15 0.14 0.18 0.22 0.26 0.33 0.44 0.68 0.79 0.79 0.85 0.94 1.05 1.15 1.15 1.11

GEFSMW_prec_meanprecacc_204.txt.gz
Total_Precipitation_Accumulation
1.13 1.31 1.78 2.32 2.70 3.15 3.44 3.37 3.16 3.21 3.35 3.40 3.21 3.38 3.62 3.90 4.15 4.08 3.97 3.89 3.81 3.76 3.76 3.77 3.76 3.63 3.55 3.39 3.20 3.06 2.96 2.75 2.54 2.47 2.18 1.87 1.64 1.58 1.54 1.58 1.66 1.65 1.63
1.20 1.47 1.91 2.20 2.57 2.90 3.05 3.30 3.39 3.43 3.27 3.57 3.80 4.02 4.33 4.48 4.76 5.00 5.07 4.92 4.66 4.44 4.21 4.14 3.95 3.66 3.48 3.35 3.14 2.99 2.85 2.60 2.45 2.41 2.38 2.00 1.71 1.44 1.28 1.36 1.38 1.45 1.57
1.46 1.75 2.02 2.14 2.36 2.76 3.00 3.28 3.57 3.67 3.59 4.00 4.51 4.90 5.18 5.19 5.27 5.31 5.37 5.33 4.90 4.50 4.18 3.89 3.73 3.55 3.36 3.19 3.09 2.97 2.85 2.63 2.46 2.37 2.50 2.36 2.07 1.70 1.51 1.38 1.40 1.47 1.52
1.35 1.63 1.89 2.21 2.26 2.54 2.81 3.06 3.41 3.79 4.08 4.49 4.96 5.52 5.77 5.89 5.81 5.52 5.28 4.96 4.54 4.15 3.71 3.48 3.46 3.30 3.09 2.92 2.70 2.56 2.51 2.45 2.36 2.32 2.21 2.19 2.13 1.98 1.80 1.61 1.61 1.63 1.60
1.33 1.47 1.60 1.88 2.10 2.34 2.59 2.88 3.19 3.60 4.25 5.01 5.53 5.89 6.16 6.14 5.74 5.25 4.66 4.22 3.88 3.57 3.30 3.11 3.11 3.01 2.76 2.53 2.29 2.09 2.01 2.02 2.10 2.12 2.09 2.02 1.97 1.83 1.75 1.68 1.61 1.58 1.57
1.44 1.53 1.62 1.84 2.02 2.12 2.33 2.68 3.08 3.37 3.89 4.61 5.20 5.48 5.70 5.65 5.28 4.66 4.13 3.75 3.36 3.03 2.74 2.47 2.35 2.23 2.07 1.96 1.86 1.73 1.67 1.66 1.78 1.86 1.83 1.82 1.82 1.79 1.79 1.75 1.62 1.60 1.67
1.56 1.55 1.56 1.66 1.85 1.94 2.12 2.37 2.66 3.04 3.37 3.74 4.30 4.47 4.52 4.35 3.98 3.73 3.50 3.13 2.74 2.41 2.13 1.93 1.82 1.76 1.70 1.64 1.61 1.56 1.51 1.43 1.45 1.48 1.52 1.55 1.52 1.56 1.69 1.82 1.83 1.75 1.63
1.40 1.41 1.37 1.56 1.80 1.98 2.08 2.16 2.32 2.67 2.99 3.08 3.23 3.22 3.16 3.09 2.92 2.71 2.46 2.23 2.01 1.87 1.74 1.59 1.49 1.46 1.46 1.41 1.40 1.36 1.29 1.21 1.16 1.12 1.18 1.24 1.24 1.38 1.58 1.70 1.86 1.91 1.71
1.26 1.31 1.32 1.41 1.61 1.83 1.91 1.95 1.96 2.04 2.10 2.18 2.24 2.26 2.25 2.11 2.06 1.99 1.79 1.66 1.53 1.43 1.41 1.35 1.27 1.17 1.10 1.05 1.04 1.03 1.04 1.07 1.08 1.03 1.01 1.04 1.07 1.19 1.32 1.44 1.64 1.83 1.78
1.26 1.27 1.30 1.35 1.33 1.38 1.47 1.58 1.64 1.64 1.57 1.58 1.57 1.63 1.63 1.52 1.42 1.35 1.28 1.20 1.14 1.09 1.11 1.06 0.99 0.96 0.97 0.91 0.85 0.84 0.88 0.91 0.96 0.98 0.92 0.92 0.94 0.99 1.05 1.13 1.28 1.47 1.62
1.31 1.26 1.25 1.23 1.14 1.09 1.10 1.22 1.34 1.42 1.38 1.32 1.31 1.34 1.33 1.25 1.15 1.10 1.04 0.99 0.96 0.93 0.89 0.86 0.83 0.81 0.81 0.80 0.82 0.80 0.81 0.87 0.88 0.88 0.87 0.86 0.87 0.92 0.92 0.96 1.06 1.20 1.35
1.30 1.22 1.17 1.19 1.12 1.05 0.99 1.05 1.13 1.10 1.12 1.13 1.19 1.25 1.20 1.16 1.10 1.03 0.97 0.94 0.86 0.81 0.79 0.80 0.76 0.68 0.65 0.68 0.72 0.74 0.74 0.82 0.83 0.83 0.85 0.83 0.84 0.88 0.88 0.90 0.95 1.07 1.23
1.44 1.30 1.19 1.14 1.11 1.07 1.04 1.04 1.06 1.01 0.98 0.93 0.94 1.02 1.03 1.01 0.98 0.90 0.83 0.80 0.77 0.75 0.73 0.68 0.66 0.64 0.60 0.61 0.61 0.62 0.64 0.71 0.77 0.79 0.85 0.88 0.87 0.86 0.84 0.88 0.94 1.05 1.18
1.43 1.29 1.21 1.15 1.07 1.03 1.04 1.04 0.99 0.90 0.87 0.85 0.86 0.91 0.91 0.92 0.94 0.88 0.81 0.76 0.70 0.65 0.61 0.55 0.54 0.60 0.58 0.51 0.49 0.51 0.54 0.60 0.63 0.66 0.79 0.86 0.86 0.85 0.90 0.93 0.98 1.05 1.20
1.45 1.39 1.28 1.16 1.01 0.92 0.92 0.92 0.89 0.85 0.80 0.82 0.85 0.93 0.88 0.84 0.90 0.93 0.84 0.74 0.69 0.64 0.62 0.56 0.51 0.54 0.52 0.46 0.46 0.46 0.46 0.52 0.55 0.57 0.65 0.71 0.74 0.75 0.81 0.84 0.92 1.05 1.19
1.68 1.62 1.46 1.29 1.12 1.01 0.96 0.94 0.90 0.80 0.72 0.75 0.87 0.94 0.93 0.91 0.93 0.96 0.91 0.83 0.75 0.70 0.65 0.59 0.55 0.54 0.47 0.44 0.41 0.42 0.45 0.51 0.58 0.65 0.66 0.61 0.62 0.60 0.59 0.66 0.76 0.91 1.10
1.74 1.60 1.46 1.33 1.22 1.16 1.05 1.02 0.97 0.84 0.79 0.81 0.84 0.90 0.93 0.97 0.98 0.96 0.93 0.89 0.83 0.78 0.67 0.58 0.56 0.55 0.45 0.38 0.33 0.34 0.43 0.54 0.63 0.69 0.67 0.55 0.53 0.63 0.64 0.65 0.69 0.80 0.92
1.87 1.79 1.59 1.43 1.28 1.13 1.04 0.97 0.91 0.84 0.85 0.87 0.84 0.80 0.80 0.81 0.80 0.86 0.91 0.88 0.82 0.75 0.67 0.58 0.55 0.53 0.39 0.33 0.31 0.33 0.39 0.46 0.49 0.51 0.58 0.66 0.67 0.60 0.62 0.63 0.75 0.83 0.94
1.77 1.71 1.57 1.48 1.36 1.20 1.06 0.97 0.92 0.87 0.83 0.81 0.76 0.68 0.64 0.66 0.67 0.73 0.83 0.87 0.81 0.70 0.62 0.56 0.53 0.51 0.40 0.33 0.30 0.32 0.39 0.43 0.40 0.37 0.41 0.48 0.52 0.50 0.58 0.69 0.86 0.91 1.02
1.32 1.29 1.26 1.23 1.16 1.06 0.95 0.94 0.92 0.83 0.76 0.69 0.62 0.57 0.55 0.58 0.61 0.65 0.74 0.79 0.78 0.65 0.53 0.48 0.47 0.44 0.41 0.32 0.27 0.29 0.34 0.41 0.39 0.41 0.47 0.46 0.40 0.42 0.53 0.72 0.92 1.06 1.11
1.10 1.04 1.01 1.03 1.01 0.92 0.88 0.90 0.86 0.79 0.64 0.53 0.52 0.54 0.57 0.60 0.58 0.65 0.72 0.69 0.63 0.58 0.51 0.48 0.46 0.40 0.32 0.27 0.22 0.22 0.26 0.33 0.38 0.43 0.49 0.50 0.43 0.40 0.45 0.63 0.82 1.00 1.04
1.15 1.06 0.99 0.93 0.87 0.84 0.88 0.90 0.81 0.63 0.51 0.49 0.53 0.57 0.57 0.55 0.53 0.63 0.70 0.62 0.58 0.55 0.55 0.52 0.45 0.37 0.29 0.23 0.19 0.15 0.15 0.19 0.36 0.49 0.46 0.44 0.42 0.40 0.46 0.61 0.79 0.93 1.11
1.08 1.03 0.91 0.82 0.74 0.71 0.76 0.78 0.65 0.47 0.43 0.49 0.58 0.60 0.56 0.63 0.62 0.58 0.57 0.55 0.56 0.48 0.44 0.43 0.39 0.36 0.32 0.26 0.19 0.16 0.15 0.18 0.29 0.43 0.46 0.44 0.42 0.52 0.72 0.84 0.96 1.11 1.30
0.90 0.82 0.76 0.70 0.64 0.58 0.55 0.52 0.42 0.40 0.46 0.55 0.57 0.56 0.59 0.70 0.68 0.56 0.45 0.41 0.40 0.37 0.35 0.36 0.36 0.36 0.36 0.29 0.22 0.23 0.23 0.25 0.31 0.41 0.54 0.59 0.62 0.78 0.98 1.14 1.24 1.33 1.37
0.70 0.63 0.63 0.60 0.51 0.46 0.41 0.34 0.30 0.36 0.47 0.50 0.53 0.53 0.56 0.61 0.63 0.51 0.36 0.31 0.26 0.21 0.23 0.26 0.27 0.33 0.33 0.22 0.21 0.22 0.25 0.29 0.32 0.39 0.57 0.72 0.77 0.90 1.04 1.18 1.26 1.32 1.31
0.57 0.56 0.53 0.50 0.44 0.41 0.37 0.31 0.27 0.32 0.44 0.48 0.45 0.41 0.43 0.44 0.44 0.42 0.37 0.24 0.13 0.10 0.10 0.11 0.14 0.17 0.18 0.16 0.15 0.18 0.23 0.27 0.35 0.46 0.70 0.82 0.81 0.87 0.96 1.08 1.17 1.16 1.13

GEFSMW_prec_meanprecacc_210.txt.gz
Total_Precipitation_Accumulation
1.16 1.34 1.83 2.39 2.78 3.23 3.54 3.49 3.27 3.31 3.43 3.48 3.30 3.47 3.69 3.96 4.20 4.13 4.01 3.93 3.86 3.82 3.83 3.85 3.83 3.71 3.62 3.47 3.28 3.14 3.01 2.80 2.60 2.54 2.24 1.90 1.66 1.60 1.56 1.60 1.68 1.68 1.66
1.23 1.50 1.96 2.28 2.68 3.00 3.14 3.41 3.50 3.53 3.36 3.66 3.90 4.11 4.39 4.52 4.79 5.04 5.11 4.97 4.73 4.51 4.30 4.24 4.04 3.73 3.54 3.40 3.20 3.05 2.90 2.64 2.49 2.46 2.44 2.05 1.74 1.46 1.30 1.38 1.40 1.46 1.60
1.50 1.79 2.08 2.23 2.47 2.87 3.11 3.38 3.66 3.77 3.68 4.09 4.58 4.97 5.23 5.22 5.30 5.35 5.40 5.37 4.96 4.58 4.28 3.98 3.81 3.62 3.43 3.26 3.16 3.03 2.90 2.67 2.50 2.41 2.55 2.41 2.10 1.71 1.52 1.40 1.41 1.48 1.54
1.39 1.68 1.95 2.30 2.37 2.67 2.96 3.21 3.55 3.93 4.21 4.60 5.06 5.60 5.85 5.95 5.86 5.56 5.31 5.01 4.60 4.23 3.79 3.56 3.54 3.38 3.17 2.99 2.77 2.63 2.57 2.50 2.41 2.36 2.25 2.23 2.16 2.01 1.81 1.62 1.62 1.64 1.61
1.37 1.52 1.66 1.96 2.22 2.49 2.75 3.03 3.35 3.76 4.39 5.14 5.66 6.04 6.30 6.22 5.79 5.30 4.71 4.26 3.94 3.64 3.36 3.16 3.18 3.09 2.84 2.61 2.37 2.18 2.09 2.09 2.15 2.17 2.13 2.05 2.00 1.85 1.76 1.69 1.62 1.59 1.58
1.49 1.59 1.69 1.93 2.13 2.26 2.48 2.81 3.22 3.53 4.04 4.76 5.38 5.66 5.83 5.73 5.33 4.71 4.17 3.80 3.41 3.08 2.77 2.51 2.39 2.28 2.13 2.02 1.92 1.80 1.74 1.73 1.83 1.89 1.85 1.84 1.85 1.82 1.81 1.76 1.63 1.61 1.68
1.62 1.61 1.62 1.75 1.94 2.06 2.24 2.51 2.81 3.19 3.51 3.91 4.49 4.59 4.63 4.44 4.04 3.77 3.54 3.17 2.78 2.44 2.15 1.96 1.85 1.78 1.73 1.67 1.64 1.60 1.55 1.46 1.49 1.52 1.55 1.57 1.55 1.59 1.71 1.84 1.84 1.76 1.64
1.44 1.46 1.45 1.65 1.87 2.07 2.21 2.32 2.51 2.85 3.15 3.24 3.36 3.33 3.25 3.17 2.99 2.76 2.50 2.26 2.04 1.89 1.77 1.63 1.53 1.49 1.49 1.45 1.45 1.42 1.33 1.25 1.22 1.17 1.21 1.27 1.27 1.41 1.60 1.72 1.88 1.93 1.72
1.30 1.36 1.38 1.48 1.67 1.93 2.04 2.10 2.15 2.28 2.29 2.30 2.32 2.32 2.31 2.18 2.12 2.05 1.84 1.69 1.57 1.46 1.44 1.39 1.34 1.25 1.18 1.12 1.11 1.09 1.08 1.10 1.11 1.06 1.03 1.06 1.09 1.20 1.34 1.46 1.68 1.87 1.81
1.31 1.32 1.37 1.43 1.41 1.47 1.56 1.67 1.77 1.85 1.78 1.71 1.64 1.67 1.68 1.59 1.49 1.40 1.33 1.24 1.18 1.13 1.15 1.11 1.06 1.05 1.06 0.99 0.91 0.87 0.90 0.93 0.97 1.00 0.94 0.93 0.95 1.00 1.06 1.15 1.30 1.50 1.65
1.34 1.29 1.30 1.29 1.21 1.15 1.16 1.27 1.40 1.53 1.53 1.43 1.38 1.38 1.37 1.32 1.23 1.16 1.09 1.04 1.00 0.96 0.93 0.92 0.89 0.87 0.87 0.86 0.87 0.84 0.84 0.89 0.90 0.90 0.88 0.86 0.87 0.92 0.92 0.96 1.07 1.21 1.38
1.32 1.25 1.22 1.26 1.19 1.11 1.04 1.11 1.18 1.15 1.19 1.20 1.24 1.28 1.23 1.19 1.14 1.09 1.04 1.00 0.90 0.85 0.82 0.83 0.79 0.72 0.70 0.74 0.79 0.81 0.80 0.88 0.87 0.85 0.86 0.84 0.84 0.89 0.88 0.91 0.96 1.09 1.26
1.45 1.32 1.22 1.19 1.17 1.10 1.07 1.08 1.10 1.04 1.01 0.98 0.97 1.04 1.06 1.04 1.01 0.94 0.90 0.86 0.81 0.80 0.77 0.71 0.69 0.68 0.65 0.67 0.67 0.67 0.70 0.76 0.81 0.82 0.88 0.90 0.89 0.87 0.85 0.89 0.95 1.07 1.20
1.44 1.30 1.23 1.18 1.11 1.06 1.07 1.05 1.01 0.92 0.89 0.86 0.89 0.93 0.93 0.95 0.98 0.91 0.84 0.81 0.75 0.70 0.68 0.60 0.59 0.65 0.65 0.58 0.54 0.55 0.59 0.64 0.66 0.69 0.82 0.88 0.88 0.88 0.92 0.95 0.99 1.07 1.22
1.46 1.40 1.29 1.19 1.04 0.95 0.95 0.94 0.90 0.85 0.81 0.82 0.87 0.95 0.90 0.87 0.93 0.96 0.87 0.78 0.73 0.69 0.68 0.61 0.55 0.59 0.59 0.54 0.52 0.49 0.49 0.55 0.58 0.60 0.68 0.75 0.77 0.77 0.83 0.85 0.93 1.06 1.21
1.69 1.63 1.47 1.30 1.13 1.02 0.98 0.96 0.91 0.81 0.74 0.77 0.89 0.96 0.95 0.93 0.95 0.98 0.94 0.87 0.80 0.77 0.72 0.66 0.60 0.58 0.56 0.55 0.48 0.46 0.47 0.53 0.61 0.67 0.70 0.65 0.66 0.64 0.62 0.68 0.78 0.93 1.12
1.75 1.61 1.47 1.34 1.23 1.17 1.07 1.04 0.99 0.86 0.81 0.82 0.86 0.92 0.95 0.99 0.99 0.97 0.95 0.92 0.91 0.88 0.77 0.66 0.62 0.59 0.52 0.45 0.38 0.37 0.44 0.56 0.66 0.73 0.71 0.61 0.59 0.68 0.68 0.68 0.71 0.82 0.94
1.88 1.80 1.61 1.45 1.29 1.14 1.04 0.99 0.94 0.86 0.86 0.88 0.85 0.82 0.82 0.84 0.82 0.87 0.93 0.92 0.88 0.81 0.75 0.66 0.61 0.57 0.43 0.36 0.34 0.35 0.40 0.48 0.51 0.55 0.63 0.72 0.73 0.67 0.69 0.68 0.78 0.87 0.97
1.79 1.73 1.60 1.49 1.37 1.20 1.07 0.99 0.94 0.88 0.84 0.82 0.77 0.70 0.65 0.68 0.68 0.76 0.86 0.92 0.86 0.76 0.68 0.63 0.60 0.56 0.43 0.36 0.33 0.35 0.42 0.46 0.43 0.40 0.45 0.53 0.56 0.55 0.63 0.73 0.88 0.94 1.04
1.34 1.33 1.28 1.24 1.17 1.07 0.98 0.96 0.95 0.85 0.76 0.70 0.64 0.59 0.57 0.60 0.63 0.68 0.78 0.83 0.83 0.71 0.58 0.52 0.52 0.49 0.45 0.36 0.30 0.31 0.36 0.43 0.40 0.43 0.49 0.49 0.43 0.45 0.57 0.74 0.94 1.08 1.12
1.13 1.07 1.03 1.04 1.02 0.93 0.91 0.94 0.90 0.81 0.65 0.54 0.53 0.55 0.58 0.61 0.60 0.68 0.76 0.73 0.67 0.64 0.56 0.51 0.48 0.43 0.36 0.29 0.24 0.24 0.28 0.34 0.39 0.44 0.50 0.52 0.46 0.43 0.48 0.65 0.85 1.01 1.05
1.18 1.09 1.02 0.96 0.89 0.85 0.90 0.93 0.84 0.65 0.53 0.50 0.54 0.58 0.58 0.56 0.55 0.65 0.72 0.64 0.61 0.59 0.57 0.55 0.48 0.40 0.32 0.25 0.20 0.16 0.16 0.20 0.37 0.51 0.47 0.46 0.45 0.43 0.50 0.65 0.82 0.95 1.13
1.10 1.05 0.94 0.85 0.77 0.73 0.77 0.80 0.67 0.48 0.44 0.49 0.58 0.60 0.57 0.64 0.64 0.60 0.59 0.58 0.59 0.50 0.46 0.46 0.43 0.39 0.34 0.29 0.21 0.17 0.16 0.19 0.31 0.44 0.48 0.46 0.45 0.56 0.76 0.89 0.99 1.13 1.33
0.91 0.83 0.77 0.71 0.65 0.59 0.57 0.54 0.43 0.41 0.47 0.55 0.57 0.56 0.60 0.70 0.69 0.58 0.47 0.44 0.43 0.39 0.37 0.39 0.38 0.38 0.37 0.29 0.24 0.25 0.24 0.27 0.33 0.42 0.55 0.60 0.64 0.82 1.03 1.17 1.26 1.35 1.39
0.71 0.64 0.64 0.60 0.51 0.47 0.43 0.36 0.33 0.38 0.47 0.50 0.53 0.53 0.56 0.61 0.63 0.52 0.38 0.33 0.28 0.23 0.25 0.28 0.29 0.35 0.34 0.23 0.21 0.24 0.27 0.30 0.34 0.40 0.58 0.73 0.78 0.92 1.07 1.21 1.29 1.33 1.32
0.58 0.56 0.54 0.51 0.44 0.42 0.39 0.34 0.29 0.33 0.44 0.49 0.46 0.41 0.44 0.45 0.44 0.43 0.39 0.26 0.15 0.12 0.11 0.12 0.15 0.18 0.19 0.16 0.15 0.19 0.24 0.29 0.36 0.46 0.71 0.82 0.82 0.88 0.97 1.10 1.19 1.19 1.15

GEFSMW_prec_meanprecacc_216.txt.gz
Total_Precipitation_Accumulation
1.17 1.35 1.83 2.41 2.82 3.28 3.60 3.56 3.38 3.44 3.52 3.54 3.35 3.52 3.73 4.03 4.30 4.20 4.07 3.99 3.90 3.86 3.87 3.90 3.89 3.77 3.68 3.52 3.33 3.19 3.07 2.85 2.65 2.58 2.28 1.93 1.69 1.62 1.58 1.63 1.70 1.70 1.70
1.24 1.52 1.97 2.30 2.71 3.05 3.22 3.49 3.60 3.64 3.43 3.71 3.95 4.17 4.46 4.58 4.88 5.15 5.19 5.04 4.78 4.55 4.34 4.29 4.10 3.80 3.61 3.47 3.28 3.13 2.97 2.71 2.55 2.50 2.48 2.09 1.78 1.49 1.32 1.41 1.43 1.49 1.63
1.51 1.80 2.10 2.26 2.51 2.92 3.18 3.47 3.75 3.85 3.74 4.14 4.63 5.04 5.31 5.29 5.36 5.43 5.46 5.42 5.01 4.62 4.32 4.03 3.87 3.69 3.52 3.35 3.27 3.15 3.02 2.77 2.58 2.47 2.60 2.47 2.15 1.76 1.56 1.42 1.43 1.51 1.57
1.40 1.69 1.97 2.33 2.41 2.72 3.00 3.25 3.60 3.98 4.27 4.68 5.13 5.66 5.91 6.01 5.90 5.61 5.36 5.04 4.64 4.27 3.85 3.61 3.61 3.45 3.24 3.05 2.84 2.71 2.67 2.60 2.50 2.44 2.33 2.30 2.23 2.07 1.86 1.65 1.65 1.67 1.64
1.38 1.53 1.67 2.00 2.26 2.54 2.80 3.09 3.41 3.82 4.45 5.21 5.73 6.11 6.38 6.29 5.85 5.36 4.76 4.32 3.99 3.69 3.42 3.22 3.23 3.13 2.88 2.66 2.41 2.22 2.14 2.14 2.21 2.23 2.20 2.14 2.08 1.91 1.81 1.73 1.65 1.62 1.61
1.51 1.61 1.73 2.00 2.18 2.30 2.55 2.89 3.30 3.60 4.11 4.83 5.46 5.75 5.93 5.84 5.42 4.77 4.22 3.84 3.45 3.11 2.81 2.54 2.43 2.31 2.16 2.05 1.95 1.84 1.78 1.78 1.89 1.96 1.91 1.90 1.91 1.87 1.86 1.80 1.66 1.64 1.71
1.65 1.64 1.66 1.81 2.01 2.11 2.30 2.58 2.88 3.26 3.58 3.98 4.57 4.68 4.71 4.53 4.11 3.82 3.58 3.20 2.80 2.47 2.19 1.99 1.87 1.81 1.76 1.71 1.69 1.65 1.59 1.50 1.54 1.57 1.61 1.62 1.59 1.63 1.75 1.88 1.87 1.78 1.66
1.46 1.48 1.47 1.70 1.93 2.12 2.26 2.38 2.57 2.92 3.22 3.32 3.45 3.40 3.32 3.25 3.06 2.82 2.54 2.29 2.08 1.94 1.83 1.68 1.57 1.52 1.55 1.55 1.57 1.51 1.40 1.31 1.28 1.24 1.27 1.32 1.32 1.45 1.64 1.76 1.93 1.96 1.75
1.32 1.37 1.40 1.52 1.71 1.96 2.07 2.14 2.19 2.33 2.35 2.37 2.40 2.40 2.37 2.24 2.17 2.09 1.88 1.72 1.60 1.49 1.47 1.44 1.40 1.32 1.26 1.22 1.18 1.15 1.15 1.17 1.17 1.11 1.09 1.11 1.14 1.25 1.39 1.51 1.72 1.91 1.84
1.34 1.34 1.39 1.46 1.44 1.50 1.59 1.69 1.80 1.92 1.89 1.81 1.72 1.75 1.74 1.64 1.53 1.44 1.36 1.27 1.20 1.15 1.16 1.13 1.10 1.11 1.12 1.04 0.96 0.92 0.95 0.98 1.03 1.05 1.00 0.98 0.99 1.03 1.09 1.19 1.34 1.55 1.69
1.40 1.32 1.32 1.32 1.24 1.18 1.18 1.29 1.42 1.57 1.59 1.49 1.45 1.47 1.44 1.37 1.26 1.18 1.12 1.07 1.02 0.98 0.94 0.94 0.92 0.90 0.89 0.88 0.90 0.87 0.88 0.94 0.95 0.95 0.93 0.91 0.91 0.97 0.96 1.01 1.12 1.26 1.42
1.37 1.27 1.23 1.28 1.21 1.13 1.06 1.13 1.20 1.17 1.23 1.24 1.29 1.34 1.28 1.24 1.18 1.12 1.07 1.03 0.93 0.87 0.85 0.86 0.82 0.75 0.72 0.77 0.83 0.86 0.85 0.94 0.94 0.92 0.92 0.88 0.88 0.93 0.93 0.95 1.01 1.14 1.31
1.48 1.34 1.23 1.20 1.19 1.12 1.09 1.10 1.13 1.06 1.04 1.00 1.00 1.07 1.08 1.07 1.04 0.97 0.92 0.88 0.85 0.83 0.81 0.75 0.73 0.72 0.68 0.69 0.70 0.72 0.74 0.80 0.86 0.87 0.92 0.93 0.93 0.91 0.90 0.93 1.00 1.12 1.25
1.47 1.31 1.24 1.19 1.12 1.08 1.08 1.07 1.03 0.94 0.90 0.87 0.90 0.95 0.95 0.97 1.00 0.93 0.86 0.82 0.77 0.74 0.72 0.65 0.63 0.69 0.68 0.62 0.59 0.60 0.65 0.70 0.71 0.72 0.85 0.91 0.92 0.92 0.98 1.00 1.04 1.11 1.27
1.49 1.42 1.31 1.19 1.04 0.96 0.96 0.95 0.93 0.87 0.83 0.84 0.88 0.96 0.91 0.88 0.95 0.98 0.88 0.79 0.75 0.71 0.71 0.65 0.60 0.63 0.63 0.57 0.57 0.57 0.57 0.61 0.61 0.63 0.71 0.78 0.80 0.81 0.87 0.89 0.98 1.11 1.26
1.72 1.64 1.48 1.31 1.14 1.02 0.98 0.96 0.93 0.82 0.76 0.79 0.89 0.97 0.97 0.95 0.96 1.00 0.96 0.89 0.82 0.79 0.75 0.69 0.64 0.62 0.59 0.60 0.54 0.52 0.53 0.57 0.63 0.70 0.72 0.68 0.68 0.66 0.64 0.71 0.81 0.97 1.17
1.77 1.62 1.49 1.35 1.23 1.17 1.07 1.05 1.00 0.87 0.84 0.84 0.86 0.93 0.96 1.01 1.01 0.99 0.97 0.95 0.92 0.90 0.80 0.70 0.66 0.63 0.56 0.51 0.42 0.41 0.46 0.58 0.68 0.76 0.74 0.64 0.61 0.70 0.71 0.71 0.74 0.85 0.99
1.91 1.82 1.62 1.47 1.30 1.15 1.05 1.00 0.95 0.87 0.89 0.89 0.86 0.82 0.82 0.85 0.84 0.89 0.96 0.94 0.90 0.84 0.78 0.70 0.64 0.60 0.46 0.39 0.37 0.40 0.42 0.50 0.54 0.58 0.66 0.76 0.78 0.71 0.72 0.71 0.81 0.90 1.00
1.82 1.76 1.62 1.51 1.39 1.22 1.08 1.00 0.95 0.90 0.85 0.83 0.78 0.70 0.66 0.69 0.70 0.77 0.87 0.94 0.89 0.79 0.72 0.66 0.63 0.59 0.47 0.40 0.38 0.39 0.44 0.48 0.45 0.42 0.48 0.55 0.59 0.59 0.67 0.77 0.92 0.98 1.09
1.36 1.35 1.31 1.27 1.20 1.09 0.99 0.98 0.96 0.86 0.78 0.71 0.64 0.59 0.58 0.61 0.64 0.69 0.79 0.85 0.85 0.74 0.62 0.55 0.55 0.52 0.50 0.42 0.35 0.35 0.38 0.45 0.43 0.45 0.52 0.52 0.46 0.49 0.62 0.80 0.99 1.13 1.18
1.15 1.09 1.06 1.08 1.05 0.96 0.94 0.96 0.91 0.83 0.66 0.55 0.54 0.56 0.59 0.62 0.61 0.69 0.77 0.74 0.68 0.67 0.60 0.55 0.52 0.47 0.40 0.33 0.28 0.29 0.32 0.37 0.42 0.48 0.56 0.59 0.51 0.47 0.53 0.71 0.90 1.07 1.10
1.19 1.10 1.04 0.99 0.91 0.87 0.92 0.95 0.86 0.68 0.55 0.52 0.56 0.60 0.60 0.58 0.56 0.67 0.74 0.66 0.64 0.63 0.61 0.59 0.52 0.44 0.35 0.28 0.22 0.19 0.20 0.24 0.41 0.56 0.55 0.54 0.52 0.49 0.55 0.70 0.87 1.00 1.16
1.12 1.07 0.98 0.89 0.79 0.74 0.78 0.81 0.68 0.50 0.46 0.52 0.60 0.62 0.59 0.66 0.65 0.61 0.60 0.59 0.62 0.54 0.49 0.49 0.46 0.42 0.37 0.31 0.23 0.18 0.17 0.21 0.33 0.49 0.53 0.51 0.49 0.60 0.80 0.92 1.01 1.15 1.36
0.93 0.84 0.80 0.75 0.67 0.60 0.57 0.54 0.44 0.43 0.48 0.56 0.58 0.56 0.60 0.71 0.70 0.59 0.48 0.46 0.47 0.44 0.40 0.42 0.40 0.40 0.40 0.31 0.26 0.26 0.26 0.28 0.33 0.44 0.57 0.62 0.66 0.84 1.04 1.19 1.27 1.36 1.41
0.73 0.66 0.65 0.61 0.52 0.47 0.43 0.37 0.34 0.38 0.48 0.51 0.54 0.54 0.57 0.62 0.64 0.53 0.40 0.38 0.33 0.27 0.27 0.29 0.31 0.36 0.35 0.25 0.23 0.26 0.28 0.31 0.35 0.42 0.61 0.75 0.80 0.93 1.09 1.23 1.31 1.35 1.34
0.60 0.58 0.54 0.51 0.45 0.43 0.39 0.35 0.31 0.34 0.45 0.49 0.46 0.41 0.44 0.46 0.45 0.45 0.42 0.28 0.17 0.13 0.12 0.13 0.17 0.19 0.20 0.17 0.17 0.21 0.26 0.30 0.37 0.49 0.74 0.84 0.83 0.89 0.99 1.11 1.22 1.21 1.17

GEFSMW_prec_meanprecacc_222.txt.gz
Total_Precipitation_Accumulation
1.20 1.37 1.86 2.46 2.87 3.33 3.64 3.60 3.42 3.48 3.56 3.59 3.40 3.59 3.81 4.12 4.41 4.32 4.19 4.08 3.98 3.94 3.96 3.99 3.98 3.85 3.76 3.60 3.42 3.32 3.20 2.97 2.76 2.68 2.37 2.02 1.77 1.69 1.65 1.69 1.76 1.75 1.75
1.27 1.53 1.98 2.32 2.74 3.08 3.23 3.51 3.64 3.68 3.48 3.77 4.02 4.25 4.55 4.68 5.02 5.31 5.34 5.16 4.88 4.64 4.43 4.39 4.19 3.90 3.72 3.58 3.39 3.25 3.09 2.82 2.67 2.61 2.59 2.19 1.86 1.56 1.37 1.46 1.46 1.51 1.66
1.54 1.81 2.11 2.27 2.53 2.94 3.20 3.49 3.78 3.89 3.80 4.20 4.69 5.11 5.41 5.41 5.49 5.56 5.58 5.53 5.10 4.70 4.42 4.14 4.00 3.84 3.67 3.50 3.40 3.26 3.14 2.89 2.71 2.59 2.71 2.56 2.23 1.82 1.61 1.46 1.46 1.53 1.59
1.42 1.70 1.98 2.35 2.43 2.74 3.02 3.27 3.62 4.01 4.31 4.72 5.18 5.72 6.01 6.13 6.00 5.70 5.46 5.14 4.74 4.35 3.93 3.70 3.71 3.57 3.36 3.16 2.94 2.81 2.77 2.70 2.58 2.52 2.42 2.39 2.32 2.14 1.91 1.71 1.70 1.71 1.67
1.41 1.55 1.70 2.04 2.29 2.55 2.82 3.10 3.44 3.85 4.49 5.25 5.78 6.17 6.46 6.40 5.96 5.46 4.88 4.43 4.11 3.80 3.51 3.30 3.32 3.22 2.97 2.74 2.48 2.29 2.20 2.20 2.27 2.29 2.27 2.22 2.17 2.00 1.88 1.78 1.71 1.68 1.66
1.53 1.64 1.76 2.05 2.21 2.32 2.57 2.91 3.33 3.63 4.15 4.88 5.52 5.81 5.99 5.92 5.51 4.86 4.32 3.95 3.56 3.20 2.87 2.59 2.49 2.38 2.23 2.11 2.01 1.90 1.85 1.85 1.95 2.01 1.96 1.96 1.98 1.95 1.93 1.86 1.71 1.69 1.76
1.67 1.66 1.69 1.84 2.03 2.14 2.32 2.60 2.91 3.30 3.63 4.02 4.62 4.74 4.79 4.61 4.20 3.92 3.68 3.28 2.88 2.54 2.25 2.04 1.92 1.86 1.81 1.76 1.75 1.72 1.65 1.56 1.60 1.63 1.66 1.67 1.65 1.69 1.83 1.96 1.93 1.83 1.70
1.48 1.50 1.50 1.72 1.94 2.13 2.28 2.39 2.59 2.94 3.24 3.35 3.50 3.47 3.39 3.32 3.14 2.91 2.63 2.36 2.14 1.99 1.88 1.74 1.62 1.58 1.61 1.60 1.63 1.57 1.45 1.36 1.34 1.29 1.33 1.39 1.38 1.51 1.70 1.84 2.00 2.02 1.80
1.35 1.40 1.42 1.53 1.72 1.97 2.09 2.16 2.21 2.35 2.38 2.40 2.44 2.46 2.46 2.32 2.24 2.15 1.93 1.78 1.65 1.55 1.52 1.49 1.45 1.37 1.33 1.28 1.25 1.22 1.21 1.23 1.22 1.17 1.15 1.18 1.20 1.31 1.45 1.60 1.81 2.00 1.91
1.37 1.38 1.41 1.47 1.45 1.51 1.60 1.71 1.82 1.95 1.95 1.88 1.80 1.86 1.85 1.71 1.58 1.47 1.40 1.31 1.24 1.19 1.21 1.17 1.14 1.17 1.18 1.10 1.03 1.01 1.02 1.04 1.09 1.12 1.06 1.05 1.06 1.10 1.16 1.28 1.44 1.66 1.81
1.44 1.36 1.35 1.34 1.25 1.19 1.20 1.31 1.44 1.60 1.68 1.62 1.56 1.58 1.54 1.44 1.32 1.23 1.16 1.11 1.07 1.02 0.99 0.98 0.97 0.95 0.95 0.94 0.96 0.94 0.95 1.01 1.03 1.02 1.01 0.99 1.00 1.03 1.02 1.09 1.21 1.36 1.53
1.43 1.31 1.26 1.30 1.24 1.16 1.10 1.16 1.22 1.20 1.27 1.30 1.35 1.42 1.35 1.29 1.22 1.16 1.11 1.07 0.97 0.91 0.90 0.91 0.88 0.79 0.77 0.83 0.90 0.92 0.90 0.98 0.99 0.97 1.00 0.98 0.97 1.00 1.00 1.04 1.10 1.23 1.41
1.59 1.40 1.26 1.24 1.22 1.15 1.11 1.12 1.15 1.08 1.07 1.04 1.05 1.13 1.14 1.12 1.10 1.01 0.95 0.92 0.89 0.88 0.86 0.81 0.79 0.77 0.73 0.75 0.75 0.77 0.78 0.86 0.93 0.95 1.00 1.00 1.02 1.00 0.98 1.02 1.07 1.19 1.32
1.58 1.39 1.29 1.23 1.15 1.10 1.10 1.08 1.04 0.95 0.92 0.90 0.94 0.99 0.98 1.00 1.05 0.98 0.90 0.87 0.82 0.80 0.78 0.72 0.71 0.77 0.76 0.68 0.63 0.65 0.70 0.77 0.80 0.81 0.92 0.98 1.00 0.99 1.04 1.06 1.10 1.18 1.36
1.54 1.49 1.36 1.24 1.08 0.97 0.97 0.97 0.94 0.89 0.84 0.86 0.91 1.00 0.94 0.91 0.99 1.04 0.93 0.83 0.79 0.76 0.76 0.70 0.66 0.71 0.69 0.62 0.62 0.63 0.63 0.68 0.68 0.70 0.77 0.83 0.84 0.84 0.90 0.93 1.03 1.16 1.32
1.74 1.68 1.54 1.38 1.18 1.04 1.00 0.99 0.95 0.84 0.77 0.81 0.92 0.99 0.99 0.97 1.01 1.05 1.01 0.93 0.87 0.85 0.80 0.74 0.70 0.69 0.64 0.63 0.57 0.56 0.58 0.64 0.70 0.76 0.76 0.71 0.71 0.69 0.66 0.73 0.83 1.00 1.20
1.79 1.68 1.58 1.42 1.26 1.20 1.09 1.06 1.01 0.89 0.86 0.87 0.88 0.95 0.99 1.05 1.07 1.04 1.02 0.99 0.97 0.95 0.85 0.75 0.73 0.70 0.62 0.54 0.45 0.44 0.50 0.64 0.74 0.81 0.79 0.67 0.64 0.73 0.73 0.73 0.76 0.88 1.02
1.96 1.89 1.66 1.49 1.31 1.17 1.07 1.02 0.96 0.89 0.91 0.91 0.87 0.85 0.86 0.89 0.89 0.95 1.01 0.99 0.95 0.89 0.84 0.77 0.71 0.67 0.50 0.44 0.41 0.43 0.46 0.55 0.60 0.64 0.72 0.80 0.82 0.74 0.74 0.73 0.84 0.94 1.05
1.85 1.80 1.65 1.53 1.40 1.24 1.10 1.02 0.98 0.93 0.88 0.85 0.80 0.73 0.69 0.73 0.74 0.81 0.92 0.99 0.94 0.85 0.78 0.71 0.68 0.63 0.51 0.45 0.43 0.43 0.47 0.52 0.50 0.47 0.53 0.58 0.62 0.62 0.69 0.80 0.96 1.01 1.12
1.39 1.37 1.33 1.29 1.22 1.10 1.01 1.00 0.99 0.90 0.82 0.74 0.67 0.62 0.61 0.65 0.67 0.72 0.83 0.89 0.90 0.79 0.66 0.59 0.59 0.56 0.53 0.47 0.40 0.38 0.42 0.49 0.46 0.49 0.57 0.56 0.48 0.51 0.65 0.84 1.03 1.18 1.21
1.17 1.10 1.08 1.11 1.08 0.98 0.96 0.99 0.95 0.87 0.70 0.58 0.57 0.59 0.64 0.67 0.65 0.72 0.80 0.78 0.71 0.71 0.64 0.59 0.57 0.50 0.43 0.37 0.32 0.32 0.36 0.41 0.46 0.52 0.61 0.63 0.54 0.49 0.56 0.75 0.94 1.10 1.14
1.22 1.12 1.06 1.02 0.93 0.89 0.95 0.98 0.91 0.72 0.59 0.56 0.60 0.64 0.64 0.60 0.59 0.70 0.77 0.69 0.67 0.67 0.65 0.63 0.57 0.47 0.37 0.31 0.25 0.23 0.24 0.28 0.46 0.61 0.61 0.59 0.56 0.53 0.59 0.74 0.91 1.03 1.21
1.15 1.10 1.01 0.93 0.81 0.76 0.81 0.85 0.72 0.53 0.49 0.55 0.64 0.65 0.61 0.68 0.67 0.64 0.64 0.62 0.65 0.58 0.53 0.53 0.50 0.46 0.40 0.33 0.25 0.20 0.20 0.25 0.38 0.55 0.59 0.57 0.55 0.63 0.83 0.95 1.04 1.18 1.38
0.96 0.88 0.84 0.78 0.69 0.61 0.58 0.58 0.48 0.45 0.51 0.59 0.62 0.60 0.63 0.73 0.72 0.62 0.51 0.49 0.50 0.47 0.43 0.44 0.43 0.43 0.43 0.33 0.29 0.29 0.28 0.30 0.37 0.49 0.64 0.69 0.72 0.89 1.08 1.21 1.29 1.38 1.43
0.76 0.68 0.67 0.63 0.53 0.48 0.45 0.40 0.36 0.41 0.51 0.54 0.57 0.57 0.59 0.64 0.66 0.56 0.43 0.41 0.36 0.29 0.29 0.30 0.32 0.38 0.37 0.27 0.25 0.28 0.31 0.34 0.37 0.46 0.66 0.82 0.87 0.99 1.13 1.26 1.32 1.37 1.35
0.63 0.60 0.56 0.53 0.46 0.44 0.41 0.37 0.33 0.36 0.48 0.52 0.49 0.45 0.47 0.49 0.49 0.50 0.44 0.30 0.17 0.13 0.13 0.13 0.17 0.21 0.22 0.19 0.18 0.22 0.27 0.32 0.40 0.54 0.82 0.92 0.91 0.96 1.04 1.14 1.24 1.24 1.20

GEFSMW_prec_meanprecacc_228.txt.gz
Total_Precipitation_Accumulation
1.26 1.43 1.90 2.49 2.92 3.43 3.82 3.81 3.52 3.54 3.60 3.62 3.46 3.67 3.88 4.18 4.47 4.39 4.25 4.15 4.04 4.01 4.03 4.06 4.04 3.90 3.81 3.66 3.48 3.38 3.27 3.04 2.84 2.77 2.46 2.09 1.83 1.75 1.71 1.76 1.84 1.84 1.83
1.33 1.59 2.02 2.34 2.76 3.13 3.32 3.61 3.72 3.74 3.52 3.82 4.09 4.31 4.62 4.74 5.08 5.36 5.40 5.22 4.94 4.71 4.50 4.46 4.26 3.97 3.78 3.64 3.45 3.32 3.16 2.88 2.73 2.68 2.64 2.23 1.89 1.58 1.40 1.49 1.50 1.55 1.71
1.59 1.87 2.15 2.30 2.55 2.97 3.24 3.53 3.82 3.93 3.84 4.23 4.73 5.15 5.45 5.45 5.53 5.59 5.61 5.57 5.15 4.78 4.51 4.22 4.09 3.93 3.75 3.58 3.47 3.35 3.22 2.96 2.77 2.64 2.76 2.60 2.25 1.84 1.63 1.48 1.48 1.55 1.62
1.47 1.75 2.03 2.40 2.46 2.78 3.07 3.31 3.65 4.05 4.35 4.75 5.20 5.74 6.03 6.16 6.04 5.72 5.47 5.16 4.78 4.42 4.01 3.79 3.81 3.67 3.46 3.25 3.01 2.88 2.84 2.77 2.64 2.57 2.46 2.43 2.35 2.17 1.93 1.73 1.72 1.75 1.71
1.48 1.61 1.75 2.09 2.33 2.59 2.86 3.13 3.47 3.88 4.51 5.27 5.80 6.18 6.47 6.43 6.00 5.49 4.90 4.45 4.14 3.85 3.57 3.38 3.43 3.33 3.10 2.88 2.62 2.39 2.29 2.26 2.32 2.34 2.31 2.25 2.19 2.03 1.91 1.81 1.73 1.71 1.69
1.62 1.70 1.82 2.10 2.25 2.36 2.61 2.93 3.35 3.66 4.17 4.90 5.54 5.83 6.01 5.94 5.55 4.91 4.35 3.97 3.58 3.24 2.91 2.65 2.56 2.47 2.31 2.20 2.14 2.06 1.99 1.95 2.02 2.06 1.99 1.98 2.00 1.97 1.96 1.89 1.73 1.72 1.79
1.80 1.73 1.74 1.88 2.08 2.17 2.35 2.62 2.94 3.33 3.66 4.05 4.65 4.77 4.81 4.63 4.24 3.98 3.72 3.31 2.92 2.58 2.29 2.07 1.95 1.90 1.86 1.82 1.81 1.79 1.74 1.65 1.66 1.68 1.69 1.70 1.68 1.72 1.86 1.99 1.96 1.86 1.73
1.65 1.62 1.56 1.76 1.98 2.17 2.31 2.42 2.62 2.97 3.28 3.40 3.53 3.50 3.42 3.37 3.20 2.98 2.68 2.40 2.19 2.04 1.92 1.77 1.65 1.60 1.64 1.63 1.66 1.60 1.50 1.42 1.40 1.34 1.37 1.44 1.42 1.55 1.74 1.89 2.07 2.08 1.83
1.45 1.48 1.48 1.58 1.76 2.01 2.12 2.19 2.25 2.39 2.42 2.44 2.48 2.50 2.51 2.39 2.31 2.22 1.99 1.82 1.70 1.58 1.55 1.52 1.48 1.39 1.35 1.30 1.27 1.25 1.24 1.27 1.28 1.22 1.20 1.22 1.25 1.36 1.51 1.66 1.91 2.10 1.99
1.44 1.45 1.48 1.53 1.49 1.54 1.63 1.75 1.86 1.99 1.99 1.92 1.84 1.90 1.90 1.79 1.66 1.54 1.45 1.36 1.28 1.22 1.24 1.19 1.17 1.20 1.20 1.12 1.06 1.04 1.06 1.08 1.13 1.16 1.10 1.09 1.11 1.16 1.23 1.34 1.51 1.74 1.88
1.52 1.42 1.44 1.42 1.32 1.25 1.25 1.36 1.48 1.64 1.71 1.66 1.61 1.63 1.59 1.51 1.39 1.30 1.21 1.15 1.10 1.05 1.02 1.01 0.99 0.98 0.98 0.97 1.00 0.98 0.99 1.05 1.07 1.05 1.05 1.04 1.06 1.10 1.08 1.15 1.26 1.41 1.59
1.49 1.38 1.35 1.39 1.33 1.25 1.17 1.23 1.29 1.25 1.30 1.33 1.44 1.53 1.43 1.37 1.30 1.24 1.17 1.11 0.99 0.93 0.92 0.94 0.90 0.82 0.81 0.88 0.95 0.97 0.95 1.02 1.02 1.01 1.04 1.02 1.02 1.04 1.04 1.09 1.15 1.28 1.46
1.64 1.46 1.33 1.31 1.31 1.22 1.16 1.17 1.20 1.12 1.09 1.07 1.09 1.21 1.25 1.21 1.18 1.07 0.99 0.95 0.91 0.90 0.88 0.85 0.83 0.81 0.77 0.80 0.81 0.82 0.83 0.89 0.95 0.97 1.02 1.03 1.05 1.02 1.01 1.05 1.11 1.23 1.36
1.63 1.43 1.34 1.28 1.21 1.15 1.14 1.12 1.06 0.96 0.93 0.92 0.97 1.04 1.06 1.07 1.09 1.01 0.92 0.88 0.84 0.82 0.80 0.75 0.74 0.80 0.79 0.71 0.66 0.68 0.72 0.80 0.82 0.83 0.94 1.00 1.02 1.00 1.05 1.08 1.13 1.21 1.38
1.57 1.51 1.39 1.27 1.11 1.01 1.01 0.98 0.95 0.90 0.86 0.88 0.94 1.03 0.97 0.93 1.00 1.05 0.94 0.84 0.80 0.77 0.78 0.72 0.68 0.73 0.72 0.65 0.65 0.65 0.66 0.71 0.71 0.73 0.80 0.85 0.86 0.85 0.91 0.93 1.03 1.17 1.33
1.76 1.69 1.56 1.41 1.21 1.07 1.01 0.99 0.95 0.84 0.78 0.82 0.94 1.01 1.00 0.98 1.02 1.08 1.02 0.94 0.88 0.85 0.81 0.76 0.71 0.71 0.65 0.65 0.60 0.58 0.61 0.67 0.73 0.79 0.79 0.74 0.73 0.70 0.67 0.73 0.84 1.01 1.22
1.80 1.69 1.61 1.46 1.29 1.23 1.10 1.07 1.02 0.89 0.87 0.88 0.89 0.96 1.01 1.06 1.09 1.07 1.04 1.00 0.98 0.96 0.86 0.77 0.74 0.71 0.64 0.56 0.47 0.46 0.52 0.67 0.77 0.84 0.81 0.70 0.66 0.75 0.75 0.74 0.77 0.89 1.03
1.96 1.90 1.68 1.50 1.32 1.18 1.08 1.02 0.97 0.90 0.92 0.92 0.88 0.85 0.88 0.91 0.91 0.98 1.03 1.00 0.96 0.91 0.85 0.78 0.73 0.68 0.52 0.45 0.43 0.45 0.48 0.58 0.63 0.67 0.73 0.82 0.84 0.76 0.76 0.74 0.85 0.95 1.06
1.86 1.82 1.66 1.54 1.41 1.24 1.11 1.03 0.99 0.94 0.90 0.86 0.81 0.74 0.71 0.74 0.75 0.83 0.94 1.00 0.97 0.87 0.79 0.72 0.69 0.64 0.52 0.47 0.45 0.46 0.51 0.57 0.54 0.51 0.55 0.61 0.64 0.65 0.72 0.82 0.97 1.02 1.13
1.40 1.39 1.35 1.30 1.23 1.11 1.01 1.01 1.00 0.92 0.83 0.75 0.68 0.63 0.62 0.67 0.68 0.74 0.85 0.91 0.92 0.81 0.67 0.60 0.60 0.57 0.55 0.49 0.42 0.41 0.45 0.53 0.51 0.53 0.60 0.59 0.51 0.55 0.68 0.86 1.05 1.19 1.22
1.18 1.12 1.10 1.12 1.09 0.99 0.97 1.00 0.96 0.89 0.72 0.60 0.58 0.60 0.65 0.68 0.67 0.74 0.81 0.79 0.73 0.72 0.65 0.60 0.58 0.52 0.44 0.39 0.34 0.35 0.39 0.46 0.51 0.57 0.66 0.67 0.58 0.52 0.59 0.78 0.97 1.13 1.17
1.23 1.13 1.08 1.03 0.95 0.91 0.96 0.99 0.91 0.74 0.60 0.58 0.61 0.65 0.65 0.61 0.60 0.71 0.78 0.71 0.69 0.68 0.66 0.64 0.58 0.48 0.39 0.33 0.28 0.26 0.28 0.32 0.51 0.66 0.65 0.65 0.62 0.59 0.65 0.79 0.95 1.08 1.25
1.17 1.12 1.03 0.93 0.82 0.77 0.81 0.85 0.72 0.55 0.51 0.56 0.65 0.66 0.62 0.68 0.68 0.65 0.65 0.65 0.67 0.59 0.54 0.55 0.52 0.48 0.42 0.35 0.27 0.23 0.24 0.30 0.43 0.59 0.63 0.60 0.58 0.67 0.88 0.99 1.08 1.23 1.44
0.97 0.89 0.84 0.79 0.69 0.61 0.59 0.58 0.48 0.47 0.52 0.60 0.62 0.60 0.64 0.74 0.72 0.63 0.53 0.51 0.51 0.48 0.44 0.45 0.44 0.46 0.44 0.34 0.30 0.30 0.31 0.34 0.41 0.53 0.66 0.71 0.73 0.90 1.10 1.24 1.32 1.42 1.47
0.78 0.70 0.68 0.64 0.53 0.49 0.45 0.41 0.38 0.42 0.52 0.55 0.58 0.59 0.60 0.64 0.67 0.58 0.45 0.42 0.37 0.30 0.30 0.32 0.33 0.40 0.38 0.27 0.26 0.29 0.32 0.36 0.40 0.47 0.68 0.83 0.87 1.00 1.15 1.28 1.35 1.39 1.39
0.65 0.62 0.58 0.54 0.47 0.45 0.42 0.39 0.35 0.38 0.49 0.53 0.51 0.46 0.48 0.50 0.50 0.51 0.45 0.30 0.18 0.14 0.13 0.14 0.18 0.21 0.23 0.20 0.19 0.22 0.28 0.33 0.41 0.55 0.83 0.92 0.91 0.97 1.06 1.17 1.27 1.26 1.23

GEFSMW_prec_meanprecacc_234.txt.gz
Total_Precipitation_Accumulation
1.32 1.51 1.98 2.56 2.98 3.47 3.87 3.85 3.58 3.60 3.65 3.68 3.51 3.72 3.95 4.23 4.50 4.43 4.30 4.19 4.09 4.05 4.06 4.09 4.07 3.94 3.85 3.70 3.53 3.42 3.31 3.07 2.87 2.81 2.49 2.12 1.85 1.77 1.73 1.78 1.86 1.86 1.86
1.42 1.68 2.11 2.41 2.82 3.16 3.35 3.65 3.75 3.78 3.57 3.87 4.14 4.36 4.68 4.79 5.12 5.41 5.46 5.27 4.98 4.75 4.54 4.50 4.30 4.01 3.82 3.68 3.49 3.35 3.19 2.92 2.77 2.71 2.68 2.25 1.91 1.59 1.41 1.50 1.51 1.57 1.73
1.69 1.98 2.25 2.39 2.62 3.02 3.28 3.58 3.88 3.98 3.88 4.28 4.77 5.19 5.48 5.48 5.57 5.63 5.65 5.60 5.18 4.80 4.56 4.29 4.16 3.98 3.81 3.63 3.52 3.39 3.26 3.00 2.80 2.67 2.80 2.63 2.27 1.85 1.64 1.48 1.48 1.56 1.63
1.56 1.83 2.12 2.48 2.53 2.83 3.12 3.36 3.71 4.10 4.40 4.80 5.26 5.78 6.05 6.19 6.06 5.75 5.50 5.19 4.81 4.45 4.05 3.84 3.86 3.73 3.52 3.31 3.06 2.94 2.90 2.81 2.69 2.61 2.49 2.46 2.38 2.19 1.95 1.73 1.73 1.76 1.72
1.53 1.66 1.81 2.14 2.38 2.64 2.91 3.18 3.51 3.92 4.56 5.32 5.86 6.21 6.49 6.45 6.02 5.52 4.93 4.48 4.17 3.88 3.61 3.43 3.50 3.39 3.15 2.93 2.67 2.44 2.33 2.31 2.37 2.40 2.36 2.29 2.23 2.06 1.93 1.82 1.74 1.73 1.70
1.65 1.74 1.86 2.13 2.28 2.40 2.66 2.98 3.39 3.70 4.21 4.94 5.58 5.86 6.03 5.97 5.56 4.94 4.40 4.01 3.62 3.28 2.96 2.69 2.60 2.52 2.37 2.26 2.19 2.11 2.05 2.02 2.09 2.13 2.07 2.05 2.05 2.01 1.99 1.91 1.74 1.73 1.80
1.86 1.79 1.78 1.92 2.11 2.21 2.39 2.66 2.99 3.38 3.70 4.10 4.70 4.81 4.85 4.66 4.28 4.05 3.79 3.35 2.96 2.62 2.31 2.10 1.98 1.93 1.91 1.87 1.86 1.85 1.80 1.75 1.78 1.79 1.79 1.78 1.73 1.76 1.89 2.02 1.98 1.87 1.75
1.69 1.69 1.62 1.81 2.02 2.20 2.35 2.47 2.67 3.03 3.34 3.45 3.59 3.55 3.47 3.41 3.26 3.06 2.74 2.44 2.22 2.07 1.95 1.80 1.67 1.62 1.66 1.67 1.71 1.64 1.54 1.48 1.48 1.45 1.48 1.52 1.49 1.60 1.78 1.92 2.11 2.10 1.86
1.48 1.52 1.53 1.63 1.80 2.06 2.18 2.26 2.32 2.45 2.47 2.49 2.52 2.55 2.56 2.43 2.38 2.30 2.06 1.87 1.73 1.61 1.58 1.55 1.50 1.41 1.37 1.33 1.30 1.28 1.27 1.31 1.32 1.27 1.27 1.30 1.32 1.42 1.55 1.70 1.94 2.14 2.03
1.49 1.49 1.53 1.60 1.55 1.61 1.70 1.82 1.93 2.05 2.04 1.96 1.88 1.94 1.93 1.83 1.72 1.59 1.49 1.39 1.31 1.25 1.27 1.22 1.19 1.22 1.23 1.15 1.09 1.06 1.09 1.12 1.17 1.20 1.14 1.13 1.14 1.19 1.26 1.38 1.54 1.79 1.94
1.55 1.46 1.49 1.50 1.41 1.33 1.32 1.42 1.54 1.69 1.76 1.70 1.65 1.67 1.62 1.55 1.43 1.33 1.24 1.18 1.12 1.07 1.05 1.03 1.01 1.00 1.00 0.98 1.02 1.00 1.02 1.07 1.09 1.09 1.08 1.07 1.09 1.13 1.11 1.18 1.30 1.46 1.66
1.52 1.42 1.40 1.43 1.38 1.29 1.21 1.25 1.32 1.28 1.33 1.36 1.48 1.59 1.49 1.41 1.33 1.26 1.18 1.12 1.00 0.95 0.95 0.97 0.92 0.84 0.82 0.89 0.96 0.98 0.96 1.04 1.04 1.04 1.08 1.06 1.08 1.09 1.07 1.12 1.18 1.34 1.55
1.68 1.52 1.36 1.33 1.33 1.24 1.17 1.17 1.21 1.14 1.11 1.11 1.15 1.27 1.31 1.27 1.23 1.10 1.01 0.97 0.93 0.92 0.91 0.87 0.85 0.83 0.79 0.81 0.82 0.83 0.84 0.90 0.97 1.00 1.06 1.08 1.10 1.08 1.07 1.11 1.16 1.29 1.42
1.68 1.47 1.36 1.30 1.23 1.16 1.14 1.12 1.07 0.98 0.96 0.98 1.06 1.10 1.11 1.12 1.13 1.04 0.94 0.90 0.87 0.84 0.82 0.77 0.76 0.81 0.80 0.72 0.67 0.69 0.73 0.81 0.84 0.85 0.96 1.02 1.04 1.03 1.09 1.12 1.16 1.25 1.41
1.62 1.55 1.41 1.29 1.13 1.03 1.02 0.99 0.96 0.91 0.87 0.90 0.98 1.08 1.01 0.96 1.03 1.07 0.96 0.86 0.83 0.79 0.79 0.74 0.69 0.74 0.72 0.65 0.66 0.66 0.67 0.73 0.73 0.75 0.82 0.87 0.88 0.87 0.93 0.95 1.05 1.18 1.34
1.79 1.74 1.58 1.43 1.23 1.09 1.02 0.99 0.96 0.85 0.79 0.83 0.95 1.02 1.01 0.99 1.03 1.08 1.03 0.96 0.89 0.86 0.82 0.76 0.71 0.71 0.66 0.65 0.61 0.59 0.62 0.69 0.75 0.81 0.82 0.76 0.76 0.72 0.69 0.75 0.85 1.02 1.23
1.83 1.73 1.65 1.49 1.31 1.24 1.11 1.07 1.02 0.89 0.87 0.88 0.90 0.96 1.02 1.08 1.10 1.08 1.05 1.01 0.99 0.97 0.87 0.77 0.74 0.71 0.64 0.57 0.48 0.47 0.53 0.68 0.80 0.86 0.84 0.72 0.68 0.77 0.76 0.76 0.79 0.92 1.05
1.99 1.92 1.71 1.54 1.34 1.19 1.08 1.03 0.97 0.90 0.93 0.92 0.89 0.86 0.89 0.92 0.92 0.98 1.03 1.00 0.97 0.91 0.85 0.78 0.73 0.68 0.52 0.46 0.44 0.46 0.50 0.59 0.65 0.68 0.75 0.83 0.85 0.78 0.79 0.78 0.88 0.97 1.07
1.88 1.83 1.67 1.56 1.42 1.24 1.11 1.03 0.99 0.95 0.90 0.86 0.82 0.75 0.71 0.75 0.76 0.83 0.94 1.01 0.97 0.87 0.79 0.72 0.69 0.65 0.52 0.48 0.46 0.48 0.53 0.58 0.55 0.51 0.56 0.63 0.67 0.68 0.75 0.84 1.00 1.04 1.15
1.40 1.39 1.36 1.31 1.24 1.12 1.02 1.01 1.00 0.92 0.83 0.76 0.69 0.64 0.63 0.67 0.68 0.74 0.85 0.91 0.92 0.81 0.67 0.60 0.60 0.57 0.56 0.50 0.44 0.43 0.47 0.55 0.52 0.55 0.61 0.61 0.54 0.58 0.71 0.88 1.08 1.22 1.26
1.18 1.12 1.11 1.13 1.10 1.00 0.98 1.01 0.97 0.89 0.72 0.60 0.59 0.61 0.65 0.69 0.67 0.74 0.82 0.80 0.74 0.73 0.66 0.61 0.60 0.54 0.46 0.41 0.35 0.36 0.41 0.47 0.52 0.59 0.68 0.69 0.60 0.55 0.62 0.81 1.01 1.17 1.21
1.24 1.14 1.09 1.04 0.95 0.91 0.97 1.00 0.92 0.74 0.61 0.59 0.62 0.66 0.65 0.62 0.60 0.72 0.78 0.71 0.69 0.69 0.67 0.65 0.60 0.50 0.40 0.34 0.29 0.27 0.29 0.33 0.52 0.67 0.67 0.67 0.64 0.61 0.69 0.83 0.99 1.12 1.28
1.17 1.12 1.03 0.94 0.83 0.77 0.82 0.85 0.73 0.55 0.52 0.57 0.65 0.67 0.62 0.68 0.68 0.65 0.65 0.65 0.67 0.60 0.55 0.55 0.52 0.48 0.43 0.37 0.28 0.24 0.25 0.30 0.44 0.60 0.64 0.61 0.59 0.70 0.91 1.03 1.12 1.27 1.46
0.98 0.90 0.85 0.80 0.70 0.62 0.59 0.58 0.49 0.48 0.54 0.61 0.63 0.61 0.64 0.74 0.72 0.63 0.54 0.52 0.52 0.48 0.45 0.46 0.45 0.47 0.46 0.36 0.31 0.31 0.32 0.35 0.42 0.54 0.67 0.73 0.75 0.92 1.12 1.26 1.35 1.44 1.50
0.80 0.71 0.69 0.65 0.54 0.49 0.46 0.41 0.38 0.43 0.53 0.56 0.59 0.59 0.60 0.65 0.68 0.58 0.46 0.43 0.37 0.30 0.30 0.32 0.34 0.41 0.40 0.29 0.27 0.30 0.33 0.38 0.42 0.50 0.69 0.84 0.89 1.02 1.17 1.30 1.36 1.40 1.40
0.67 0.63 0.58 0.54 0.47 0.45 0.42 0.39 0.36 0.39 0.50 0.53 0.51 0.46 0.49 0.50 0.52 0.52 0.46 0.31 0.19 0.14 0.13 0.14 0.19 0.23 0.24 0.21 0.20 0.23 0.29 0.34 0.44 0.58 0.86 0.94 0.93 0.98 1.08 1.19 1.28 1.27 1.24

GEFSMW_prec_meanprecacc_240.txt.gz
Total_Precipitation_Accumulation
1.37 1.56 2.03 2.64 3.04 3.51 3.91 3.91 3.63 3.65 3.69 3.71 3.56 3.76 3.99 4.26 4.53 4.45 4.33 4.23 4.13 4.08 4.10 4.12 4.10 3.97 3.88 3.73 3.55 3.45 3.34 3.10 2.91 2.85 2.53 2.15 1.88 1.79 1.75 1.79 1.88 1.88 1.89
1.47 1.74 2.16 2.47 2.88 3.21 3.39 3.70 3.81 3.84 3.61 3.90 4.18 4.43 4.75 4.84 5.15 5.44 5.48 5.30 5.02 4.79 4.58 4.54 4.33 4.04 3.86 3.72 3.52 3.38 3.22 2.95 2.81 2.77 2.74 2.31 1.94 1.62 1.43 1.51 1.52 1.58 1.75
1.73 2.03 2.31 2.45 2.68 3.07 3.34 3.64 3.93 4.04 3.92 4.31 4.81 5.24 5.57 5.55 5.61 5.66 5.68 5.63 5.21 4.83 4.58 4.33 4.19 4.02 3.84 3.66 3.55 3.43 3.29 3.03 2.83 2.71 2.87 2.70 2.33 1.89 1.66 1.50 1.50 1.58 1.66
1.59 1.87 2.16 2.54 2.58 2.86 3.15 3.40 3.75 4.14 4.43 4.84 5.30 5.84 6.12 6.26 6.12 5.79 5.54 5.22 4.84 4.48 4.07 3.86 3.89 3.76 3.56 3.35 3.10 2.98 2.93 2.85 2.72 2.65 2.54 2.53 2.45 2.25 1.98 1.76 1.75 1.79 1.75
1.56 1.69 1.85 2.18 2.40 2.65 2.92 3.21 3.54 3.94 4.58 5.35 5.89 6.26 6.54 6.50 6.05 5.54 4.96 4.52 4.20 3.90 3.63 3.45 3.52 3.42 3.18 2.97 2.70 2.48 2.37 2.34 2.40 2.44 2.41 2.35 2.29 2.11 1.99 1.86 1.77 1.76 1.73
1.68 1.76 1.88 2.15 2.30 2.41 2.68 3.01 3.42 3.73 4.23 4.96 5.60 5.88 6.07 6.00 5.59 4.97 4.44 4.05 3.64 3.30 2.98 2.70 2.63 2.55 2.40 2.29 2.24 2.16 2.10 2.07 2.13 2.16 2.10 2.09 2.10 2.05 2.04 1.95 1.78 1.76 1.83
1.89 1.81 1.80 1.93 2.12 2.22 2.41 2.68 3.01 3.40 3.73 4.13 4.73 4.84 4.89 4.70 4.31 4.09 3.82 3.38 2.98 2.64 2.33 2.11 2.00 1.95 1.94 1.90 1.91 1.90 1.88 1.82 1.84 1.84 1.83 1.82 1.78 1.80 1.94 2.08 2.02 1.90 1.77
1.71 1.71 1.64 1.83 2.04 2.23 2.38 2.50 2.71 3.06 3.38 3.52 3.66 3.62 3.52 3.45 3.30 3.10 2.77 2.47 2.24 2.08 1.96 1.82 1.69 1.63 1.68 1.70 1.76 1.70 1.61 1.54 1.54 1.50 1.53 1.58 1.54 1.65 1.84 1.98 2.16 2.15 1.90
1.49 1.54 1.55 1.64 1.82 2.09 2.23 2.33 2.40 2.55 2.58 2.59 2.60 2.61 2.60 2.48 2.43 2.34 2.08 1.89 1.75 1.63 1.59 1.56 1.51 1.43 1.39 1.37 1.34 1.31 1.31 1.35 1.37 1.34 1.34 1.35 1.36 1.46 1.61 1.75 2.00 2.21 2.10
1.50 1.51 1.55 1.62 1.58 1.66 1.80 1.93 2.04 2.17 2.15 2.04 1.94 1.98 1.97 1.87 1.75 1.62 1.51 1.42 1.33 1.26 1.29 1.24 1.21 1.24 1.26 1.18 1.11 1.09 1.12 1.15 1.21 1.26 1.22 1.20 1.20 1.25 1.32 1.43 1.61 1.87 2.02
1.55 1.47 1.50 1.52 1.44 1.38 1.38 1.47 1.57 1.73 1.79 1.73 1.69 1.70 1.64 1.57 1.46 1.35 1.26 1.20 1.14 1.09 1.07 1.05 1.03 1.02 1.02 1.00 1.04 1.03 1.04 1.10 1.13 1.13 1.14 1.13 1.16 1.21 1.18 1.25 1.38 1.55 1.75
1.52 1.42 1.41 1.45 1.41 1.32 1.23 1.27 1.33 1.29 1.34 1.37 1.49 1.60 1.50 1.43 1.35 1.28 1.20 1.14 1.02 0.97 0.98 0.99 0.94 0.85 0.84 0.91 0.98 1.00 0.98 1.06 1.07 1.07 1.13 1.12 1.14 1.17 1.16 1.22 1.30 1.44 1.63
1.69 1.53 1.38 1.35 1.35 1.26 1.19 1.19 1.22 1.14 1.12 1.12 1.17 1.29 1.32 1.29 1.26 1.12 1.03 0.99 0.96 0.95 0.93 0.89 0.87 0.85 0.81 0.83 0.83 0.84 0.85 0.92 0.99 1.02 1.08 1.12 1.15 1.13 1.14 1.18 1.24 1.36 1.48
1.70 1.49 1.39 1.33 1.24 1.18 1.15 1.13 1.08 0.98 0.97 1.00 1.09 1.12 1.14 1.15 1.16 1.06 0.96 0.92 0.89 0.86 0.85 0.78 0.77 0.82 0.80 0.73 0.68 0.69 0.74 0.82 0.86 0.87 0.99 1.05 1.07 1.06 1.13 1.18 1.23 1.30 1.46
1.63 1.58 1.44 1.31 1.14 1.04 1.03 0.99 0.97 0.91 0.88 0.93 1.05 1.13 1.05 1.00 1.06 1.12 1.00 0.90 0.85 0.80 0.80 0.74 0.69 0.74 0.72 0.66 0.66 0.67 0.67 0.73 0.74 0.77 0.85 0.91 0.92 0.91 0.97 0.99 1.10 1.24 1.39
1.83 1.78 1.61 1.45 1.25 1.10 1.03 1.00 0.97 0.86 0.80 0.86 1.01 1.07 1.05 1.03 1.05 1.11 1.05 0.97 0.90 0.87 0.83 0.77 0.72 0.71 0.66 0.66 0.61 0.59 0.62 0.69 0.76 0.82 0.84 0.80 0.80 0.77 0.73 0.78 0.88 1.05 1.26
1.87 1.76 1.67 1.51 1.32 1.25 1.12 1.08 1.03 0.90 0.88 0.89 0.92 1.00 1.05 1.09 1.11 1.09 1.05 1.01 0.99 0.98 0.88 0.78 0.75 0.71 0.64 0.57 0.48 0.48 0.54 0.70 0.82 0.89 0.85 0.74 0.70 0.81 0.81 0.80 0.82 0.94 1.07
2.02 1.95 1.74 1.56 1.35 1.20 1.10 1.04 0.99 0.92 0.95 0.93 0.90 0.88 0.91 0.94 0.93 0.99 1.03 1.01 0.98 0.92 0.87 0.79 0.74 0.68 0.52 0.46 0.45 0.48 0.52 0.64 0.69 0.71 0.77 0.85 0.87 0.81 0.83 0.82 0.92 1.01 1.11
1.91 1.86 1.69 1.58 1.44 1.25 1.13 1.05 1.00 0.96 0.91 0.87 0.83 0.76 0.72 0.75 0.76 0.84 0.95 1.02 0.98 0.88 0.80 0.74 0.71 0.66 0.54 0.50 0.49 0.52 0.56 0.61 0.57 0.53 0.58 0.64 0.69 0.70 0.77 0.87 1.04 1.09 1.20
1.43 1.41 1.36 1.32 1.27 1.13 1.04 1.02 1.01 0.93 0.85 0.77 0.70 0.65 0.64 0.68 0.69 0.75 0.86 0.92 0.94 0.83 0.69 0.62 0.63 0.60 0.58 0.53 0.47 0.46 0.49 0.57 0.54 0.56 0.63 0.61 0.55 0.60 0.72 0.91 1.12 1.27 1.31
1.19 1.13 1.12 1.14 1.11 1.01 0.99 1.01 0.98 0.90 0.73 0.62 0.60 0.61 0.66 0.69 0.67 0.75 0.83 0.81 0.75 0.75 0.68 0.62 0.61 0.55 0.48 0.42 0.37 0.38 0.42 0.48 0.54 0.61 0.69 0.70 0.61 0.56 0.63 0.83 1.03 1.21 1.25
1.24 1.14 1.09 1.04 0.96 0.92 0.99 1.02 0.93 0.75 0.62 0.60 0.63 0.67 0.66 0.62 0.61 0.73 0.80 0.73 0.71 0.70 0.68 0.66 0.61 0.50 0.40 0.35 0.30 0.28 0.30 0.35 0.53 0.68 0.68 0.68 0.65 0.62 0.69 0.84 1.01 1.13 1.32
1.18 1.13 1.03 0.94 0.83 0.78 0.83 0.87 0.74 0.56 0.52 0.58 0.66 0.68 0.63 0.70 0.70 0.67 0.67 0.67 0.69 0.61 0.56 0.56 0.53 0.49 0.44 0.37 0.28 0.25 0.26 0.32 0.45 0.61 0.65 0.62 0.60 0.70 0.91 1.03 1.13 1.28 1.50
0.99 0.90 0.85 0.80 0.71 0.63 0.60 0.60 0.50 0.48 0.54 0.62 0.64 0.62 0.65 0.76 0.75 0.65 0.56 0.54 0.53 0.49 0.46 0.47 0.46 0.47 0.47 0.37 0.31 0.32 0.32 0.36 0.44 0.56 0.68 0.73 0.75 0.92 1.13 1.27 1.37 1.46 1.54
0.80 0.72 0.70 0.66 0.55 0.50 0.47 0.42 0.39 0.43 0.54 0.57 0.60 0.60 0.62 0.66 0.71 0.61 0.48 0.44 0.38 0.31 0.31 0.33 0.34 0.42 0.41 0.30 0.28 0.31 0.34 0.39 0.44 0.53 0.71 0.86 0.90 1.03 1.18 1.31 1.38 1.43 1.43
0.67 0.64 0.59 0.55 0.48 0.46 0.43 0.40 0.36 0.39 0.50 0.54 0.52 0.47 0.50 0.53 0.55 0.55 0.48 0.32 0.19 0.15 0.14 0.14 0.19 0.23 0.24 0.22 0.21 0.24 0.29 0.35 0.45 0.61 0.88 0.96 0.94 0.99 1.09 1.20 1.30 1.29 1.26

GEFSMW_prec_meanprecacc_246.txt.gz
Total_Precipitation_Accumulation
1.40 1.60 2.07 2.69 3.10 3.57 3.98 4.00 3.72 3.73 3.76 3.81 3.65 3.84 4.07 4.34 4.59 4.49 4.36 4.26 4.18 4.14 4.15 4.17 4.16 4.02 3.92 3.78 3.60 3.51 3.39 3.14 2.94 2.89 2.57 2.19 1.92 1.83 1.79 1.83 1.90 1.90 1.91
1.51 1.78 2.19 2.50 2.91 3.25 3.44 3.75 3.88 3.91 3.68 4.00 4.30 4.54 4.86 4.92 5.20 5.48 5.53 5.34 5.07 4.85 4.62 4.60 4.38 4.08 3.90 3.76 3.57 3.43 3.27 2.98 2.85 2.81 2.79 2.36 1.99 1.65 1.46 1.55 1.55 1.61 1.78
1.78 2.08 2.35 2.48 2.71 3.09 3.37 3.68 3.99 4.10 4.00 4.42 4.92 5.36 5.72 5.68 5.69 5.72 5.73 5.67 5.25 4.88 4.64 4.39 4.24 4.06 3.89 3.72 3.60 3.47 3.33 3.06 2.86 2.75 2.92 2.76 2.39 1.93 1.69 1.54 1.54 1.62 1.70
1.65 1.92 2.21 2.59 2.61 2.89 3.19 3.43 3.79 4.19 4.49 4.91 5.39 5.94 6.24 6.39 6.22 5.88 5.62 5.27 4.87 4.50 4.11 3.91 3.94 3.81 3.61 3.39 3.14 3.01 2.97 2.90 2.76 2.69 2.59 2.58 2.51 2.32 2.04 1.80 1.79 1.83 1.79
1.62 1.78 1.90 2.21 2.42 2.67 2.96 3.25 3.58 3.98 4.61 5.38 5.96 6.36 6.68 6.63 6.14 5.62 5.04 4.58 4.23 3.93 3.65 3.48 3.56 3.45 3.22 3.01 2.75 2.53 2.43 2.40 2.45 2.48 2.45 2.39 2.35 2.18 2.06 1.91 1.83 1.81 1.77
1.71 1.83 1.92 2.17 2.32 2.44 2.71 3.05 3.46 3.77 4.28 5.01 5.66 5.96 6.17 6.10 5.67 5.04 4.50 4.10 3.68 3.33 3.01 2.73 2.67 2.60 2.45 2.34 2.29 2.21 2.16 2.13 2.19 2.22 2.16 2.15 2.15 2.11 2.10 2.01 1.84 1.82 1.88
1.90 1.84 1.82 1.94 2.14 2.26 2.45 2.74 3.08 3.49 3.81 4.21 4.82 4.94 4.99 4.79 4.39 4.17 3.88 3.44 3.04 2.69 2.37 2.14 2.04 2.01 2.00 1.97 1.98 1.96 1.94 1.89 1.91 1.91 1.90 1.89 1.85 1.87 2.02 2.15 2.08 1.96 1.83
1.72 1.72 1.65 1.84 2.05 2.25 2.41 2.57 2.81 3.21 3.53 3.64 3.76 3.70 3.60 3.53 3.37 3.16 2.82 2.52 2.29 2.13 1.99 1.84 1.73 1.69 1.74 1.75 1.82 1.76 1.67 1.61 1.61 1.56 1.61 1.65 1.60 1.71 1.91 2.05 2.23 2.22 1.97
1.50 1.55 1.56 1.65 1.83 2.13 2.29 2.42 2.54 2.70 2.71 2.69 2.69 2.67 2.66 2.54 2.50 2.41 2.14 1.95 1.81 1.68 1.62 1.59 1.55 1.48 1.43 1.40 1.39 1.36 1.36 1.41 1.43 1.38 1.38 1.39 1.40 1.51 1.66 1.80 2.06 2.27 2.17
1.50 1.51 1.56 1.63 1.60 1.70 1.85 2.00 2.13 2.27 2.24 2.10 1.99 2.03 2.02 1.92 1.81 1.67 1.56 1.47 1.39 1.32 1.32 1.27 1.24 1.27 1.28 1.21 1.15 1.12 1.15 1.18 1.25 1.29 1.25 1.24 1.23 1.29 1.36 1.47 1.66 1.93 2.09
1.56 1.47 1.51 1.53 1.46 1.41 1.40 1.48 1.60 1.78 1.85 1.78 1.73 1.75 1.69 1.62 1.50 1.40 1.31 1.24 1.18 1.14 1.10 1.08 1.05 1.04 1.03 1.01 1.06 1.05 1.06 1.13 1.16 1.16 1.17 1.17 1.20 1.26 1.23 1.29 1.42 1.60 1.81
1.54 1.43 1.41 1.46 1.42 1.35 1.25 1.29 1.35 1.32 1.38 1.41 1.53 1.64 1.54 1.47 1.39 1.32 1.24 1.18 1.07 1.03 1.03 1.03 0.97 0.87 0.85 0.92 1.00 1.01 1.00 1.09 1.09 1.09 1.15 1.15 1.18 1.22 1.22 1.28 1.36 1.50 1.71
1.72 1.54 1.39 1.36 1.38 1.29 1.23 1.22 1.25 1.17 1.14 1.14 1.20 1.33 1.37 1.34 1.31 1.16 1.08 1.04 1.01 1.00 0.98 0.92 0.90 0.87 0.82 0.84 0.84 0.86 0.87 0.93 1.01 1.04 1.10 1.14 1.18 1.17 1.20 1.26 1.32 1.45 1.58
1.71 1.50 1.40 1.34 1.26 1.20 1.18 1.16 1.10 0.99 0.98 1.02 1.12 1.16 1.20 1.22 1.22 1.11 1.01 0.97 0.94 0.91 0.88 0.80 0.78 0.83 0.81 0.74 0.69 0.71 0.76 0.84 0.87 0.89 1.00 1.06 1.09 1.09 1.17 1.23 1.31 1.40 1.56
1.64 1.59 1.45 1.33 1.16 1.06 1.04 1.02 0.98 0.93 0.90 0.96 1.08 1.16 1.10 1.06 1.12 1.16 1.05 0.93 0.88 0.82 0.81 0.75 0.70 0.74 0.73 0.66 0.67 0.68 0.69 0.75 0.76 0.78 0.86 0.92 0.93 0.92 0.99 1.01 1.14 1.31 1.48
1.84 1.79 1.65 1.47 1.27 1.12 1.05 1.04 1.00 0.88 0.82 0.88 1.03 1.09 1.09 1.07 1.09 1.14 1.08 0.99 0.92 0.89 0.84 0.79 0.74 0.73 0.66 0.66 0.62 0.60 0.63 0.71 0.78 0.85 0.86 0.81 0.81 0.77 0.74 0.80 0.90 1.09 1.32
1.89 1.80 1.71 1.54 1.35 1.27 1.15 1.13 1.06 0.92 0.90 0.92 0.95 1.03 1.08 1.11 1.13 1.11 1.07 1.03 1.02 1.01 0.91 0.80 0.77 0.74 0.66 0.57 0.48 0.48 0.56 0.73 0.85 0.91 0.88 0.75 0.71 0.82 0.83 0.84 0.85 0.96 1.10
2.06 1.98 1.76 1.58 1.37 1.22 1.13 1.07 1.01 0.94 0.97 0.96 0.92 0.93 0.94 0.95 0.95 1.01 1.06 1.04 1.01 0.96 0.89 0.82 0.76 0.71 0.54 0.48 0.45 0.48 0.54 0.67 0.72 0.74 0.80 0.87 0.89 0.83 0.85 0.85 0.96 1.05 1.14
1.96 1.90 1.72 1.59 1.46 1.27 1.15 1.06 1.02 0.98 0.92 0.89 0.86 0.81 0.76 0.78 0.80 0.88 0.99 1.06 1.02 0.92 0.84 0.76 0.73 0.69 0.58 0.52 0.50 0.53 0.59 0.65 0.60 0.56 0.60 0.66 0.72 0.72 0.79 0.90 1.08 1.14 1.25
1.46 1.43 1.38 1.34 1.28 1.15 1.07 1.06 1.04 0.96 0.87 0.79 0.72 0.67 0.69 0.72 0.74 0.80 0.91 0.96 0.99 0.88 0.73 0.65 0.66 0.64 0.62 0.55 0.48 0.47 0.51 0.59 0.57 0.59 0.65 0.63 0.57 0.61 0.73 0.93 1.16 1.31 1.36
1.21 1.14 1.13 1.17 1.13 1.03 1.01 1.04 1.00 0.92 0.76 0.65 0.62 0.63 0.68 0.72 0.71 0.80 0.89 0.87 0.81 0.79 0.71 0.66 0.64 0.58 0.50 0.44 0.37 0.38 0.43 0.51 0.58 0.64 0.71 0.72 0.61 0.57 0.64 0.84 1.06 1.23 1.28
1.25 1.15 1.10 1.06 0.98 0.94 1.01 1.03 0.95 0.77 0.63 0.61 0.64 0.68 0.68 0.64 0.64 0.78 0.86 0.78 0.76 0.74 0.72 0.70 0.64 0.54 0.43 0.36 0.31 0.28 0.30 0.36 0.55 0.70 0.70 0.70 0.66 0.62 0.69 0.84 1.01 1.14 1.33
1.19 1.14 1.04 0.95 0.85 0.80 0.87 0.90 0.77 0.57 0.53 0.59 0.68 0.69 0.65 0.72 0.74 0.72 0.72 0.72 0.73 0.64 0.58 0.59 0.55 0.51 0.45 0.38 0.29 0.25 0.26 0.32 0.47 0.63 0.68 0.64 0.61 0.71 0.92 1.04 1.14 1.29 1.51
1.00 0.91 0.86 0.81 0.72 0.65 0.63 0.62 0.51 0.49 0.55 0.64 0.67 0.64 0.67 0.78 0.78 0.69 0.59 0.56 0.56 0.52 0.49 0.50 0.48 0.49 0.48 0.39 0.32 0.33 0.33 0.37 0.45 0.58 0.71 0.75 0.77 0.93 1.14 1.28 1.38 1.48 1.56
0.81 0.73 0.70 0.67 0.56 0.51 0.48 0.42 0.39 0.44 0.55 0.58 0.62 0.63 0.64 0.69 0.75 0.66 0.51 0.46 0.40 0.33 0.33 0.37 0.37 0.43 0.42 0.31 0.29 0.31 0.35 0.40 0.46 0.55 0.73 0.88 0.92 1.04 1.20 1.33 1.40 1.45 1.46
0.68 0.65 0.60 0.55 0.48 0.46 0.43 0.40 0.37 0.40 0.52 0.56 0.54 0.50 0.53 0.56 0.58 0.58 0.50 0.33 0.20 0.15 0.14 0.15 0.20 0.24 0.25 0.22 0.21 0.24 0.30 0.36 0.46 0.62 0.89 0.97 0.96 1.01 1.11 1.23 1.32 1.31 1.28

GEFSMW_prec_meanprecacc_252.txt.gz
Total_Precipitation_Accumulation
1.45 1.64 2.11 2.72 3.14 3.63 4.06 4.06 3.83 3.86 3.87 3.88 3.71 3.91 4.13 4.40 4.65 4.55 4.44 4.33 4.25 4.20 4.20 4.22 4.20 4.05 3.95 3.80 3.63 3.53 3.41 3.16 2.96 2.90 2.58 2.20 1.93 1.83 1.79 1.84 1.92 1.91 1.92
1.58 1.83 2.26 2.56 2.96 3.31 3.51 3.82 3.95 3.99 3.76 4.07 4.36 4.62 4.96 5.01 5.29 5.55 5.60 5.41 5.14 4.90 4.67 4.65 4.42 4.11 3.93 3.79 3.59 3.45 3.28 2.99 2.86 2.82 2.81 2.37 2.00 1.66 1.46 1.55 1.56 1.63 1.79
1.81 2.13 2.42 2.55 2.76 3.14 3.42 3.73 4.03 4.14 4.06 4.52 5.03 5.47 5.84 5.79 5.81 5.82 5.81 5.73 5.30 4.92 4.68 4.44 4.28 4.10 3.92 3.74 3.63 3.49 3.35 3.08 2.88 2.78 2.95 2.78 2.40 1.94 1.70 1.55 1.55 1.63 1.72
1.69 1.98 2.28 2.67 2.68 2.93 3.22 3.47 3.83 4.22 4.52 4.95 5.45 6.01 6.35 6.55 6.38 6.02 5.74 5.35 4.92 4.54 4.14 3.95 3.98 3.84 3.64 3.42 3.16 3.03 2.99 2.92 2.78 2.71 2.62 2.61 2.53 2.34 2.04 1.80 1.80 1.84 1.82
1.66 1.84 1.98 2.28 2.48 2.71 3.00 3.30 3.63 4.02 4.66 5.44 6.02 6.44 6.79 6.78 6.26 5.72 5.14 4.67 4.32 4.01 3.71 3.53 3.59 3.48 3.24 3.03 2.77 2.55 2.45 2.42 2.47 2.50 2.47 2.42 2.37 2.21 2.09 1.92 1.83 1.82 1.78
1.75 1.87 1.97 2.21 2.37 2.49 2.76 3.12 3.54 3.87 4.40 5.15 5.79 6.07 6.27 6.21 5.76 5.13 4.59 4.18 3.76 3.40 3.07 2.79 2.70 2.63 2.47 2.36 2.31 2.23 2.18 2.15 2.21 2.24 2.18 2.17 2.18 2.14 2.14 2.04 1.85 1.83 1.89
1.93 1.87 1.85 1.98 2.18 2.31 2.51 2.81 3.18 3.63 3.98 4.37 4.93 5.02 5.07 4.85 4.46 4.23 3.94 3.49 3.08 2.73 2.41 2.19 2.08 2.04 2.02 1.98 1.99 1.98 1.96 1.91 1.93 1.93 1.92 1.92 1.88 1.91 2.07 2.19 2.11 1.97 1.84
1.74 1.74 1.68 1.87 2.08 2.29 2.46 2.63 2.88 3.27 3.61 3.71 3.81 3.73 3.63 3.57 3.42 3.22 2.87 2.57 2.34 2.17 2.03 1.89 1.76 1.72 1.77 1.77 1.84 1.78 1.69 1.63 1.63 1.59 1.63 1.68 1.63 1.75 1.95 2.09 2.27 2.25 1.99
1.52 1.58 1.59 1.69 1.87 2.17 2.34 2.47 2.59 2.75 2.77 2.73 2.72 2.71 2.69 2.58 2.53 2.43 2.17 1.98 1.86 1.72 1.66 1.62 1.59 1.52 1.47 1.44 1.42 1.40 1.39 1.44 1.45 1.41 1.40 1.41 1.42 1.53 1.68 1.83 2.09 2.30 2.21
1.53 1.54 1.60 1.69 1.65 1.75 1.89 2.02 2.16 2.31 2.29 2.14 2.02 2.08 2.08 1.96 1.84 1.70 1.59 1.50 1.43 1.35 1.35 1.29 1.27 1.30 1.32 1.24 1.18 1.15 1.17 1.21 1.27 1.32 1.27 1.25 1.25 1.31 1.37 1.49 1.67 1.95 2.12
1.59 1.50 1.56 1.57 1.48 1.43 1.42 1.50 1.61 1.79 1.87 1.80 1.76 1.78 1.74 1.67 1.56 1.45 1.35 1.27 1.22 1.17 1.13 1.11 1.08 1.07 1.04 1.03 1.07 1.06 1.08 1.15 1.18 1.18 1.19 1.20 1.22 1.27 1.24 1.30 1.43 1.62 1.83
1.56 1.46 1.44 1.47 1.43 1.36 1.26 1.30 1.36 1.33 1.39 1.42 1.54 1.66 1.57 1.50 1.44 1.39 1.31 1.23 1.11 1.07 1.06 1.06 1.00 0.89 0.86 0.93 1.01 1.02 1.01 1.10 1.11 1.11 1.18 1.18 1.19 1.23 1.24 1.29 1.37 1.51 1.72
1.74 1.55 1.40 1.37 1.38 1.30 1.24 1.23 1.26 1.18 1.14 1.15 1.21 1.34 1.38 1.36 1.35 1.20 1.12 1.08 1.04 1.03 1.01 0.95 0.91 0.87 0.82 0.85 0.85 0.86 0.87 0.94 1.02 1.05 1.12 1.15 1.19 1.19 1.21 1.27 1.33 1.46 1.59
1.73 1.51 1.41 1.35 1.27 1.21 1.19 1.16 1.10 1.00 0.99 1.03 1.13 1.17 1.21 1.25 1.26 1.15 1.04 0.99 0.96 0.93 0.90 0.81 0.79 0.83 0.82 0.74 0.70 0.71 0.76 0.84 0.88 0.90 1.01 1.08 1.11 1.10 1.18 1.24 1.32 1.41 1.58
1.69 1.61 1.47 1.34 1.17 1.07 1.05 1.02 0.99 0.93 0.91 0.97 1.09 1.18 1.12 1.08 1.14 1.18 1.06 0.94 0.89 0.82 0.82 0.76 0.71 0.75 0.73 0.67 0.68 0.68 0.69 0.75 0.76 0.79 0.87 0.94 0.95 0.94 1.01 1.03 1.16 1.33 1.51
1.89 1.84 1.67 1.49 1.28 1.13 1.06 1.04 1.00 0.88 0.83 0.89 1.05 1.11 1.10 1.08 1.10 1.14 1.09 1.01 0.93 0.90 0.85 0.79 0.74 0.73 0.67 0.66 0.62 0.61 0.64 0.72 0.79 0.86 0.87 0.82 0.82 0.79 0.76 0.82 0.92 1.11 1.35
1.95 1.86 1.74 1.56 1.37 1.28 1.16 1.14 1.07 0.93 0.92 0.94 0.96 1.04 1.08 1.12 1.14 1.11 1.07 1.04 1.02 1.02 0.91 0.81 0.78 0.74 0.66 0.58 0.49 0.49 0.57 0.74 0.86 0.92 0.89 0.76 0.72 0.83 0.85 0.86 0.87 0.98 1.11
2.11 2.02 1.78 1.61 1.39 1.23 1.15 1.09 1.03 0.96 1.01 0.98 0.94 0.95 0.95 0.97 0.96 1.02 1.07 1.05 1.02 0.96 0.90 0.82 0.78 0.72 0.55 0.48 0.45 0.49 0.55 0.68 0.72 0.74 0.81 0.88 0.90 0.84 0.87 0.88 0.99 1.06 1.16
1.98 1.92 1.74 1.61 1.47 1.29 1.19 1.10 1.04 1.01 0.98 0.92 0.88 0.83 0.78 0.80 0.82 0.89 1.00 1.07 1.03 0.93 0.84 0.77 0.74 0.70 0.58 0.53 0.51 0.54 0.60 0.65 0.61 0.57 0.62 0.69 0.74 0.74 0.81 0.93 1.10 1.15 1.26
1.48 1.46 1.40 1.36 1.30 1.18 1.12 1.09 1.06 0.99 0.90 0.82 0.76 0.69 0.70 0.73 0.74 0.81 0.92 0.98 1.00 0.89 0.74 0.66 0.67 0.65 0.62 0.56 0.49 0.48 0.51 0.59 0.57 0.60 0.67 0.64 0.58 0.63 0.76 0.96 1.19 1.32 1.37
1.24 1.17 1.15 1.18 1.16 1.06 1.05 1.07 1.02 0.93 0.77 0.66 0.64 0.64 0.69 0.74 0.72 0.82 0.90 0.88 0.83 0.82 0.73 0.67 0.66 0.60 0.51 0.44 0.38 0.39 0.44 0.52 0.58 0.65 0.73 0.73 0.62 0.57 0.65 0.85 1.08 1.25 1.29
1.29 1.18 1.12 1.08 1.00 0.96 1.04 1.06 0.97 0.79 0.65 0.62 0.65 0.69 0.69 0.66 0.65 0.80 0.88 0.80 0.77 0.76 0.73 0.71 0.66 0.55 0.44 0.37 0.31 0.29 0.30 0.36 0.55 0.71 0.71 0.70 0.66 0.62 0.70 0.85 1.02 1.15 1.34
1.22 1.16 1.06 0.97 0.86 0.82 0.89 0.91 0.78 0.59 0.55 0.60 0.68 0.70 0.65 0.73 0.74 0.73 0.74 0.74 0.75 0.66 0.59 0.60 0.57 0.52 0.46 0.39 0.29 0.25 0.26 0.32 0.47 0.63 0.68 0.64 0.61 0.71 0.92 1.04 1.14 1.30 1.53
1.02 0.94 0.89 0.83 0.74 0.67 0.65 0.63 0.53 0.50 0.56 0.65 0.68 0.65 0.68 0.79 0.79 0.70 0.60 0.58 0.57 0.53 0.50 0.51 0.49 0.50 0.49 0.39 0.33 0.33 0.33 0.37 0.45 0.59 0.72 0.76 0.77 0.93 1.14 1.28 1.38 1.49 1.57
0.84 0.76 0.72 0.68 0.58 0.54 0.50 0.43 0.41 0.45 0.56 0.60 0.64 0.64 0.65 0.70 0.75 0.67 0.51 0.46 0.41 0.34 0.34 0.37 0.38 0.44 0.43 0.32 0.30 0.32 0.36 0.41 0.47 0.56 0.74 0.88 0.92 1.05 1.20 1.33 1.41 1.46 1.47
0.72 0.69 0.63 0.58 0.51 0.48 0.45 0.42 0.38 0.41 0.53 0.57 0.55 0.51 0.54 0.57 0.59 0.59 0.50 0.34 0.21 0.16 0.14 0.16 0.20 0.24 0.25 0.22 0.22 0.25 0.31 0.37 0.47 0.63 0.89 0.97 0.96 1.01 1.11 1.23 1.33 1.32 1.29

GEFSMW_prec_meanprecacc_258.txt.gz
Total_Precipitation_Accumulation
1.47 1.66 2.14 2.75 3.17 3.68 4.12 4.12 3.91 3.93 3.96 4.00 3.81 3.98 4.18 4.47 4.73 4.62 4.51 4.42 4.33 4.26 4.27 4.28 4.27 4.11 4.01 3.87 3.69 3.57 3.44 3.19 3.00 2.93 2.60 2.21 1.93 1.84 1.80 1.84 1.92 1.92 1.93
1.59 1.85 2.29 2.60 3.00 3.35 3.56 3.87 4.03 4.07 3.84 4.15 4.44 4.70 5.02 5.07 5.36 5.61 5.66 5.49 5.22 4.97 4.75 4.72 4.49 4.19 4.02 3.87 3.66 3.50 3.32 3.03 2.90 2.85 2.83 2.38 2.01 1.66 1.47 1.56 1.57 1.63 1.80
1.82 2.15 2.45 2.59 2.80 3.18 3.48 3.79 4.11 4.24 4.15 4.60 5.12 5.53 5.89 5.83 5.85 5.87 5.87 5.81 5.41 5.01 4.76 4.51 4.36 4.17 4.00 3.82 3.69 3.55 3.40 3.13 2.92 2.81 2.99 2.80 2.41 1.95 1.70 1.56 1.55 1.64 1.73
1.71 2.00 2.30 2.70 2.71 2.97 3.28 3.54 3.94 4.36 4.65 5.03 5.52 6.06 6.39 6.60 6.43 6.07 5.79 5.42 5.01 4.63 4.23 4.03 4.05 3.91 3.71 3.49 3.22 3.09 3.04 2.95 2.81 2.73 2.63 2.62 2.54 2.35 2.05 1.81 1.80 1.85 1.82
1.67 1.86 2.00 2.31 2.52 2.75 3.05 3.35 3.69 4.10 4.72 5.48 6.08 6.49 6.84 6.84 6.30 5.76 5.18 4.71 4.37 4.07 3.78 3.60 3.66 3.53 3.30 3.08 2.82 2.61 2.50 2.46 2.50 2.53 2.49 2.43 2.38 2.22 2.10 1.93 1.84 1.82 1.79
1.75 1.89 2.00 2.25 2.41 2.53 2.80 3.16 3.59 3.95 4.47 5.21 5.86 6.15 6.34 6.28 5.83 5.18 4.63 4.21 3.79 3.44 3.12 2.85 2.76 2.68 2.51 2.40 2.35 2.26 2.23 2.21 2.26 2.28 2.21 2.19 2.20 2.15 2.15 2.05 1.86 1.83 1.89
1.94 1.88 1.88 2.00 2.23 2.36 2.57 2.88 3.24 3.70 4.05 4.45 5.01 5.09 5.14 4.93 4.54 4.30 4.00 3.53 3.11 2.76 2.43 2.22 2.11 2.07 2.04 2.01 2.01 2.00 1.99 1.94 1.98 1.98 1.96 1.95 1.91 1.93 2.08 2.20 2.11 1.98 1.85
1.75 1.76 1.70 1.89 2.12 2.33 2.51 2.68 2.95 3.33 3.67 3.79 3.88 3.81 3.71 3.63 3.49 3.28 2.91 2.60 2.36 2.19 2.05 1.90 1.78 1.74 1.78 1.79 1.86 1.81 1.73 1.67 1.67 1.63 1.67 1.71 1.66 1.76 1.96 2.11 2.29 2.27 2.00
1.53 1.60 1.62 1.72 1.91 2.22 2.38 2.51 2.64 2.80 2.83 2.80 2.78 2.76 2.75 2.64 2.60 2.48 2.20 2.00 1.86 1.73 1.67 1.64 1.62 1.54 1.49 1.45 1.44 1.42 1.41 1.46 1.47 1.44 1.43 1.44 1.44 1.55 1.70 1.85 2.11 2.33 2.22
1.55 1.57 1.64 1.73 1.69 1.78 1.92 2.05 2.18 2.33 2.31 2.17 2.06 2.11 2.11 1.99 1.88 1.74 1.62 1.51 1.43 1.36 1.36 1.31 1.30 1.33 1.34 1.25 1.18 1.16 1.18 1.22 1.29 1.34 1.30 1.29 1.28 1.34 1.39 1.50 1.68 1.96 2.13
1.61 1.52 1.58 1.60 1.50 1.44 1.42 1.51 1.62 1.80 1.88 1.82 1.77 1.79 1.75 1.68 1.57 1.47 1.38 1.31 1.24 1.19 1.15 1.15 1.12 1.09 1.06 1.04 1.08 1.07 1.08 1.16 1.19 1.20 1.22 1.24 1.28 1.33 1.29 1.33 1.45 1.63 1.84
1.59 1.48 1.46 1.50 1.45 1.37 1.27 1.31 1.38 1.35 1.40 1.43 1.55 1.66 1.58 1.51 1.45 1.41 1.37 1.30 1.16 1.11 1.10 1.10 1.03 0.91 0.87 0.94 1.02 1.03 1.01 1.11 1.12 1.12 1.20 1.21 1.24 1.29 1.29 1.34 1.40 1.53 1.73
1.77 1.58 1.42 1.40 1.41 1.32 1.26 1.25 1.27 1.19 1.16 1.17 1.21 1.34 1.39 1.37 1.36 1.21 1.15 1.14 1.09 1.07 1.03 0.97 0.93 0.89 0.83 0.85 0.85 0.87 0.88 0.95 1.03 1.07 1.14 1.18 1.23 1.23 1.25 1.31 1.36 1.49 1.61
1.75 1.53 1.43 1.37 1.29 1.23 1.20 1.17 1.11 1.01 1.00 1.04 1.14 1.17 1.21 1.25 1.27 1.17 1.06 1.02 0.99 0.95 0.91 0.83 0.81 0.84 0.82 0.74 0.70 0.72 0.77 0.85 0.89 0.91 1.02 1.09 1.13 1.14 1.22 1.27 1.34 1.43 1.60
1.71 1.64 1.49 1.36 1.19 1.08 1.06 1.03 0.99 0.94 0.92 0.98 1.10 1.18 1.12 1.09 1.15 1.20 1.09 0.95 0.90 0.84 0.83 0.77 0.71 0.75 0.74 0.67 0.68 0.69 0.70 0.76 0.77 0.80 0.88 0.95 0.97 0.97 1.05 1.07 1.19 1.36 1.54
1.91 1.86 1.69 1.50 1.29 1.14 1.06 1.04 1.01 0.89 0.84 0.90 1.05 1.11 1.11 1.08 1.10 1.15 1.09 1.01 0.95 0.91 0.86 0.80 0.74 0.73 0.67 0.67 0.63 0.61 0.64 0.72 0.79 0.86 0.87 0.82 0.83 0.81 0.78 0.86 0.96 1.14 1.37
1.97 1.88 1.77 1.59 1.39 1.30 1.17 1.15 1.08 0.94 0.93 0.95 0.97 1.05 1.09 1.13 1.14 1.12 1.08 1.05 1.04 1.03 0.92 0.82 0.79 0.75 0.67 0.59 0.50 0.50 0.57 0.74 0.86 0.92 0.89 0.76 0.72 0.83 0.85 0.87 0.89 1.01 1.14
2.12 2.05 1.82 1.65 1.42 1.25 1.17 1.11 1.04 0.97 1.03 1.00 0.95 0.95 0.96 0.97 0.97 1.03 1.08 1.07 1.04 0.97 0.91 0.84 0.79 0.73 0.55 0.49 0.46 0.50 0.56 0.68 0.72 0.75 0.81 0.89 0.90 0.84 0.88 0.88 0.99 1.08 1.18
1.99 1.94 1.76 1.63 1.48 1.30 1.21 1.12 1.06 1.04 1.00 0.94 0.89 0.84 0.79 0.82 0.83 0.90 1.02 1.09 1.06 0.95 0.85 0.78 0.75 0.71 0.58 0.53 0.51 0.54 0.60 0.65 0.61 0.58 0.63 0.70 0.75 0.75 0.82 0.94 1.11 1.17 1.28
1.49 1.46 1.40 1.36 1.31 1.19 1.13 1.11 1.10 1.04 0.96 0.86 0.78 0.72 0.73 0.75 0.76 0.83 0.94 1.00 1.03 0.91 0.75 0.67 0.67 0.65 0.62 0.57 0.49 0.48 0.51 0.60 0.58 0.61 0.68 0.66 0.60 0.66 0.77 0.97 1.20 1.34 1.38
1.25 1.17 1.15 1.19 1.16 1.08 1.09 1.10 1.04 0.97 0.83 0.73 0.70 0.69 0.73 0.76 0.75 0.85 0.93 0.89 0.83 0.82 0.74 0.67 0.66 0.60 0.51 0.45 0.38 0.39 0.44 0.52 0.59 0.65 0.73 0.73 0.63 0.58 0.66 0.87 1.09 1.26 1.30
1.33 1.20 1.14 1.10 1.02 1.00 1.08 1.09 1.00 0.82 0.69 0.67 0.68 0.72 0.72 0.68 0.68 0.83 0.89 0.81 0.78 0.77 0.75 0.72 0.66 0.56 0.45 0.38 0.32 0.29 0.30 0.36 0.55 0.71 0.72 0.71 0.67 0.63 0.71 0.86 1.04 1.16 1.35
1.28 1.22 1.12 1.02 0.92 0.88 0.93 0.95 0.81 0.62 0.57 0.62 0.70 0.71 0.67 0.75 0.76 0.74 0.75 0.75 0.76 0.67 0.60 0.61 0.58 0.52 0.47 0.39 0.29 0.25 0.26 0.32 0.47 0.64 0.69 0.65 0.62 0.72 0.93 1.05 1.15 1.31 1.53
1.05 0.97 0.91 0.86 0.78 0.70 0.68 0.65 0.54 0.52 0.57 0.66 0.69 0.66 0.68 0.79 0.80 0.71 0.61 0.58 0.58 0.54 0.51 0.52 0.50 0.51 0.50 0.40 0.33 0.33 0.34 0.38 0.46 0.59 0.73 0.77 0.78 0.94 1.15 1.29 1.39 1.49 1.58
0.86 0.78 0.75 0.71 0.60 0.56 0.51 0.44 0.41 0.46 0.57 0.60 0.64 0.64 0.65 0.71 0.76 0.67 0.52 0.47 0.42 0.36 0.36 0.38 0.39 0.45 0.44 0.33 0.31 0.33 0.37 0.42 0.47 0.57 0.74 0.89 0.93 1.05 1.21 1.34 1.41 1.46 1.47
0.74 0.72 0.65 0.61 0.53 0.50 0.47 0.43 0.39 0.42 0.54 0.58 0.55 0.51 0.54 0.57 0.60 0.59 0.50 0.34 0.21 0.16 0.15 0.16 0.21 0.25 0.26 0.24 0.23 0.26 0.32 0.38 0.48 0.64 0.90 0.98 0.96 1.02 1.12 1.23 1.33 1.32 1.29

GEFSMW_prec_meanprecacc_264.txt.gz
Total_Precipitation_Accumulation
1.47 1.67 2.15 2.78 3.21 3.73 4.17 4.16 3.93 3.96 4.00 4.04 3.87 4.05 4.24 4.53 4.79 4.68 4.57 4.50 4.40 4.33 4.33 4.34 4.33 4.17 4.07 3.94 3.77 3.67 3.53 3.29 3.09 3.02 2.68 2.28 2.00 1.90 1.86 1.90 1.97 1.95 1.96
1.61 1.86 2.31 2.63 3.04 3.41 3.62 3.93 4.08 4.11 3.87 4.17 4.47 4.75 5.08 5.12 5.41 5.66 5.72 5.55 5.28 5.04 4.82 4.80 4.56 4.25 4.09 3.95 3.74 3.60 3.40 3.10 2.98 2.94 2.90 2.44 2.06 1.70 1.50 1.59 1.60 1.66 1.82
1.85 2.17 2.48 2.62 2.84 3.22 3.52 3.85 4.17 4.28 4.18 4.62 5.14 5.56 5.92 5.85 5.88 5.91 5.91 5.87 5.47 5.07 4.84 4.61 4.45 4.25 4.09 3.91 3.79 3.64 3.47 3.19 2.99 2.89 3.06 2.87 2.47 1.99 1.73 1.57 1.57 1.65 1.74
1.73 2.02 2.33 2.72 2.73 3.00 3.31 3.59 4.00 4.40 4.68 5.06 5.53 6.08 6.41 6.62 6.46 6.11 5.84 5.48 5.06 4.69 4.31 4.12 4.13 3.99 3.80 3.58 3.30 3.16 3.11 3.02 2.87 2.78 2.68 2.66 2.58 2.39 2.09 1.83 1.82 1.86 1.84
1.68 1.87 2.01 2.33 2.54 2.77 3.07 3.39 3.74 4.13 4.74 5.51 6.10 6.51 6.87 6.87 6.34 5.80 5.22 4.76 4.42 4.12 3.83 3.66 3.72 3.62 3.39 3.18 2.91 2.69 2.58 2.54 2.58 2.59 2.54 2.47 2.41 2.25 2.13 1.95 1.86 1.84 1.80
1.76 1.89 2.00 2.26 2.43 2.55 2.82 3.18 3.62 3.98 4.51 5.25 5.91 6.19 6.38 6.32 5.87 5.24 4.69 4.26 3.85 3.49 3.16 2.90 2.82 2.76 2.59 2.49 2.43 2.35 2.31 2.29 2.34 2.35 2.28 2.25 2.24 2.19 2.19 2.08 1.88 1.86 1.92
1.94 1.88 1.88 2.01 2.24 2.38 2.59 2.90 3.27 3.74 4.11 4.51 5.05 5.14 5.19 4.97 4.59 4.37 4.06 3.59 3.16 2.80 2.47 2.25 2.15 2.11 2.08 2.06 2.07 2.06 2.05 2.01 2.05 2.05 2.03 2.02 1.97 1.98 2.14 2.25 2.15 2.00 1.87
1.75 1.76 1.70 1.89 2.13 2.36 2.55 2.72 2.98 3.38 3.72 3.84 3.93 3.86 3.74 3.66 3.53 3.32 2.96 2.63 2.39 2.21 2.07 1.93 1.80 1.75 1.80 1.82 1.90 1.86 1.78 1.72 1.73 1.68 1.73 1.78 1.72 1.82 2.02 2.15 2.33 2.31 2.03
1.53 1.61 1.63 1.74 1.94 2.25 2.41 2.55 2.68 2.83 2.85 2.83 2.83 2.81 2.79 2.67 2.63 2.52 2.23 2.02 1.88 1.74 1.69 1.66 1.63 1.55 1.51 1.47 1.46 1.44 1.44 1.49 1.51 1.47 1.47 1.47 1.48 1.58 1.74 1.89 2.16 2.38 2.27
1.56 1.58 1.66 1.76 1.70 1.80 1.93 2.07 2.21 2.35 2.33 2.20 2.09 2.15 2.14 2.02 1.91 1.77 1.65 1.54 1.46 1.38 1.37 1.33 1.31 1.35 1.36 1.28 1.21 1.18 1.20 1.24 1.31 1.37 1.33 1.32 1.31 1.37 1.42 1.53 1.72 2.00 2.18
1.61 1.53 1.59 1.63 1.51 1.46 1.44 1.51 1.64 1.82 1.90 1.83 1.79 1.82 1.78 1.71 1.59 1.50 1.41 1.33 1.25 1.20 1.16 1.16 1.14 1.12 1.09 1.07 1.11 1.09 1.11 1.18 1.20 1.21 1.23 1.26 1.30 1.36 1.32 1.36 1.48 1.65 1.87
1.60 1.49 1.47 1.52 1.46 1.38 1.28 1.32 1.39 1.37 1.42 1.45 1.57 1.68 1.59 1.53 1.47 1.44 1.40 1.32 1.17 1.13 1.12 1.12 1.05 0.92 0.89 0.96 1.04 1.05 1.02 1.12 1.13 1.13 1.21 1.23 1.26 1.32 1.33 1.37 1.43 1.56 1.76
1.78 1.59 1.43 1.41 1.42 1.33 1.27 1.26 1.29 1.20 1.17 1.19 1.23 1.35 1.40 1.39 1.37 1.23 1.17 1.16 1.11 1.09 1.05 0.99 0.95 0.90 0.86 0.88 0.89 0.90 0.89 0.96 1.05 1.08 1.15 1.19 1.24 1.25 1.28 1.33 1.38 1.50 1.63
1.77 1.55 1.44 1.38 1.30 1.24 1.22 1.18 1.13 1.02 1.02 1.05 1.15 1.19 1.22 1.27 1.28 1.19 1.10 1.06 1.01 0.98 0.93 0.84 0.82 0.87 0.85 0.77 0.72 0.73 0.78 0.87 0.90 0.92 1.03 1.10 1.14 1.15 1.23 1.29 1.36 1.45 1.62
1.73 1.65 1.50 1.37 1.20 1.10 1.07 1.04 1.01 0.95 0.93 0.99 1.11 1.19 1.13 1.10 1.17 1.23 1.12 0.97 0.93 0.86 0.84 0.78 0.73 0.77 0.75 0.68 0.69 0.70 0.71 0.77 0.78 0.81 0.89 0.96 0.98 0.99 1.06 1.09 1.21 1.39 1.57
1.93 1.87 1.71 1.52 1.31 1.15 1.08 1.05 1.01 0.89 0.85 0.91 1.06 1.12 1.12 1.09 1.11 1.16 1.11 1.02 0.96 0.92 0.87 0.81 0.76 0.74 0.68 0.67 0.63 0.62 0.66 0.74 0.81 0.87 0.88 0.84 0.84 0.82 0.79 0.86 0.97 1.17 1.40
1.98 1.89 1.78 1.60 1.41 1.31 1.19 1.16 1.09 0.95 0.95 0.96 0.98 1.06 1.09 1.14 1.16 1.14 1.10 1.06 1.05 1.04 0.94 0.83 0.80 0.76 0.68 0.60 0.50 0.51 0.59 0.76 0.88 0.94 0.91 0.77 0.73 0.84 0.85 0.87 0.89 1.02 1.15
2.13 2.06 1.83 1.65 1.42 1.27 1.19 1.13 1.07 1.00 1.05 1.02 0.96 0.97 0.97 0.99 0.99 1.05 1.10 1.08 1.05 0.99 0.93 0.85 0.81 0.75 0.58 0.51 0.47 0.51 0.57 0.69 0.74 0.76 0.82 0.90 0.91 0.85 0.89 0.89 1.00 1.09 1.19
2.01 1.95 1.76 1.63 1.49 1.32 1.23 1.14 1.08 1.06 1.02 0.96 0.92 0.87 0.82 0.84 0.85 0.92 1.03 1.11 1.08 0.97 0.88 0.80 0.78 0.74 0.62 0.55 0.52 0.55 0.61 0.67 0.62 0.59 0.64 0.71 0.76 0.77 0.84 0.95 1.12 1.18 1.30
1.50 1.47 1.41 1.37 1.33 1.21 1.15 1.13 1.12 1.06 0.98 0.88 0.81 0.75 0.76 0.79 0.80 0.85 0.96 1.03 1.07 0.95 0.78 0.70 0.71 0.68 0.65 0.58 0.49 0.49 0.52 0.61 0.59 0.63 0.69 0.66 0.60 0.67 0.78 0.98 1.21 1.37 1.42
1.25 1.18 1.16 1.20 1.18 1.10 1.11 1.12 1.06 0.99 0.85 0.76 0.73 0.72 0.75 0.79 0.78 0.87 0.95 0.92 0.86 0.84 0.76 0.70 0.68 0.62 0.52 0.45 0.38 0.39 0.45 0.53 0.60 0.67 0.75 0.74 0.63 0.59 0.67 0.88 1.10 1.27 1.32
1.34 1.21 1.17 1.13 1.05 1.03 1.11 1.12 1.03 0.85 0.72 0.69 0.71 0.75 0.75 0.71 0.71 0.86 0.93 0.84 0.80 0.79 0.76 0.73 0.68 0.57 0.46 0.38 0.32 0.29 0.31 0.37 0.56 0.72 0.73 0.72 0.67 0.63 0.71 0.86 1.04 1.17 1.36
1.29 1.24 1.14 1.06 0.96 0.91 0.96 0.98 0.85 0.67 0.60 0.65 0.73 0.76 0.71 0.78 0.79 0.77 0.78 0.78 0.78 0.68 0.62 0.63 0.60 0.54 0.48 0.40 0.30 0.26 0.27 0.33 0.47 0.64 0.70 0.66 0.62 0.72 0.93 1.05 1.16 1.32 1.55
1.08 0.99 0.93 0.89 0.81 0.73 0.70 0.67 0.57 0.53 0.59 0.68 0.72 0.70 0.71 0.82 0.82 0.74 0.64 0.61 0.60 0.56 0.53 0.54 0.53 0.53 0.53 0.42 0.35 0.35 0.35 0.39 0.46 0.60 0.74 0.78 0.78 0.95 1.16 1.30 1.40 1.51 1.60
0.89 0.80 0.77 0.74 0.63 0.58 0.53 0.46 0.44 0.48 0.58 0.62 0.66 0.66 0.68 0.73 0.79 0.70 0.55 0.50 0.44 0.37 0.37 0.40 0.40 0.46 0.45 0.34 0.32 0.34 0.38 0.43 0.48 0.58 0.76 0.90 0.94 1.07 1.22 1.35 1.42 1.48 1.49
0.76 0.75 0.67 0.63 0.55 0.52 0.49 0.45 0.41 0.44 0.56 0.60 0.57 0.53 0.56 0.59 0.63 0.62 0.53 0.36 0.23 0.17 0.16 0.17 0.22 0.25 0.26 0.24 0.23 0.26 0.32 0.38 0.48 0.64 0.91 1.00 0.98 1.03 1.13 1.25 1.34 1.34 1.32

GEFSMW_prec_meanprecacc_270.txt.gz
Total_Precipitation_Accumulation
1.48 1.68 2.17 2.80 3.23 3.77 4.22 4.21 3.99 4.00 4.05 4.10 3.92 4.10 4.30 4.59 4.84 4.73 4.61 4.52 4.43 4.38 4.39 4.41 4.41 4.26 4.17 4.03 3.88 3.78 3.63 3.39 3.22 3.16 2.81 2.39 2.08 1.98 1.92 1.95 2.02 2.01 2.02
1.62 1.88 2.34 2.65 3.06 3.44 3.66 3.98 4.14 4.16 3.91 4.23 4.53 4.80 5.14 5.18 5.46 5.71 5.75 5.58 5.30 5.10 4.91 4.89 4.62 4.32 4.16 4.01 3.81 3.68 3.49 3.17 3.07 3.03 3.01 2.55 2.16 1.78 1.56 1.66 1.66 1.72 1.88
1.87 2.21 2.53 2.65 2.87 3.26 3.55 3.88 4.22 4.33 4.22 4.67 5.18 5.61 5.97 5.90 5.93 5.96 5.97 5.91 5.50 5.13 4.91 4.69 4.52 4.32 4.17 3.98 3.85 3.71 3.55 3.25 3.06 2.97 3.16 2.98 2.56 2.07 1.80 1.64 1.63 1.72 1.80
1.76 2.05 2.37 2.76 2.76 3.03 3.35 3.62 4.04 4.45 4.72 5.09 5.58 6.13 6.46 6.68 6.53 6.19 5.91 5.54 5.10 4.73 4.35 4.17 4.21 4.08 3.89 3.66 3.37 3.25 3.22 3.13 2.96 2.88 2.77 2.75 2.69 2.49 2.18 1.92 1.89 1.93 1.89
1.69 1.88 2.03 2.35 2.56 2.79 3.09 3.42 3.77 4.19 4.79 5.55 6.15 6.57 6.93 6.95 6.43 5.89 5.30 4.83 4.48 4.16 3.87 3.73 3.81 3.70 3.47 3.27 3.02 2.81 2.68 2.65 2.70 2.70 2.63 2.55 2.52 2.36 2.23 2.04 1.95 1.92 1.86
1.76 1.90 2.03 2.29 2.45 2.57 2.84 3.21 3.64 4.03 4.56 5.30 5.95 6.25 6.45 6.41 5.98 5.35 4.79 4.35 3.92 3.56 3.22 2.97 2.90 2.82 2.66 2.57 2.53 2.45 2.42 2.41 2.44 2.44 2.37 2.33 2.32 2.28 2.30 2.18 1.96 1.92 1.98
1.96 1.91 1.90 2.02 2.25 2.39 2.61 2.92 3.30 3.78 4.15 4.56 5.11 5.19 5.24 5.04 4.67 4.46 4.15 3.66 3.22 2.85 2.52 2.29 2.19 2.15 2.14 2.14 2.14 2.13 2.13 2.09 2.13 2.12 2.11 2.09 2.04 2.07 2.24 2.34 2.21 2.07 1.94
1.78 1.80 1.74 1.91 2.16 2.40 2.59 2.75 3.01 3.41 3.76 3.90 4.00 3.92 3.80 3.71 3.58 3.39 3.02 2.68 2.42 2.24 2.10 1.95 1.82 1.79 1.84 1.86 1.95 1.90 1.83 1.79 1.79 1.74 1.79 1.84 1.77 1.88 2.08 2.22 2.39 2.37 2.10
1.55 1.64 1.68 1.79 1.98 2.30 2.46 2.59 2.71 2.87 2.90 2.89 2.88 2.86 2.84 2.70 2.67 2.58 2.29 2.07 1.93 1.79 1.72 1.69 1.65 1.59 1.54 1.51 1.50 1.49 1.49 1.54 1.54 1.51 1.51 1.51 1.52 1.63 1.79 1.96 2.24 2.45 2.34
1.57 1.60 1.69 1.80 1.75 1.84 1.97 2.10 2.24 2.39 2.37 2.25 2.13 2.17 2.17 2.05 1.94 1.81 1.70 1.58 1.51 1.42 1.40 1.36 1.35 1.39 1.40 1.31 1.25 1.22 1.25 1.28 1.34 1.39 1.37 1.35 1.35 1.41 1.47 1.58 1.78 2.06 2.25
1.63 1.55 1.61 1.64 1.53 1.47 1.45 1.53 1.66 1.85 1.93 1.85 1.82 1.84 1.81 1.74 1.61 1.52 1.44 1.37 1.29 1.24 1.20 1.19 1.16 1.14 1.11 1.09 1.13 1.12 1.15 1.21 1.23 1.24 1.27 1.29 1.34 1.40 1.35 1.40 1.52 1.69 1.92
1.62 1.50 1.48 1.53 1.46 1.39 1.29 1.33 1.40 1.39 1.45 1.47 1.60 1.71 1.62 1.56 1.49 1.46 1.43 1.37 1.22 1.18 1.16 1.15 1.07 0.94 0.90 0.98 1.06 1.07 1.05 1.15 1.16 1.16 1.24 1.25 1.28 1.35 1.35 1.40 1.46 1.59 1.79
1.79 1.61 1.46 1.42 1.43 1.34 1.28 1.28 1.30 1.23 1.20 1.22 1.27 1.40 1.43 1.41 1.39 1.26 1.21 1.21 1.16 1.13 1.08 1.01 0.97 0.92 0.87 0.90 0.90 0.91 0.92 0.99 1.07 1.10 1.17 1.22 1.27 1.28 1.30 1.35 1.40 1.53 1.66
1.79 1.58 1.47 1.41 1.32 1.26 1.24 1.21 1.16 1.06 1.05 1.09 1.19 1.22 1.25 1.30 1.33 1.24 1.15 1.10 1.05 1.02 0.97 0.87 0.85 0.89 0.87 0.79 0.73 0.75 0.81 0.89 0.92 0.94 1.05 1.12 1.17 1.18 1.26 1.31 1.38 1.47 1.65
1.75 1.68 1.52 1.40 1.23 1.13 1.11 1.07 1.04 0.97 0.96 1.03 1.14 1.22 1.16 1.15 1.22 1.28 1.17 1.02 0.97 0.90 0.88 0.82 0.76 0.80 0.77 0.69 0.70 0.71 0.72 0.78 0.80 0.82 0.91 0.97 1.00 1.01 1.07 1.10 1.23 1.41 1.60
1.94 1.88 1.71 1.53 1.33 1.17 1.10 1.07 1.03 0.91 0.89 0.95 1.09 1.15 1.15 1.14 1.16 1.21 1.15 1.07 1.01 0.97 0.92 0.87 0.81 0.78 0.70 0.69 0.64 0.62 0.66 0.75 0.83 0.90 0.90 0.86 0.86 0.83 0.80 0.88 0.99 1.18 1.42
1.99 1.91 1.80 1.62 1.43 1.33 1.21 1.18 1.11 0.98 0.99 1.00 1.01 1.08 1.12 1.16 1.19 1.18 1.15 1.12 1.12 1.13 1.03 0.93 0.89 0.83 0.73 0.62 0.51 0.51 0.60 0.77 0.89 0.96 0.93 0.79 0.74 0.85 0.87 0.89 0.91 1.03 1.16
2.16 2.08 1.85 1.67 1.44 1.28 1.21 1.16 1.08 1.02 1.07 1.04 0.99 0.99 0.99 1.01 1.02 1.10 1.14 1.13 1.11 1.05 0.99 0.90 0.86 0.83 0.63 0.53 0.48 0.51 0.57 0.71 0.76 0.78 0.84 0.92 0.93 0.87 0.90 0.91 1.02 1.10 1.21
2.03 1.97 1.78 1.64 1.51 1.34 1.24 1.16 1.10 1.09 1.04 0.98 0.94 0.89 0.83 0.86 0.88 0.96 1.07 1.16 1.14 1.02 0.92 0.84 0.81 0.78 0.64 0.57 0.53 0.56 0.62 0.68 0.65 0.61 0.65 0.72 0.78 0.78 0.85 0.96 1.14 1.20 1.33
1.52 1.49 1.43 1.39 1.37 1.24 1.18 1.17 1.15 1.09 1.00 0.90 0.83 0.77 0.77 0.81 0.83 0.89 1.00 1.08 1.12 0.99 0.81 0.74 0.75 0.71 0.68 0.60 0.51 0.50 0.53 0.62 0.62 0.65 0.71 0.68 0.62 0.67 0.79 0.99 1.23 1.39 1.46
1.27 1.19 1.18 1.24 1.22 1.13 1.15 1.16 1.10 1.02 0.88 0.78 0.75 0.73 0.77 0.83 0.82 0.93 1.01 0.97 0.91 0.88 0.79 0.73 0.72 0.65 0.54 0.47 0.39 0.40 0.46 0.55 0.62 0.69 0.77 0.77 0.64 0.59 0.67 0.88 1.11 1.29 1.34
1.35 1.23 1.19 1.17 1.11 1.11 1.18 1.18 1.07 0.88 0.75 0.72 0.75 0.78 0.78 0.74 0.75 0.91 0.98 0.90 0.86 0.84 0.80 0.76 0.71 0.60 0.49 0.39 0.33 0.30 0.31 0.37 0.58 0.75 0.75 0.73 0.68 0.65 0.72 0.87 1.04 1.18 1.38
1.31 1.25 1.17 1.10 1.03 1.00 1.06 1.06 0.90 0.70 0.64 0.68 0.78 0.80 0.74 0.82 0.84 0.83 0.85 0.86 0.86 0.76 0.68 0.68 0.65 0.59 0.53 0.43 0.31 0.27 0.27 0.33 0.48 0.65 0.71 0.67 0.63 0.73 0.95 1.06 1.16 1.33 1.56
1.10 1.01 0.96 0.94 0.87 0.79 0.77 0.74 0.62 0.57 0.62 0.72 0.77 0.75 0.77 0.86 0.87 0.79 0.68 0.66 0.67 0.64 0.59 0.58 0.57 0.57 0.57 0.45 0.37 0.36 0.35 0.39 0.47 0.61 0.74 0.79 0.79 0.96 1.16 1.31 1.40 1.52 1.62
0.93 0.84 0.81 0.77 0.67 0.62 0.58 0.51 0.47 0.52 0.62 0.67 0.72 0.71 0.73 0.78 0.83 0.74 0.59 0.53 0.47 0.42 0.43 0.45 0.43 0.49 0.48 0.36 0.33 0.35 0.39 0.43 0.49 0.59 0.77 0.92 0.96 1.08 1.23 1.36 1.44 1.50 1.51
0.80 0.78 0.71 0.65 0.58 0.56 0.52 0.48 0.44 0.48 0.61 0.65 0.62 0.58 0.61 0.64 0.67 0.67 0.57 0.39 0.26 0.20 0.20 0.22 0.26 0.27 0.27 0.24 0.23 0.26 0.33 0.39 0.48 0.65 0.93 1.02 1.00 1.05 1.14 1.26 1.37 1.38 1.35

GEFSMW_prec_meanprecacc_276.txt.gz
Total_Precipitation_Accumulation
1.55 1.74 2.22 2.85 3.28 3.81 4.26 4.25 4.04 4.05 4.10 4.15 3.96 4.13 4.34 4.62 4.87 4.76 4.64 4.57 4.49 4.42 4.44 4.46 4.44 4.29 4.19 4.06 3.92 3.84 3.70 3.46 3.30 3.25 2.90 2.47 2.14 2.02 1.97 2.01 2.09 2.10 2.10
1.72 1.99 2.42 2.72 3.12 3.49 3.71 4.03 4.19 4.21 3.96 4.27 4.57 4.84 5.19 5.22 5.50 5.75 5.80 5.62 5.33 5.13 4.97 4.94 4.67 4.35 4.19 4.04 3.85 3.72 3.55 3.24 3.14 3.11 3.12 2.65 2.22 1.82 1.60 1.70 1.71 1.76 1.94
1.99 2.35 2.66 2.77 2.95 3.31 3.60 3.93 4.27 4.39 4.28 4.71 5.22 5.63 6.00 5.95 5.99 6.02 6.02 5.96 5.53 5.15 4.94 4.74 4.58 4.37 4.20 4.03 3.91 3.77 3.62 3.31 3.11 3.03 3.22 3.06 2.63 2.11 1.83 1.67 1.67 1.76 1.86
1.84 2.14 2.46 2.87 2.86 3.11 3.41 3.66 4.08 4.50 4.77 5.14 5.62 6.15 6.48 6.71 6.59 6.25 5.97 5.59 5.15 4.76 4.37 4.19 4.25 4.14 3.96 3.74 3.45 3.31 3.28 3.19 3.03 2.94 2.81 2.79 2.72 2.53 2.22 1.96 1.94 1.97 1.93
1.74 1.93 2.07 2.40 2.63 2.87 3.14 3.46 3.83 4.25 4.86 5.62 6.21 6.62 6.98 7.00 6.47 5.94 5.36 4.90 4.54 4.20 3.90 3.75 3.84 3.76 3.53 3.34 3.08 2.87 2.73 2.72 2.76 2.75 2.67 2.59 2.54 2.39 2.25 2.07 1.98 1.95 1.88
1.82 1.95 2.07 2.34 2.50 2.63 2.89 3.27 3.72 4.11 4.65 5.39 6.03 6.32 6.52 6.47 6.03 5.41 4.87 4.44 3.97 3.60 3.26 3.00 2.94 2.86 2.69 2.60 2.56 2.48 2.46 2.46 2.49 2.50 2.42 2.37 2.36 2.32 2.33 2.20 1.98 1.94 1.99
2.01 1.96 1.94 2.05 2.30 2.45 2.70 3.04 3.44 3.92 4.28 4.66 5.19 5.26 5.31 5.11 4.73 4.51 4.20 3.71 3.25 2.89 2.55 2.32 2.21 2.17 2.15 2.16 2.17 2.16 2.16 2.13 2.18 2.19 2.17 2.14 2.09 2.11 2.28 2.38 2.24 2.10 1.97
1.84 1.85 1.78 1.95 2.21 2.48 2.71 2.92 3.19 3.56 3.88 4.00 4.08 3.98 3.85 3.75 3.62 3.42 3.05 2.70 2.44 2.27 2.13 1.98 1.84 1.82 1.86 1.88 1.97 1.93 1.86 1.82 1.84 1.79 1.85 1.88 1.82 1.92 2.13 2.27 2.44 2.41 2.15
1.62 1.69 1.73 1.83 2.05 2.37 2.53 2.68 2.81 2.96 2.98 2.96 2.94 2.93 2.89 2.74 2.70 2.60 2.31 2.08 1.95 1.81 1.75 1.72 1.68 1.61 1.56 1.52 1.51 1.51 1.52 1.57 1.57 1.53 1.54 1.55 1.55 1.67 1.82 1.99 2.28 2.49 2.40
1.63 1.64 1.73 1.85 1.79 1.89 2.03 2.17 2.28 2.42 2.41 2.29 2.17 2.21 2.21 2.09 1.96 1.83 1.71 1.60 1.54 1.45 1.44 1.38 1.37 1.41 1.42 1.34 1.27 1.24 1.27 1.31 1.36 1.41 1.39 1.37 1.36 1.43 1.49 1.60 1.80 2.09 2.30
1.70 1.60 1.65 1.68 1.56 1.51 1.48 1.59 1.70 1.87 1.96 1.89 1.84 1.86 1.84 1.77 1.65 1.55 1.47 1.39 1.32 1.27 1.23 1.22 1.18 1.17 1.16 1.13 1.16 1.14 1.17 1.24 1.25 1.26 1.28 1.30 1.35 1.41 1.36 1.41 1.53 1.70 1.94
1.68 1.54 1.51 1.55 1.48 1.43 1.32 1.37 1.45 1.42 1.48 1.50 1.62 1.73 1.65 1.60 1.53 1.50 1.47 1.40 1.26 1.22 1.19 1.19 1.11 0.98 0.94 1.02 1.09 1.10 1.07 1.17 1.18 1.17 1.26 1.27 1.30 1.36 1.36 1.41 1.47 1.60 1.80
1.86 1.66 1.51 1.47 1.47 1.39 1.32 1.33 1.36 1.29 1.25 1.27 1.31 1.43 1.46 1.45 1.43 1.30 1.26 1.26 1.22 1.19 1.13 1.06 1.03 0.97 0.90 0.93 0.94 0.96 0.94 1.00 1.08 1.11 1.19 1.23 1.28 1.29 1.31 1.37 1.41 1.54 1.67
1.83 1.62 1.51 1.46 1.38 1.34 1.30 1.27 1.21 1.11 1.10 1.16 1.30 1.32 1.34 1.40 1.44 1.41 1.33 1.25 1.18 1.13 1.06 0.96 0.91 0.96 0.92 0.82 0.77 0.79 0.83 0.91 0.94 0.95 1.06 1.13 1.18 1.19 1.27 1.32 1.40 1.48 1.67
1.78 1.71 1.54 1.43 1.31 1.20 1.17 1.12 1.07 1.00 0.98 1.06 1.19 1.28 1.22 1.21 1.29 1.37 1.26 1.10 1.05 0.97 0.94 0.89 0.85 0.89 0.83 0.72 0.73 0.74 0.74 0.81 0.82 0.84 0.92 0.98 1.01 1.02 1.08 1.11 1.24 1.42 1.61
1.96 1.90 1.73 1.55 1.38 1.25 1.17 1.13 1.07 0.95 0.92 0.98 1.11 1.18 1.17 1.16 1.18 1.23 1.17 1.10 1.03 1.00 0.95 0.94 0.91 0.87 0.75 0.72 0.67 0.66 0.70 0.77 0.84 0.91 0.92 0.87 0.87 0.84 0.81 0.88 0.99 1.19 1.43
2.01 1.93 1.82 1.64 1.45 1.36 1.25 1.24 1.16 1.03 1.03 1.03 1.03 1.10 1.13 1.18 1.20 1.19 1.16 1.13 1.14 1.14 1.05 0.96 0.93 0.87 0.77 0.66 0.54 0.53 0.62 0.79 0.91 0.98 0.95 0.80 0.75 0.86 0.88 0.89 0.91 1.04 1.17
2.19 2.10 1.87 1.69 1.46 1.30 1.22 1.18 1.12 1.05 1.09 1.05 1.00 1.01 1.00 1.02 1.03 1.10 1.15 1.14 1.13 1.07 1.00 0.93 0.89 0.86 0.68 0.58 0.51 0.53 0.59 0.73 0.78 0.79 0.85 0.92 0.94 0.88 0.92 0.92 1.03 1.11 1.22
2.05 1.99 1.80 1.66 1.53 1.35 1.25 1.18 1.13 1.11 1.06 1.00 0.96 0.91 0.85 0.87 0.90 0.97 1.08 1.17 1.15 1.04 0.94 0.86 0.84 0.80 0.66 0.59 0.56 0.57 0.63 0.70 0.66 0.62 0.67 0.74 0.79 0.79 0.86 0.97 1.15 1.21 1.33
1.54 1.50 1.44 1.41 1.38 1.25 1.19 1.18 1.17 1.12 1.02 0.91 0.84 0.78 0.79 0.83 0.84 0.91 1.02 1.09 1.14 1.02 0.84 0.76 0.77 0.73 0.70 0.61 0.52 0.51 0.54 0.65 0.65 0.67 0.72 0.69 0.63 0.68 0.80 1.00 1.24 1.40 1.46
1.30 1.21 1.19 1.25 1.24 1.15 1.16 1.18 1.13 1.04 0.90 0.80 0.77 0.76 0.80 0.85 0.84 0.95 1.03 1.00 0.94 0.91 0.82 0.76 0.75 0.67 0.57 0.49 0.40 0.42 0.48 0.58 0.66 0.72 0.79 0.78 0.65 0.60 0.67 0.89 1.12 1.29 1.35
1.39 1.25 1.21 1.18 1.13 1.13 1.21 1.20 1.10 0.90 0.78 0.75 0.77 0.80 0.80 0.76 0.76 0.92 1.00 0.92 0.89 0.88 0.83 0.80 0.74 0.63 0.52 0.43 0.36 0.33 0.34 0.40 0.59 0.75 0.75 0.74 0.69 0.65 0.72 0.88 1.05 1.18 1.38
1.36 1.28 1.19 1.13 1.06 1.04 1.09 1.08 0.92 0.72 0.66 0.71 0.80 0.82 0.77 0.84 0.85 0.84 0.87 0.88 0.89 0.79 0.71 0.73 0.69 0.62 0.56 0.47 0.36 0.31 0.30 0.35 0.49 0.66 0.72 0.68 0.64 0.74 0.95 1.07 1.17 1.33 1.57
1.16 1.06 0.99 0.96 0.90 0.82 0.79 0.76 0.64 0.59 0.64 0.75 0.81 0.80 0.82 0.90 0.89 0.81 0.71 0.69 0.70 0.67 0.62 0.62 0.60 0.60 0.61 0.49 0.40 0.39 0.38 0.41 0.49 0.63 0.76 0.80 0.80 0.97 1.17 1.31 1.40 1.52 1.62
1.00 0.89 0.84 0.79 0.68 0.63 0.59 0.53 0.50 0.54 0.64 0.69 0.75 0.76 0.76 0.81 0.86 0.78 0.63 0.58 0.51 0.44 0.45 0.47 0.46 0.52 0.51 0.40 0.37 0.38 0.41 0.45 0.51 0.60 0.79 0.94 0.98 1.09 1.24 1.37 1.44 1.50 1.51
0.84 0.82 0.73 0.67 0.59 0.57 0.54 0.50 0.46 0.49 0.62 0.66 0.63 0.59 0.62 0.66 0.69 0.70 0.60 0.43 0.29 0.23 0.22 0.24 0.28 0.29 0.30 0.27 0.27 0.30 0.36 0.41 0.51 0.67 0.94 1.03 1.01 1.06 1.15 1.27 1.38 1.38 1.36

GEFSMW_prec_meanprecacc_282.txt.gz
Total_Precipitation_Accumulation
1.58 1.78 2.26 2.89 3.31 3.83 4.28 4.28 4.07 4.08 4.15 4.20 4.00 4.17 4.36 4.64 4.91 4.82 4.73 4.64 4.54 4.47 4.50 4.51 4.48 4.32 4.22 4.08 3.95 3.90 3.75 3.50 3.33 3.29 2.94 2.50 2.17 2.05 2.01 2.05 2.13 2.14 2.13
1.75 2.03 2.49 2.79 3.18 3.54 3.75 4.07 4.23 4.26 4.02 4.33 4.63 4.89 5.23 5.26 5.54 5.81 5.86 5.67 5.38 5.17 5.01 4.99 4.70 4.38 4.21 4.06 3.87 3.76 3.58 3.28 3.17 3.15 3.16 2.70 2.25 1.83 1.61 1.73 1.73 1.78 1.95
2.01 2.38 2.70 2.84 3.06 3.42 3.69 4.01 4.34 4.46 4.35 4.78 5.28 5.69 6.05 5.99 6.03 6.06 6.05 5.99 5.57 5.20 4.98 4.78 4.61 4.40 4.23 4.05 3.93 3.80 3.65 3.35 3.16 3.07 3.27 3.11 2.66 2.13 1.84 1.68 1.68 1.78 1.87
1.87 2.18 2.50 2.92 2.92 3.16 3.49 3.75 4.15 4.57 4.84 5.20 5.68 6.22 6.54 6.77 6.63 6.29 6.00 5.64 5.20 4.81 4.43 4.27 4.31 4.19 4.00 3.77 3.48 3.34 3.32 3.24 3.07 2.97 2.85 2.82 2.75 2.56 2.25 1.99 1.95 1.98 1.94
1.78 1.98 2.12 2.44 2.67 2.90 3.19 3.51 3.88 4.31 4.92 5.68 6.26 6.68 7.04 7.06 6.54 6.00 5.42 4.98 4.61 4.26 3.98 3.84 3.92 3.83 3.59 3.40 3.13 2.90 2.77 2.76 2.79 2.79 2.70 2.61 2.56 2.40 2.26 2.09 1.99 1.97 1.91
1.86 2.00 2.11 2.36 2.53 2.65 2.92 3.29 3.75 4.16 4.70 5.44 6.09 6.38 6.58 6.53 6.11 5.49 4.94 4.53 4.06 3.68 3.35 3.12 3.04 2.93 2.74 2.65 2.61 2.52 2.49 2.49 2.51 2.53 2.45 2.39 2.38 2.34 2.34 2.21 1.99 1.95 2.00
2.06 2.01 1.97 2.07 2.32 2.47 2.71 3.07 3.47 3.96 4.32 4.71 5.25 5.32 5.38 5.19 4.82 4.59 4.28 3.79 3.35 2.98 2.64 2.42 2.31 2.26 2.22 2.20 2.21 2.20 2.19 2.16 2.21 2.22 2.21 2.18 2.12 2.14 2.31 2.41 2.26 2.11 1.98
1.87 1.89 1.81 1.96 2.23 2.50 2.74 2.96 3.21 3.59 3.92 4.03 4.12 4.03 3.90 3.81 3.68 3.48 3.11 2.76 2.51 2.35 2.24 2.09 1.95 1.92 1.96 1.97 2.03 1.97 1.89 1.85 1.86 1.82 1.87 1.91 1.86 1.97 2.18 2.31 2.48 2.44 2.17
1.67 1.74 1.78 1.88 2.09 2.41 2.57 2.72 2.85 2.99 3.01 2.99 2.99 2.96 2.93 2.79 2.75 2.64 2.35 2.11 1.99 1.88 1.83 1.80 1.75 1.67 1.62 1.59 1.56 1.54 1.54 1.59 1.59 1.55 1.56 1.56 1.58 1.71 1.87 2.04 2.32 2.53 2.43
1.68 1.70 1.80 1.93 1.85 1.93 2.07 2.20 2.32 2.45 2.43 2.32 2.22 2.26 2.24 2.12 1.99 1.85 1.72 1.61 1.56 1.50 1.49 1.43 1.41 1.45 1.46 1.39 1.30 1.26 1.29 1.33 1.38 1.44 1.41 1.39 1.39 1.47 1.51 1.63 1.83 2.12 2.34
1.73 1.64 1.71 1.75 1.62 1.55 1.52 1.63 1.74 1.92 2.00 1.93 1.88 1.90 1.87 1.80 1.67 1.56 1.48 1.39 1.34 1.32 1.27 1.25 1.21 1.19 1.19 1.17 1.18 1.15 1.18 1.25 1.26 1.27 1.30 1.32 1.37 1.44 1.39 1.43 1.55 1.73 1.98
1.71 1.57 1.54 1.60 1.54 1.48 1.37 1.43 1.50 1.48 1.53 1.55 1.67 1.77 1.68 1.62 1.55 1.52 1.49 1.42 1.29 1.27 1.24 1.23 1.14 1.01 0.97 1.04 1.12 1.11 1.08 1.18 1.19 1.18 1.27 1.28 1.30 1.37 1.38 1.44 1.50 1.62 1.82
1.88 1.69 1.54 1.51 1.51 1.43 1.38 1.41 1.44 1.37 1.32 1.32 1.36 1.47 1.49 1.46 1.44 1.32 1.29 1.29 1.27 1.25 1.20 1.13 1.12 1.05 0.94 0.94 0.96 0.98 0.96 1.01 1.09 1.12 1.19 1.24 1.29 1.30 1.32 1.38 1.42 1.55 1.69
1.87 1.66 1.54 1.50 1.42 1.37 1.35 1.35 1.30 1.19 1.18 1.22 1.34 1.36 1.37 1.42 1.46 1.42 1.35 1.29 1.24 1.19 1.15 1.07 1.01 0.99 0.94 0.83 0.78 0.80 0.86 0.93 0.96 0.96 1.08 1.14 1.19 1.20 1.28 1.33 1.40 1.49 1.68
1.81 1.74 1.56 1.46 1.34 1.22 1.19 1.18 1.13 1.03 1.02 1.09 1.22 1.31 1.25 1.24 1.31 1.38 1.29 1.14 1.09 1.01 0.98 0.93 0.89 0.91 0.84 0.73 0.74 0.76 0.76 0.82 0.84 0.87 0.95 1.01 1.03 1.03 1.10 1.12 1.25 1.43 1.61
1.98 1.93 1.75 1.57 1.39 1.26 1.19 1.17 1.10 0.97 0.95 1.00 1.13 1.20 1.20 1.19 1.20 1.25 1.20 1.13 1.07 1.03 0.98 0.96 0.93 0.88 0.76 0.74 0.70 0.69 0.72 0.79 0.86 0.92 0.94 0.89 0.89 0.86 0.82 0.89 1.00 1.19 1.43
2.03 1.95 1.84 1.66 1.47 1.37 1.27 1.28 1.19 1.05 1.06 1.06 1.07 1.13 1.16 1.20 1.22 1.21 1.19 1.17 1.17 1.17 1.08 0.99 0.95 0.89 0.78 0.69 0.57 0.57 0.64 0.81 0.92 0.99 0.96 0.81 0.76 0.87 0.89 0.90 0.92 1.04 1.17
2.20 2.12 1.90 1.72 1.48 1.32 1.25 1.21 1.15 1.08 1.12 1.08 1.04 1.05 1.05 1.06 1.06 1.12 1.17 1.17 1.15 1.09 1.03 0.96 0.92 0.89 0.70 0.60 0.53 0.55 0.60 0.74 0.79 0.80 0.86 0.93 0.94 0.89 0.93 0.93 1.03 1.11 1.22
2.07 2.01 1.83 1.69 1.55 1.37 1.28 1.22 1.15 1.14 1.08 1.02 0.97 0.92 0.87 0.89 0.92 0.99 1.10 1.20 1.18 1.06 0.96 0.89 0.87 0.84 0.69 0.62 0.59 0.60 0.65 0.71 0.67 0.63 0.68 0.75 0.80 0.80 0.87 0.98 1.15 1.21 1.34
1.55 1.52 1.46 1.42 1.40 1.27 1.21 1.20 1.20 1.14 1.05 0.94 0.87 0.80 0.80 0.84 0.87 0.93 1.05 1.12 1.16 1.04 0.86 0.78 0.80 0.76 0.72 0.64 0.55 0.53 0.55 0.66 0.66 0.69 0.74 0.71 0.65 0.70 0.81 1.01 1.25 1.41 1.46
1.31 1.23 1.21 1.26 1.25 1.16 1.18 1.19 1.14 1.06 0.93 0.83 0.80 0.79 0.83 0.88 0.88 0.99 1.07 1.03 0.95 0.92 0.83 0.78 0.77 0.69 0.59 0.51 0.42 0.43 0.49 0.59 0.67 0.74 0.81 0.80 0.67 0.61 0.69 0.90 1.13 1.30 1.35
1.40 1.27 1.22 1.20 1.15 1.14 1.22 1.21 1.11 0.92 0.80 0.77 0.80 0.83 0.83 0.79 0.79 0.94 1.01 0.93 0.90 0.89 0.85 0.81 0.75 0.64 0.53 0.45 0.39 0.35 0.36 0.41 0.61 0.77 0.77 0.76 0.71 0.68 0.75 0.90 1.07 1.20 1.40
1.39 1.30 1.21 1.14 1.08 1.05 1.10 1.10 0.94 0.74 0.67 0.72 0.82 0.85 0.79 0.85 0.86 0.85 0.88 0.89 0.90 0.81 0.74 0.74 0.70 0.63 0.57 0.48 0.38 0.34 0.33 0.38 0.52 0.68 0.73 0.70 0.66 0.76 0.97 1.09 1.19 1.35 1.59
1.19 1.09 1.02 0.98 0.91 0.83 0.80 0.77 0.65 0.60 0.66 0.76 0.83 0.83 0.83 0.92 0.91 0.83 0.72 0.70 0.71 0.69 0.64 0.63 0.61 0.61 0.62 0.50 0.42 0.42 0.42 0.46 0.53 0.65 0.78 0.82 0.82 0.98 1.18 1.32 1.42 1.53 1.63
1.05 0.96 0.90 0.82 0.70 0.65 0.60 0.54 0.51 0.55 0.65 0.71 0.77 0.78 0.78 0.82 0.88 0.80 0.65 0.59 0.52 0.46 0.46 0.47 0.46 0.53 0.52 0.41 0.40 0.40 0.44 0.51 0.56 0.63 0.81 0.95 0.99 1.10 1.25 1.38 1.45 1.51 1.52
0.92 0.92 0.82 0.71 0.63 0.60 0.56 0.51 0.47 0.50 0.63 0.68 0.65 0.61 0.63 0.67 0.71 0.71 0.62 0.45 0.31 0.24 0.23 0.24 0.28 0.30 0.30 0.28 0.29 0.32 0.37 0.43 0.55 0.71 0.96 1.04 1.02 1.07 1.16 1.28 1.38 1.39 1.37